GFSMW_250_rhum_000.txt.gz
RH
53 54 45 33 29 28 29 32 36 38 41 41 42 45 46 47 48 54 56 61 81 100 100 100 100 91 100 100 100 100 100 99 92 64 58 89 97 97 100 100 100 100 100
36 36 38 40 42 43 41 39 38 28 28 40 62 75 71 70 78 80 80 79 79 74 75 69 94 100 100 64 64 68 74 75 72 73 72 90 90 100 100 100 100 100 100
34 37 36 45 55 61 66 67 64 60 56 55 52 47 50 59 66 69 75 83 86 75 64 66 64 64 70 71 60 56 69 70 69 76 76 83 100 100 100 100 100 100 100
44 45 48 53 61 64 57 52 47 54 55 66 64 67 73 72 59 55 58 61 58 52 55 55 61 64 57 78 89 87 82 98 100 100 100 100 100 100 100 100 100 100 100
42 47 58 64 72 87 94 86 81 69 59 54 55 64 70 74 61 54 56 56 50 50 44 41 38 46 52 46 62 90 99 100 100 100 100 100 100 100 100 100 100 100 100
48 52 63 79 89 85 88 95 100 96 84 76 78 79 89 97 97 92 89 80 75 76 74 69 62 74 82 81 81 82 79 73 80 94 98 100 100 100 100 99 100 100 100
62 80 92 96 96 91 97 100 84 69 56 64 66 56 56 72 86 81 90 82 68 65 63 58 59 65 64 76 77 70 71 75 79 86 87 100 100 100 100 100 100 100 100
100 100 100 94 93 96 100 96 79 61 57 52 56 59 54 55 59 59 77 95 64 60 63 69 76 71 53 50 44 40 48 45 47 53 79 100 100 100 100 100 100 100 100
100 98 96 87 71 63 66 72 67 51 52 40 50 53 58 71 85 89 81 84 76 68 89 72 52 44 65 67 71 77 78 76 72 62 54 60 80 84 100 100 100 100 100
65 68 66 58 56 60 71 65 46 30 28 28 38 64 77 78 78 77 76 80 83 68 67 67 78 75 73 76 84 92 85 78 80 75 77 66 68 78 89 93 100 100 100
79 98 100 100 94 90 85 73 64 35 33 57 50 61 71 85 93 100 99 100 100 86 79 84 88 89 87 90 91 92 88 86 82 79 70 72 76 76 88 100 100 100 100
76 73 75 73 70 74 73 67 63 57 39 74 98 76 93 100 100 100 100 100 98 92 73 87 89 87 96 93 90 90 87 86 87 71 61 63 68 89 99 100 100 100 100
68 58 51 52 46 45 61 72 61 44 43 49 98 100 99 78 64 71 81 79 89 97 97 99 92 98 94 90 96 92 86 88 80 62 55 42 52 98 100 97 100 100 100
64 46 33 36 44 52 49 45 35 42 46 61 69 64 59 58 70 82 87 90 89 91 89 80 83 72 73 78 84 83 85 74 76 58 38 32 85 96 99 100 100 100 100
60 46 40 34 31 33 44 73 72 87 96 39 38 48 60 70 80 82 88 88 81 75 71 64 56 61 69 71 83 92 88 63 61 51 29 42 98 100 100 100 100 100 100
31 27 32 40 45 51 53 61 94 100 56 53 56 62 60 57 63 64 65 55 52 54 54 52 56 61 66 70 83 71 65 57 53 42 28 62 88 100 100 100 100 100 100
42 48 48 60 70 74 100 100 77 50 67 58 61 49 47 51 57 51 45 42 48 50 58 58 56 58 61 70 72 58 44 47 49 32 27 69 97 100 100 100 100 100 100
50 73 87 100 98 98 57 42 47 60 49 45 44 44 44 43 42 45 47 47 47 49 51 57 50 50 55 66 55 42 35 37 43 24 25 73 100 100 100 100 100 100 100
68 81 66 33 40 49 44 48 44 37 37 44 60 61 52 46 40 35 37 39 43 45 43 47 49 44 47 53 38 34 28 36 29 22 22 80 100 100 100 100 100 100 100
65 85 75 37 26 27 28 30 35 39 46 48 51 54 48 42 36 33 36 41 39 40 40 39 36 38 36 38 37 27 28 22 22 22 24 84 100 100 100 100 100 100 100
72 41 26 25 24 25 26 28 31 37 44 44 38 34 34 34 34 34 35 35 38 43 35 28 31 27 28 28 27 25 25 22 24 23 27 91 100 100 100 100 100 100 100
21 22 24 27 29 30 32 32 31 30 32 32 32 33 33 31 31 31 31 31 30 26 26 20 20 21 21 22 21 24 20 18 20 24 38 88 95 100 100 100 100 100 100
30 31 32 33 34 34 35 34 35 35 36 37 37 34 29 28 26 26 28 27 22 19 16 15 15 17 17 18 20 20 16 15 18 24 39 75 85 90 100 100 100 100 100
39 41 43 41 39 37 36 30 23 22 22 23 25 25 30 28 24 23 23 20 18 12 11 12 14 17 17 18 17 13 13 16 18 22 29 32 32 38 80 100 100 100 100
31 29 30 30 26 22 20 18 16 14 16 19 23 21 21 21 19 13 14 13 11 11 11 12 14 15 17 16 11 11 12 16 18 18 18 11 12 39 92 100 100 100 100
20 21 20 18 16 14 15 14 13 14 15 15 17 16 12 10 10 9 9 10 11 11 11 12 13 16 13 9 9 11 13 17 17 17 14 6 22 54 100 100 100 100 100

GFSMW_250_rhum_003.txt.gz
RH
32 31 33 39 45 46 37 29 29 34 35 35 36 44 46 49 64 70 71 61 64 73 72 77 79 82 74 66 64 74 65 64 67 69 72 95 100 100 100 100 100 100 100
36 39 42 44 38 35 41 47 53 61 69 65 65 66 58 57 54 51 51 52 50 47 48 51 57 55 56 62 63 60 63 61 65 70 81 83 80 83 98 100 100 100 100
35 38 38 41 45 47 57 65 73 80 77 54 43 42 44 45 39 40 53 52 55 73 81 77 80 84 80 69 67 62 60 64 70 74 60 44 49 58 58 61 60 65 84
30 32 38 42 45 52 56 68 76 69 55 50 50 49 49 54 62 70 72 66 57 64 87 96 81 54 44 52 52 59 65 63 46 42 36 39 41 35 42 50 51 57 68
35 42 42 45 49 55 64 63 57 55 58 68 76 84 75 74 67 52 40 42 44 47 48 51 49 54 58 56 62 72 57 58 56 54 51 61 68 75 64 71 76 75 71
47 48 51 56 58 60 63 63 72 77 77 86 94 95 90 70 60 52 50 40 42 45 46 52 58 68 80 81 75 75 86 72 58 68 97 86 94 99 88 80 86 78 74
55 57 72 78 75 87 90 100 100 96 91 80 68 70 60 65 43 36 36 36 46 48 48 64 70 74 76 81 88 62 74 68 85 99 92 88 82 91 89 89 94 82 71
63 60 68 80 78 81 99 96 87 77 71 67 64 70 79 74 71 56 44 44 56 51 64 80 86 68 59 56 52 63 77 70 84 98 93 90 93 100 93 92 88 74 68
60 64 98 100 99 95 82 74 73 73 72 87 97 90 76 67 67 72 70 56 45 35 42 63 62 63 44 42 55 70 73 85 94 92 87 92 98 83 86 86 70 66 64
76 74 70 67 64 58 61 70 88 100 79 53 50 49 46 48 51 50 46 38 50 63 52 57 46 43 52 64 65 74 89 87 92 87 75 96 91 89 95 87 67 52 58
68 62 58 64 68 68 64 61 56 58 62 45 35 35 40 45 54 59 69 59 74 89 60 56 48 62 74 78 79 85 95 75 73 68 74 82 89 100 100 83 69 48 55
70 76 75 79 71 62 57 58 69 74 76 46 48 52 60 55 46 43 46 67 76 71 44 51 54 69 78 77 75 81 78 66 70 75 78 82 96 100 100 92 60 49 49
77 81 86 91 85 81 84 91 92 90 61 45 52 60 55 51 48 56 62 69 70 43 41 49 58 65 65 61 66 66 64 64 72 82 85 80 87 95 100 83 52 54 43
100 100 100 100 100 100 100 100 94 79 64 49 38 46 39 43 48 82 76 82 71 40 44 52 53 56 50 45 54 59 62 62 68 69 69 74 65 81 75 66 56 56 38
100 100 100 100 100 93 91 93 79 70 56 39 33 37 52 78 90 100 89 78 50 40 50 49 52 51 51 54 60 54 48 52 55 50 61 64 67 63 75 63 44 55 30
100 100 99 98 98 91 72 61 52 42 40 44 43 50 67 80 92 81 61 43 43 48 43 43 46 44 46 60 58 49 45 46 52 52 57 59 61 61 61 57 40 44 25
61 64 64 48 37 36 31 28 23 31 35 35 43 47 62 56 50 36 28 31 37 36 36 35 38 37 42 61 55 47 47 48 51 48 49 51 55 56 51 36 35 28 24
55 52 44 30 25 20 19 29 38 44 52 50 35 40 36 35 24 24 24 26 25 26 31 35 38 34 47 52 53 46 42 38 42 44 42 40 51 33 30 24 28 22 25
37 28 25 22 24 24 35 38 46 32 26 27 30 26 27 24 24 24 25 27 28 31 33 32 32 38 39 45 47 48 43 36 34 34 33 28 27 26 20 26 23 23 31
26 28 34 41 34 25 27 26 26 23 25 25 27 28 29 30 32 33 34 35 33 34 37 39 40 41 45 43 40 34 27 23 25 29 26 22 15 18 22 22 21 22 44
27 26 26 25 25 23 24 26 26 28 30 32 33 35 36 35 34 30 30 29 28 30 35 35 34 30 28 28 24 20 18 18 19 21 18 14 16 20 24 21 19 24 54
38 39 40 40 40 40 39 39 40 39 38 36 34 34 32 27 23 22 25 22 19 19 20 19 19 18 18 18 16 16 14 13 16 16 15 17 22 23 20 16 20 26 72
39 36 34 30 28 25 22 18 16 16 15 16 14 14 13 11 12 12 12 12 14 11 12 11 13 13 13 15 13 11 11 13 15 16 18 20 21 18 14 17 22 26 92
33 33 32 29 23 16 14 12 10 8 9 9 8 8 10 11 10 10 11 14 12 6 6 8 9 11 12 11 11 11 12 14 14 14 16 21 14 12 16 20 23 32 81
31 28 24 20 16 12 11 10 9 9 9 9 9 9 11 12 12 12 10 7 7 7 8 8 9 10 11 10 9 10 11 12 14 18 17 10 11 14 20 22 22 25 58
16 14 12 10 8 8 8 8 9 8 8 8 8 10 9 7 7 7 7 8 8 8 7 8 8 9 8 10 11 11 12 14 17 15 8 9 12 17 22 20 18 15 35

GFSMW_250_rhum_006.txt.gz
RH
100 97 77 60 43 32 34 44 46 34 36 50 56 60 55 59 55 50 48 50 51 48 42 50 56 50 55 76 97 100 100 98 67 63 69 67 60 59 51 47 47 56 54
85 66 48 34 32 35 46 45 39 46 56 63 68 71 65 44 36 37 40 40 41 47 58 57 62 66 70 77 63 56 62 76 76 71 67 58 78 56 54 60 67 66 71
32 35 34 35 43 49 48 47 50 52 60 66 64 62 52 51 46 43 43 44 49 65 64 56 53 52 44 46 44 45 47 60 74 78 58 55 64 66 78 73 85 93 97
35 40 44 46 42 41 48 47 48 54 58 60 61 53 57 52 52 58 65 63 71 67 56 44 37 42 42 45 48 44 39 41 45 65 58 60 67 63 55 76 95 100 99
36 35 35 36 36 35 38 49 55 58 55 49 46 47 48 47 47 54 64 62 66 55 56 66 69 67 54 54 46 38 36 51 43 53 54 51 59 62 67 87 99 99 98
31 31 32 34 38 50 55 52 49 44 43 45 55 60 58 61 65 61 59 58 69 76 75 69 62 59 50 55 51 43 63 66 52 53 51 42 53 77 95 97 100 91 92
43 44 45 50 54 56 53 55 58 58 61 63 58 64 70 57 52 60 72 61 50 42 41 44 54 55 48 53 66 64 58 52 40 39 43 58 78 92 90 97 98 91 92
51 59 61 60 62 53 49 58 71 81 76 76 79 60 48 46 77 93 57 66 46 51 49 48 47 54 46 48 47 48 49 37 36 42 55 72 90 88 78 79 79 79 88
73 77 74 66 67 66 56 52 68 81 69 57 55 50 52 67 57 52 61 79 58 42 36 34 44 46 47 53 56 69 57 35 35 48 66 72 67 62 66 70 72 74 80
75 71 68 66 56 49 52 54 56 57 62 62 62 60 60 63 63 74 83 88 80 57 46 42 40 51 62 54 63 80 59 42 42 52 61 52 52 55 62 73 76 72 70
67 60 71 71 65 63 66 66 62 61 66 71 75 82 87 89 97 100 100 88 74 64 59 63 62 46 43 58 68 86 72 50 43 47 46 49 62 70 68 72 72 70 74
68 71 78 87 90 89 89 99 99 100 100 100 100 100 100 100 100 98 84 75 77 65 72 68 55 44 51 52 82 71 75 52 36 40 40 45 67 73 64 67 70 71 72
85 77 86 98 99 100 100 100 100 100 100 99 98 97 98 90 73 59 49 52 55 69 53 46 39 39 50 44 50 48 33 34 33 34 35 42 55 54 60 61 69 65 66
100 93 83 82 84 89 91 90 90 88 84 82 82 73 64 60 55 49 46 46 39 36 27 36 50 54 50 35 38 37 28 26 29 31 31 33 41 46 49 57 67 62 58
100 100 100 99 92 88 96 97 94 96 88 79 71 64 54 50 42 35 32 27 30 42 43 37 37 31 33 32 26 25 24 26 29 30 31 34 38 47 52 49 47 50 51
100 100 100 100 100 100 96 97 97 88 73 59 51 42 30 26 27 23 23 28 29 30 36 24 22 25 27 27 28 30 32 32 33 35 38 39 42 43 43 42 44 43 40
98 100 93 89 77 67 63 57 48 42 35 32 31 32 29 29 30 32 30 27 22 20 24 25 30 29 31 32 35 36 35 35 38 39 41 42 42 39 33 28 29 29 32
95 88 79 70 61 53 47 39 36 32 29 26 26 28 30 30 30 29 26 28 28 29 26 27 30 32 33 32 31 33 31 30 30 29 31 30 29 25 20 20 23 26 28
59 52 48 47 38 32 30 27 26 27 24 26 30 28 28 28 26 23 20 18 17 16 16 14 13 12 12 13 14 14 14 16 15 14 15 15 18 20 23 22 21 22 16
44 37 32 30 30 29 31 31 31 34 35 31 30 25 19 16 13 12 12 11 11 9 9 9 9 10 11 12 13 12 12 12 13 14 14 14 10 10 12 15 17 13 18
42 50 52 56 56 51 45 41 34 29 26 23 22 19 19 15 11 9 9 8 9 8 9 9 11 11 10 10 9 8 9 9 11 11 10 8 10 11 14 14 13 15 20
56 48 40 32 27 26 24 23 24 28 23 19 16 13 11 13 14 11 10 10 9 9 11 9 8 9 10 9 10 11 11 10 8 8 9 10 11 11 12 13 15 15 23
32 29 26 26 30 30 24 22 23 24 16 17 16 14 13 12 10 10 9 10 9 9 10 10 9 9 11 9 9 8 7 7 8 9 10 11 11 12 13 14 16 17 22
28 25 26 27 23 20 19 15 14 14 12 11 10 10 10 10 8 5 5 6 6 6 6 6 6 6 7 8 8 9 9 9 9 10 10 10 9 9 10 14 17 21 25
26 20 20 18 14 11 10 9 8 7 6 7 7 7 6 5 5 5 5 6 5 5 6 7 8 9 8 9 10 10 9 9 8 9 10 11 11 13 14 18 21 23 14
16 19 17 11 7 7 6 6 6 6 6 7 6 6 5 5 5 6 7 9 8 8 8 8 8 9 9 9 9 8 8 7 8 8 10 12 14 15 20 24 22 12 13

GFSMW_250_rhum_009.txt.gz
RH
100 100 100 94 90 92 97 91 71 63 39 43 41 41 51 58 64 66 58 49 42 39 40 39 39 44 49 67 67 54 40 43 42 42 50 50 46 44 45 62 74 81 69
98 86 80 67 62 70 68 50 39 36 42 44 46 51 58 58 60 59 54 45 38 39 40 42 50 62 75 84 72 72 70 74 73 67 54 43 51 51 66 58 67 64 71
83 67 64 60 60 54 47 43 36 43 47 45 45 49 61 63 55 51 42 41 41 44 48 58 75 68 67 72 70 59 45 46 54 48 42 38 43 46 53 54 42 52 60
53 51 42 44 40 39 36 36 43 43 40 47 52 57 59 58 51 48 45 45 45 45 54 63 61 59 61 53 40 42 44 46 45 45 51 49 49 42 51 49 49 55 61
34 38 38 39 42 44 45 42 39 44 47 46 53 58 53 50 45 39 39 39 39 63 71 67 65 70 62 62 57 50 46 42 41 41 42 45 50 53 45 41 42 48 63
46 52 50 45 43 42 44 47 45 45 49 56 56 53 47 44 41 39 37 46 72 65 46 57 77 56 54 66 82 87 77 62 54 60 64 59 50 64 64 47 34 46 66
47 43 46 48 49 55 55 52 49 52 52 52 51 48 50 49 52 61 76 83 60 51 49 58 58 61 76 98 100 88 78 70 62 70 71 63 54 51 78 63 45 38 55
47 47 47 48 51 57 63 62 58 55 57 57 50 47 42 45 56 82 64 58 61 66 68 75 83 83 88 89 91 88 72 72 78 74 63 57 56 50 68 88 62 44 52
55 60 64 60 60 63 66 65 64 60 56 58 62 61 55 53 55 55 59 59 65 74 79 74 75 79 80 100 92 66 56 66 63 66 62 52 69 65 58 89 73 39 41
62 62 55 64 75 79 82 87 84 81 72 73 74 74 73 73 70 69 73 71 70 80 90 98 100 100 97 66 54 45 43 47 62 54 51 54 76 78 77 79 68 47 36
60 59 71 94 100 100 97 93 86 83 79 71 65 60 57 56 59 60 63 68 72 77 85 95 85 62 52 57 48 47 41 38 43 40 44 48 50 78 70 70 51 35 39
95 100 98 97 89 87 82 74 65 62 56 57 67 74 78 78 85 93 99 99 100 97 78 67 75 71 51 46 47 36 37 30 27 24 37 32 32 32 31 33 39 43 41
96 92 82 77 70 62 61 60 61 71 82 90 99 100 100 100 100 100 98 87 73 68 63 50 39 32 32 28 26 24 25 25 26 24 23 23 25 26 26 27 30 35 40
78 79 75 68 56 61 78 82 90 95 96 99 100 99 100 100 98 86 64 53 46 38 35 35 34 29 27 29 28 28 27 26 24 24 21 19 19 20 22 24 27 29 32
65 75 84 92 98 100 100 100 100 100 100 100 94 82 66 60 52 50 45 39 35 33 27 30 36 32 30 28 26 21 22 20 21 22 17 16 16 17 17 18 23 25 31
87 95 100 98 97 100 100 94 80 72 74 66 56 49 46 44 38 37 38 40 33 28 26 26 22 21 20 21 18 16 14 14 13 14 14 14 16 17 16 16 15 15 17
95 91 92 95 88 80 71 65 59 56 52 50 52 48 38 31 30 27 28 26 26 24 22 20 19 16 16 15 15 13 13 14 13 12 13 14 16 18 16 15 17 18 17
88 82 81 74 64 59 58 57 48 46 48 49 44 38 36 32 32 29 23 19 18 15 14 12 12 14 15 15 15 14 12 14 15 13 12 15 14 12 11 11 12 16 15
72 59 49 49 52 57 56 54 52 54 50 44 36 30 27 23 21 18 16 16 13 11 12 10 11 10 11 11 11 10 11 11 10 8 9 10 10 11 11 11 12 13 13
55 60 63 53 47 42 40 38 37 34 30 26 24 21 18 16 16 15 13 12 11 11 9 10 11 12 12 12 12 11 10 7 6 6 8 9 8 8 8 8 8 8 9
48 39 36 37 38 41 43 46 41 36 29 26 26 19 16 13 12 13 10 9 9 9 9 9 10 10 9 7 6 5 5 5 5 6 6 6 6 6 6 7 7 8 10
34 35 36 39 44 50 46 38 31 27 23 18 16 13 10 8 8 8 6 5 5 5 5 6 6 6 5 5 5 5 5 5 5 7 8 8 8 6 7 8 8 9 13
31 37 39 46 54 45 37 30 22 15 11 9 7 7 7 6 6 5 5 5 4 4 4 5 5 7 7 6 6 7 8 8 8 8 8 8 8 9 10 10 10 12 12
37 49 53 51 48 37 22 14 10 6 6 6 7 7 6 6 5 5 4 4 4 4 5 5 6 7 7 7 8 8 8 7 8 8 8 9 10 11 11 10 11 13 13
61 65 64 62 47 30 12 6 6 6 6 8 8 7 6 6 5 5 4 4 5 4 5 6 7 7 8 7 6 6 6 5 6 8 9 9 9 9 9 10 11 15 16
80 78 72 53 28 17 8 7 7 8 8 8 6 6 5 5 5 5 6 7 6 6 5 5 5 5 5 6 6 6 5 6 6 6 7 7 8 8 9 10 11 17 19

GFSMW_250_rhum_012.txt.gz
RH
42 44 46 55 54 59 65 71 89 100 100 99 75 91 51 42 44 40 51 57 59 69 74 75 62 41 36 42 44 48 61 73 68 58 49 41 44 49 49 44 44 45 57
63 74 82 84 88 90 84 92 98 98 97 94 71 46 42 46 49 56 58 55 56 54 50 45 41 38 40 44 47 52 64 68 64 57 42 46 53 64 79 77 74 72 74
65 82 96 98 98 95 86 78 74 79 80 63 49 41 40 46 44 47 52 55 57 52 46 43 43 43 44 44 48 62 70 62 70 72 55 51 58 74 98 88 85 85 84
43 61 75 86 92 98 97 93 85 77 61 53 51 46 49 43 41 44 43 46 51 49 44 42 39 38 39 43 57 66 51 56 61 69 60 66 68 77 85 100 89 81 79
44 47 59 80 88 91 72 48 42 41 42 41 45 55 57 53 46 44 48 52 52 51 49 48 45 44 44 54 72 58 56 63 63 73 89 90 90 100 83 64 66 58 58
37 50 66 69 58 43 43 46 48 48 48 49 50 48 48 48 56 64 66 63 58 54 48 45 44 46 74 84 63 60 70 88 92 100 100 100 100 100 84 54 52 52 69
39 40 43 44 46 51 50 53 51 45 45 54 63 69 68 68 67 62 55 54 55 53 52 50 50 55 59 55 57 59 66 64 56 56 66 94 98 71 61 59 61 47 58
40 46 50 53 51 53 63 59 57 59 60 66 74 80 82 72 63 60 60 59 58 60 62 62 62 65 65 63 59 56 52 49 57 72 97 97 68 64 72 61 48 43 49
44 46 50 51 60 86 87 81 82 80 79 82 81 81 81 77 71 72 73 70 68 73 73 70 66 59 51 49 50 54 73 93 100 95 64 60 69 85 74 66 61 42 38
54 57 63 75 87 97 93 84 72 66 74 79 76 77 72 70 69 66 62 58 53 50 47 48 54 56 58 57 66 78 70 54 52 52 53 67 63 44 41 36 35 30 31
47 52 65 74 82 84 77 75 94 96 83 74 75 72 69 62 57 56 58 59 63 62 62 65 75 82 89 89 60 47 42 39 40 42 33 31 27 25 30 27 28 29 32
64 66 69 69 64 73 88 93 88 84 84 80 76 73 75 75 71 74 78 83 92 92 82 83 78 62 49 47 40 36 41 34 29 29 28 25 23 22 21 22 23 20 20
100 100 100 100 93 89 86 81 78 73 66 69 74 70 72 73 78 88 98 98 89 70 58 52 47 43 39 41 39 34 30 31 27 25 21 18 18 19 18 15 16 19 19
100 98 93 86 79 69 63 67 72 80 77 70 74 83 93 98 100 89 70 61 51 47 42 34 32 32 31 29 24 22 22 20 17 16 14 15 15 15 16 16 18 21 22
78 68 68 59 61 83 85 76 70 68 81 98 100 98 84 63 51 49 48 49 44 40 33 29 25 23 20 17 15 14 13 15 14 14 13 14 14 16 15 13 17 15 15
61 56 64 65 63 57 49 54 81 92 86 67 50 46 54 53 49 43 41 38 34 31 25 22 19 18 16 14 13 12 11 12 13 14 14 12 12 13 10 12 13 14 15
60 62 68 55 53 77 83 72 66 59 52 51 49 45 43 44 41 40 37 31 29 25 21 18 16 15 16 16 15 13 11 12 13 11 9 10 10 9 10 10 10 12 10
82 70 51 57 67 72 71 62 52 47 42 41 41 42 39 37 36 33 31 27 23 19 17 16 14 13 11 10 10 9 8 7 7 6 6 8 9 7 7 7 6 6 6
63 59 58 44 48 55 51 45 40 36 37 38 42 38 40 37 36 31 26 21 14 12 12 11 9 7 9 7 6 5 5 4 4 4 5 6 6 6 5 5 6 6 8
56 42 44 50 43 38 36 36 40 46 58 47 54 46 40 30 25 19 14 11 9 6 6 7 7 7 6 5 4 4 4 4 4 5 6 7 7 7 7 6 7 9 11
52 45 38 37 39 40 42 51 58 57 66 60 48 40 28 16 13 10 7 7 6 6 6 5 5 4 4 4 4 4 4 4 5 6 7 8 7 8 8 9 10 11 13
39 39 36 35 41 48 52 56 70 78 63 55 36 19 12 8 6 6 7 7 6 4 4 4 4 4 4 4 4 4 4 4 5 6 7 8 8 8 8 8 10 10 10
32 29 35 40 54 62 61 64 82 66 56 34 16 9 7 7 8 8 6 5 4 3 3 3 4 4 4 4 4 4 4 4 4 5 6 6 6 6 6 6 8 10 11
36 42 49 49 62 74 77 73 60 53 36 13 8 7 8 8 7 5 4 4 4 3 4 3 3 4 4 4 4 5 5 4 4 4 5 6 6 6 6 6 8 10 10
43 49 53 71 76 68 77 73 58 28 14 11 9 8 7 6 4 4 4 4 4 3 2 3 3 3 4 4 4 4 3 3 3 3 3 4 5 6 6 6 7 8 10
56 61 74 78 86 92 85 49 25 16 11 8 8 7 6 4 4 4 4 5 4 3 2 2 2 3 3 4 4 4 3 3 3 3 3 4 5 5 6 7 7 8 9

GFSMW_250_rhum_015.txt.gz
RH
31 22 31 33 25 24 15 22 25 33 44 59 70 80 97 100 100 88 94 69 46 46 44 52 60 62 64 58 52 47 45 47 41 37 41 40 45 58 65 53 58 65 73
31 26 46 44 39 45 47 55 61 70 79 91 92 94 87 84 83 95 59 44 42 44 43 54 57 56 56 56 48 38 35 32 33 34 36 40 48 79 66 56 66 73 86
31 26 31 56 62 74 89 100 100 100 98 95 93 94 93 92 79 58 49 40 40 43 41 45 48 46 43 46 43 41 39 33 36 40 39 42 65 81 80 67 77 86 84
36 27 24 28 49 49 67 83 92 97 96 90 85 83 79 75 56 41 40 41 46 50 45 46 44 46 48 46 50 52 54 63 55 56 54 56 60 53 51 56 71 97 100
35 28 28 25 32 54 76 88 95 95 93 91 82 63 49 46 47 46 46 50 47 44 46 50 51 51 53 55 59 67 61 54 56 64 61 52 54 59 58 54 65 73 82
32 26 26 32 34 44 59 63 86 93 59 46 52 58 62 64 66 71 76 83 85 82 78 77 76 78 84 85 84 75 71 68 63 60 61 64 61 61 62 56 51 62 75
36 31 29 30 28 31 36 42 44 45 56 59 63 63 65 74 86 91 94 94 95 99 100 97 95 84 74 72 70 67 63 62 64 65 62 60 63 61 59 64 63 64 70
53 40 34 30 35 37 38 46 55 56 55 60 59 61 70 69 69 72 80 89 91 92 90 88 84 80 77 73 67 61 55 55 54 56 54 53 57 62 65 57 60 60 80
64 51 41 38 39 43 49 52 49 52 57 62 73 78 72 69 68 73 82 83 78 77 72 62 54 49 51 52 53 54 54 55 51 47 44 44 51 64 74 68 48 37 30
70 66 50 48 48 51 54 54 55 61 68 69 65 62 70 85 88 84 76 69 59 53 54 59 60 55 53 56 56 55 44 41 48 50 46 42 39 40 38 33 30 35 32
88 82 67 60 61 59 58 60 72 75 78 91 97 94 88 71 60 60 59 60 64 66 72 72 78 77 74 75 65 66 55 45 39 39 35 30 26 25 24 20 19 19 20
100 100 94 89 83 83 90 100 99 98 88 75 68 58 56 55 55 58 60 64 83 89 86 87 75 64 53 49 44 41 39 32 26 24 24 20 19 17 17 16 17 15 15
100 100 100 100 100 98 90 88 84 73 65 61 59 58 59 59 64 92 100 100 94 83 63 50 45 41 39 35 28 26 25 24 19 20 19 15 16 17 17 17 14 10 10
100 100 100 96 88 89 89 82 77 59 53 60 63 58 69 93 100 94 84 69 52 47 43 36 32 29 28 26 24 23 21 18 15 16 16 16 12 10 11 11 11 10 9
100 100 100 93 90 86 73 55 50 58 58 61 60 74 70 66 58 49 47 43 38 37 35 36 34 33 30 30 25 20 17 14 13 11 9 9 8 8 8 9 8 7 6
96 85 87 70 59 54 52 48 50 51 62 60 64 52 45 48 42 38 36 42 48 44 39 41 34 29 25 17 14 12 10 8 8 8 10 10 8 7 6 5 5 5 4
71 60 57 60 52 43 44 45 61 77 70 52 42 40 35 34 49 51 52 49 45 35 33 27 24 18 13 11 9 8 8 8 8 7 6 6 6 6 6 6 5 5 4
64 66 62 56 49 50 62 73 69 52 45 40 33 33 50 60 77 71 61 51 41 31 25 17 12 10 8 7 7 6 6 6 5 5 5 5 5 5 5 6 6 6 5
65 52 46 51 61 63 63 52 41 38 31 38 47 55 62 67 66 66 51 38 24 19 14 12 9 7 7 6 5 4 4 4 4 4 5 4 5 5 5 6 7 8 8
52 60 76 76 70 53 38 35 33 29 36 47 54 59 67 82 71 52 31 22 14 11 11 7 6 6 5 4 4 3 3 3 4 4 4 4 4 5 5 5 6 7 7
88 86 76 54 48 36 34 31 32 43 53 56 60 65 77 62 41 28 17 12 10 6 6 6 6 5 4 3 3 3 3 3 3 3 3 4 4 4 4 4 5 6 7
78 60 46 36 38 38 35 39 50 58 66 67 69 68 59 44 24 13 10 8 6 6 6 5 4 4 3 3 3 3 3 2 2 2 2 3 3 4 3 3 5 6 6
53 41 41 42 38 40 43 51 59 65 68 71 69 58 44 23 11 10 7 6 7 6 4 3 3 3 3 4 3 2 2 2 2 2 2 3 3 3 3 3 5 5 6
45 47 37 35 37 44 56 66 69 70 68 68 58 50 23 11 10 8 7 7 5 4 3 3 3 4 4 3 3 2 2 2 2 3 3 3 4 3 3 4 4 5 6
38 34 36 37 47 55 64 71 74 80 76 65 46 27 14 8 8 8 8 5 4 3 3 3 3 4 4 4 3 3 3 3 3 3 4 4 4 4 4 4 5 5 6
39 35 35 42 50 57 68 75 75 71 60 40 21 13 7 8 8 8 6 5 4 4 3 3 3 3 3 3 3 3 2 2 3 4 4 4 4 4 5 5 5 6 6

GFSMW_250_rhum_018.txt.gz
RH
100 89 72 52 31 22 26 29 28 22 18 21 18 25 43 55 59 66 73 80 86 88 81 88 65 40 39 42 41 42 50 51 51 49 48 47 47 45 44 41 41 40 44
100 92 68 48 30 20 26 35 38 42 44 45 46 59 68 79 89 97 97 97 89 76 75 64 50 43 42 44 47 42 44 46 48 38 38 38 40 44 48 61 62 62 60
99 66 63 47 28 22 24 39 55 64 74 68 66 71 74 80 78 71 69 72 71 72 66 52 47 46 48 53 52 45 41 41 40 40 38 36 39 43 66 69 78 77 82
90 59 61 50 31 26 24 29 41 58 67 76 83 93 98 84 75 69 64 54 45 44 46 51 57 60 59 59 63 65 63 61 53 60 70 68 61 54 52 69 72 76 86
93 63 55 45 29 26 26 27 40 58 67 68 70 85 77 75 51 46 48 48 49 50 52 53 53 60 65 64 63 66 66 72 79 74 72 73 75 73 59 51 62 58 54
91 74 55 43 30 26 25 27 31 39 49 59 64 66 73 50 60 60 56 60 62 69 78 78 72 68 70 78 84 86 83 78 84 89 86 79 74 78 65 48 41 38 47
99 72 56 47 34 28 30 32 35 38 40 43 47 47 55 64 59 63 74 78 83 76 66 62 64 66 67 68 71 74 75 75 74 69 61 60 56 51 46 42 36 38 67
100 84 68 52 40 35 33 36 38 38 40 45 52 57 57 62 68 66 63 61 60 64 68 67 71 80 80 71 60 54 53 54 61 62 58 56 63 61 49 46 44 38 35
78 90 60 61 55 48 46 47 47 45 47 53 57 57 57 58 64 78 77 74 75 74 69 62 59 52 48 52 54 49 59 56 53 52 53 49 42 34 29 26 26 20 14
76 87 70 69 75 72 64 64 62 65 70 73 72 75 87 98 91 84 80 71 67 60 52 47 51 50 58 59 68 64 64 60 50 43 41 39 31 27 23 22 20 19 14
61 60 72 77 91 85 94 97 97 98 98 97 99 100 98 94 89 71 56 48 49 50 61 64 78 84 71 53 45 43 40 37 35 34 32 27 24 24 26 24 22 20 19
42 46 48 99 100 100 100 100 100 100 89 86 93 93 88 73 55 42 47 58 66 76 84 68 50 42 40 46 43 46 42 38 40 34 26 24 22 22 21 20 20 15 8
38 62 60 91 100 100 100 99 89 95 98 93 85 77 61 47 51 62 66 70 80 63 51 41 40 41 46 44 42 37 39 34 30 29 22 15 14 15 14 12 8 7 7
55 70 95 100 100 100 86 79 91 84 80 75 65 54 59 70 73 72 80 70 47 39 40 42 42 42 43 40 43 35 28 25 19 15 14 13 8 7 8 7 6 6 5
94 100 100 100 90 91 92 88 85 78 74 66 73 82 69 70 72 68 48 40 33 35 40 40 43 48 42 38 32 23 16 13 13 10 9 7 7 6 5 4 4 4 4
100 100 100 94 92 87 87 78 76 80 80 79 62 62 68 69 47 38 34 30 36 42 44 45 48 47 39 28 18 14 13 8 8 7 8 6 5 4 3 3 3 3 3
100 94 96 88 80 76 68 60 68 71 63 60 72 75 48 38 32 30 33 38 48 51 55 49 37 32 29 18 15 13 8 7 6 5 4 3 3 3 3 3 3 4 4
97 94 77 71 68 59 65 65 62 63 72 79 61 40 34 30 36 41 46 55 56 52 57 61 39 25 15 14 9 7 6 5 4 3 2 2 3 3 3 3 4 4 4
85 65 62 65 63 60 60 65 67 80 72 46 37 30 32 38 45 50 56 65 71 74 49 32 20 13 14 7 7 6 4 3 3 2 3 3 3 2 2 2 2 3 3
62 62 60 53 55 74 68 79 76 53 46 33 32 36 38 44 49 55 62 70 70 40 22 13 13 10 7 7 6 3 3 3 3 3 3 2 2 2 2 2 2 3 3
78 72 65 75 70 79 78 62 50 41 44 45 49 41 41 45 53 62 69 64 37 18 13 11 8 7 7 5 3 3 3 2 2 2 2 2 2 2 2 3 3 3 3
74 76 77 85 82 67 56 45 49 53 60 53 46 43 43 52 61 70 64 51 21 12 10 7 7 7 5 4 3 3 3 3 2 2 2 3 3 2 3 3 4 4 4
76 81 80 70 62 47 52 52 63 69 50 46 38 41 54 64 74 69 53 26 13 9 6 6 6 6 4 4 4 4 3 2 2 3 2 2 2 2 2 3 4 4 4
80 84 68 50 49 52 56 67 59 47 45 40 44 50 64 76 68 54 28 12 9 6 6 5 6 5 4 4 4 4 3 2 3 2 2 1 2 2 3 4 5 5 4
73 60 54 54 55 59 54 46 45 46 42 46 51 61 73 62 46 30 13 9 7 6 5 5 4 4 4 4 4 3 3 3 3 2 2 2 2 3 4 5 5 5 5
53 49 54 62 60 49 46 47 46 47 46 49 59 68 73 54 34 14 9 7 7 7 6 4 3 4 4 4 3 4 3 2 3 2 2 2 2 4 5 6 6 6 6

GFSMW_250_rhum_021.txt.gz
RH
44 100 96 100 88 77 59 46 28 24 26 31 35 29 25 19 21 28 40 52 60 67 73 84 85 80 77 74 66 61 50 38 32 32 36 42 43 44 43 45 46 43 44
41 89 100 98 93 68 56 39 28 24 29 32 40 50 54 52 53 61 73 92 99 96 92 86 81 81 71 57 49 41 42 45 41 33 32 36 44 44 44 47 53 59 70
32 62 100 100 90 69 56 47 34 22 24 32 43 56 67 75 79 86 88 81 77 74 62 49 44 46 51 52 51 47 39 39 44 38 34 35 37 37 56 72 79 84 85
31 39 94 100 99 71 53 42 34 24 25 28 48 74 75 76 78 67 67 66 58 45 45 53 54 53 50 48 47 46 44 42 43 50 56 48 43 41 44 54 50 51 57
24 32 53 100 100 83 51 40 31 27 28 28 29 39 44 51 55 62 54 48 44 57 59 53 51 49 46 44 42 44 47 56 65 72 70 66 58 56 47 52 63 60 57
20 23 32 97 100 92 56 43 35 33 29 30 32 34 35 38 41 43 45 54 60 57 54 55 57 57 66 74 80 84 78 63 56 52 50 55 50 45 42 41 43 42 50
23 21 21 36 87 98 78 56 46 40 37 35 34 36 41 46 50 55 60 62 64 65 72 80 80 75 68 64 60 57 56 62 67 71 69 52 50 47 36 31 31 30 33
24 24 24 26 32 62 100 80 63 53 49 48 51 54 57 60 64 69 74 81 86 92 94 85 75 68 70 69 71 77 82 78 70 63 56 49 41 41 39 33 31 27 28
23 26 23 20 25 31 69 100 83 76 69 69 71 75 77 84 88 93 96 93 98 97 84 77 76 84 89 81 72 62 60 60 51 43 45 42 39 41 44 42 35 19 18
22 20 20 21 25 27 50 77 80 78 96 94 89 98 100 100 100 99 91 81 81 84 86 85 76 68 60 53 50 53 47 40 40 39 44 42 39 41 34 29 25 21 17
22 19 18 21 23 29 32 59 80 77 78 86 96 98 98 91 81 66 78 90 81 67 62 60 55 56 57 54 47 44 39 37 38 42 43 48 41 32 25 21 19 19 16
22 20 19 25 31 31 34 70 78 76 83 85 98 100 85 77 76 78 74 67 64 55 55 61 59 56 45 41 35 32 36 48 52 48 43 34 26 21 18 18 14 9 6
20 19 20 27 30 32 28 38 76 78 83 91 96 84 82 82 66 64 70 57 60 63 66 64 50 42 33 34 40 44 50 45 44 37 25 20 17 15 11 6 5 5 5
20 20 21 30 30 30 30 55 79 78 90 91 85 82 74 70 78 68 67 67 67 66 57 46 40 34 35 43 45 48 48 39 30 24 16 13 10 6 5 4 5 4 3
22 22 24 31 32 36 31 40 64 81 97 87 79 79 82 77 76 66 60 63 65 54 44 35 30 40 44 44 48 48 43 33 23 15 10 7 5 4 4 3 3 3 2
23 24 29 37 40 37 37 52 65 85 80 79 78 90 87 76 54 57 67 63 54 46 33 29 35 36 46 53 53 50 34 22 12 7 6 5 5 4 3 3 2 2 2
24 30 37 39 37 36 49 89 92 87 80 98 99 79 67 52 58 64 58 52 39 29 32 36 39 44 55 54 50 35 20 12 7 5 4 5 4 3 3 3 3 3 2
38 44 37 37 46 56 67 88 86 76 99 100 83 59 52 63 62 54 37 31 32 37 42 42 43 53 59 51 38 19 11 6 5 5 5 4 2 3 3 3 3 2 2
45 48 67 77 90 96 86 78 88 98 89 71 54 60 67 59 44 38 36 39 42 45 42 44 50 54 54 34 17 10 6 5 5 5 4 2 2 3 2 2 2 2 2
65 81 88 87 72 66 90 100 99 87 64 60 68 64 49 38 36 41 41 46 44 46 46 47 50 47 37 21 9 6 4 5 5 4 2 2 3 2 2 2 2 2 2
85 87 73 64 75 95 99 95 77 68 71 72 59 43 38 41 43 47 45 48 49 47 50 54 46 28 14 8 7 5 5 4 4 3 3 3 3 3 3 2 2 1 1
75 71 70 91 98 90 83 83 77 73 60 44 42 38 42 47 45 51 56 51 48 54 50 35 20 11 8 7 5 5 5 4 3 3 3 3 3 2 2 2 2 1 2
68 93 97 89 92 90 83 77 59 44 47 44 43 49 47 50 53 58 48 51 55 43 24 12 9 8 7 6 6 6 5 4 3 3 3 3 2 2 2 2 2 2 4
100 100 98 96 82 75 68 52 52 50 50 55 48 50 55 55 55 50 52 57 43 26 10 8 7 6 6 6 6 5 5 4 4 3 3 2 2 3 3 2 2 4 5
94 94 88 74 73 63 56 56 53 57 54 47 57 59 57 53 52 53 55 45 24 9 7 6 5 5 6 6 4 4 4 4 4 4 2 2 4 4 3 2 4 6 7
87 81 78 75 63 59 54 50 52 49 55 59 53 52 55 52 52 49 40 17 8 8 7 5 5 6 5 4 4 4 4 3 3 2 3 4 5 4 3 4 6 7 7

GFSMW_250_rhum_024.txt.gz
RH
18 23 30 75 75 100 81 86 60 52 38 35 25 23 33 40 45 35 26 23 25 33 39 46 62 76 94 97 84 74 64 54 44 42 44 46 50 51 45 47 46 45 50
21 25 33 52 89 100 98 84 70 55 46 39 30 26 28 36 56 62 71 74 78 88 100 100 100 100 87 74 62 45 45 47 44 40 40 47 64 57 55 56 55 56 56
18 20 27 33 61 100 99 96 84 60 46 39 32 32 31 37 46 57 70 78 86 92 85 75 71 68 59 45 48 52 47 52 59 55 41 38 41 42 59 63 60 53 47
20 19 19 22 30 45 83 91 83 67 47 38 35 30 30 29 32 37 43 52 56 55 57 56 54 49 51 61 61 61 56 50 46 56 58 48 38 35 38 48 54 62 66
23 23 22 19 18 23 46 89 92 88 62 41 38 36 32 32 33 34 34 37 39 43 48 50 55 63 67 62 59 54 48 50 55 58 66 76 77 59 40 37 36 41 46
28 26 22 19 18 18 23 46 80 93 93 79 58 46 40 39 39 39 41 44 48 50 55 60 62 61 60 61 66 77 81 78 74 69 60 49 44 47 50 43 45 43 41
28 28 26 25 22 17 16 24 32 43 62 85 92 78 63 55 51 54 55 52 53 60 63 66 72 79 85 86 82 78 75 71 66 66 67 64 51 43 40 35 34 36 38
29 27 25 23 22 21 20 17 20 26 30 38 65 79 92 91 86 73 73 75 72 75 85 90 93 88 78 75 76 77 73 70 72 59 51 49 47 38 36 36 38 45 50
30 26 26 24 21 21 21 20 22 21 24 29 29 42 79 100 97 100 91 87 93 99 100 92 83 74 73 74 69 64 59 52 48 48 51 44 42 36 42 42 40 35 27
32 31 32 28 26 24 21 21 22 23 23 26 30 40 66 78 90 94 98 98 99 100 88 80 79 73 60 56 53 45 44 45 54 53 46 36 36 38 41 39 38 29 21
31 33 35 32 27 25 23 21 20 21 23 29 33 34 42 65 68 70 85 93 95 85 79 78 64 57 54 47 45 46 58 56 51 47 37 36 34 33 33 33 33 25 22
30 31 32 33 30 25 21 20 21 22 30 30 32 33 31 38 52 83 94 94 82 79 76 64 62 58 52 50 57 57 50 49 42 37 34 31 33 33 30 26 25 22 13
32 34 32 33 31 24 20 21 20 20 24 28 31 31 33 47 64 89 89 89 80 73 68 60 58 53 58 57 51 43 40 37 35 35 36 36 34 29 29 29 21 10 5
30 31 31 32 28 21 19 20 21 21 24 29 33 36 42 57 88 87 86 82 75 72 65 61 50 60 56 42 39 38 37 37 40 39 35 36 36 28 22 14 7 4 4
30 31 30 30 25 20 20 21 22 25 24 30 38 44 61 90 91 83 86 78 63 69 58 61 63 44 35 38 37 38 45 41 38 40 42 37 23 14 7 5 4 4 4
30 30 28 26 22 21 22 24 26 26 32 42 59 83 95 82 82 92 65 63 62 60 64 48 33 38 40 38 44 44 41 43 47 44 28 15 9 6 4 4 5 4 2
25 23 23 22 23 26 28 29 28 34 39 70 83 89 94 99 80 75 60 60 61 52 32 36 39 38 42 48 48 46 46 44 36 22 12 7 5 4 4 5 5 3 3
22 20 21 23 26 27 31 36 39 46 80 98 87 87 95 87 63 58 62 57 34 35 38 38 39 52 54 50 48 48 48 37 21 10 6 5 4 4 4 4 4 4 3
19 20 24 28 32 37 43 51 75 99 94 78 94 92 68 56 57 59 43 32 38 37 39 52 59 54 53 52 48 41 32 24 11 7 5 4 4 4 3 3 4 3 3
25 29 35 44 51 51 58 91 97 92 99 99 76 60 59 64 55 40 36 35 36 47 61 56 54 52 49 47 40 28 18 9 7 6 4 4 4 3 4 4 4 3 2
48 51 58 60 72 90 97 92 95 99 83 72 66 68 62 54 41 36 33 39 54 60 57 57 53 49 42 32 23 11 7 6 5 5 4 4 4 4 4 3 3 2 3
88 90 91 94 99 83 85 99 96 81 73 69 66 64 50 38 32 33 47 60 54 58 56 53 49 37 27 17 8 7 7 5 5 5 4 4 4 4 3 2 2 3 4
88 91 88 77 78 91 100 86 72 68 66 66 54 39 38 32 39 55 53 53 55 51 50 45 33 22 11 8 7 6 6 6 5 5 4 4 4 4 2 2 4 4 3
73 76 70 75 91 81 71 71 68 67 59 43 43 37 38 52 54 49 53 57 53 48 40 27 16 8 8 8 6 6 6 6 5 5 4 4 4 3 3 4 4 4 3
78 80 83 77 70 72 71 71 68 52 47 45 45 52 55 51 52 59 59 52 44 32 20 10 7 8 7 6 6 7 6 5 5 4 4 3 3 3 4 4 4 4 4
76 75 74 73 72 73 71 62 57 53 52 52 53 53 52 55 59 54 48 38 25 13 8 7 7 6 6 6 6 7 5 4 4 3 3 3 4 4 3 5 4 4 7

GFSMW_250_rhum_027.txt.gz
RH
18 18 18 19 25 36 91 77 78 70 80 64 57 48 41 35 33 40 46 54 55 44 38 29 27 33 41 53 67 87 100 99 93 84 74 62 50 59 55 53 62 63 65
18 17 19 23 28 49 61 90 100 95 78 75 66 52 44 37 32 31 35 50 66 69 81 85 83 86 94 100 99 100 99 94 73 52 45 55 63 58 57 54 60 72 79
18 16 20 21 22 29 40 49 62 66 88 84 80 67 48 37 36 35 34 34 35 46 66 66 69 79 85 85 78 69 62 59 59 51 50 48 48 53 77 93 89 81 75
19 19 19 17 18 19 20 21 29 41 65 89 81 77 62 54 44 40 38 34 33 36 38 45 49 47 45 41 43 46 48 53 58 61 62 52 44 44 51 64 71 71 78
21 26 24 23 22 21 17 16 18 22 33 42 53 73 72 56 68 69 72 55 42 40 41 41 42 42 41 41 45 48 50 53 55 54 58 65 64 62 57 49 48 49 46
27 32 34 29 28 25 21 21 20 17 15 18 20 22 25 27 32 49 48 56 73 77 72 68 67 66 63 64 66 65 62 60 66 69 65 60 58 51 54 53 57 54 44
32 29 34 32 27 26 23 23 22 19 18 18 16 15 15 16 21 26 26 26 48 63 70 73 82 89 88 91 86 78 79 79 72 70 70 64 57 54 50 42 37 43 52
37 40 32 32 31 26 26 28 27 27 26 22 19 18 17 17 17 17 20 22 30 39 58 66 63 52 56 58 68 82 82 78 81 81 69 62 57 52 45 48 42 34 36
39 41 36 36 33 34 35 35 33 32 29 24 21 18 18 18 17 18 25 28 27 28 33 41 42 43 41 57 69 78 80 78 76 70 59 51 52 56 46 38 39 36 33
38 34 35 33 31 32 31 31 33 35 32 29 22 20 18 18 19 24 26 27 26 30 33 34 40 50 72 82 87 89 75 71 69 60 55 61 51 37 41 43 40 38 33
35 32 35 30 27 28 29 30 30 30 32 31 25 21 20 19 20 21 24 27 31 34 36 39 50 72 78 82 76 75 64 62 61 60 51 37 39 44 44 42 38 33 29
28 26 25 26 28 27 26 28 29 28 28 29 27 21 19 19 20 22 24 28 33 38 43 62 79 83 93 73 71 64 67 61 52 39 39 42 44 44 38 34 29 23 20
32 34 32 29 26 26 28 28 29 28 28 28 27 23 21 21 22 22 27 34 46 55 65 80 87 92 70 67 62 63 57 39 40 41 42 44 37 33 29 23 21 19 14
40 36 30 26 26 29 30 29 28 26 27 26 25 22 22 23 24 27 33 44 64 75 85 79 74 67 61 56 58 44 36 39 41 44 39 36 32 24 22 19 17 11 6
33 32 28 27 28 31 30 28 26 25 24 24 23 24 24 26 28 34 45 61 68 75 71 70 67 52 58 55 38 34 35 39 44 40 39 29 26 23 19 12 7 6 5
29 28 27 28 31 31 28 25 22 24 24 21 22 26 28 28 37 50 72 80 75 77 78 53 58 63 44 35 35 33 41 44 41 37 30 28 25 20 11 6 6 5 4
29 29 32 33 32 28 23 22 23 23 22 26 29 32 33 46 65 86 84 81 78 62 59 60 52 41 37 30 34 42 41 42 34 29 27 23 16 7 6 6 6 6 4
37 36 35 32 27 22 21 23 24 24 29 34 38 46 58 77 81 89 79 66 58 60 56 45 34 33 34 38 40 42 40 33 29 26 18 8 6 5 5 5 6 5 3
36 32 27 23 22 24 26 26 31 36 42 47 61 70 76 91 87 68 57 58 56 50 37 34 37 38 41 42 44 36 32 33 27 16 7 5 5 5 5 5 4 4 4
23 22 24 28 27 28 35 40 46 50 57 70 74 82 80 66 61 60 58 57 46 37 40 40 42 43 45 46 39 36 32 22 10 8 6 5 5 5 5 4 4 4 4
29 30 37 43 47 51 55 59 68 76 79 71 80 73 68 66 62 60 54 40 42 41 42 43 45 49 46 42 35 29 16 7 6 6 6 5 5 5 4 4 4 3 3
59 58 52 52 66 72 74 78 81 74 76 74 70 69 64 63 58 48 42 41 40 41 45 49 50 46 39 34 22 10 7 6 5 5 5 5 4 4 4 4 3 3 3
60 73 83 68 68 68 66 73 82 76 70 66 63 64 60 49 46 43 41 42 45 49 52 49 44 40 33 17 8 7 6 5 5 5 4 4 4 4 4 3 3 4 4
76 82 86 80 84 71 73 76 76 69 65 63 59 51 50 54 47 43 46 51 55 54 47 42 34 23 11 7 7 6 6 6 5 4 4 4 4 4 4 4 4 3 4
92 94 92 79 64 65 64 67 61 66 62 52 53 58 56 50 48 54 57 57 50 47 38 25 11 7 7 7 6 6 6 5 4 4 4 4 4 4 4 4 4 5 6
88 71 62 61 56 60 54 55 65 57 54 59 57 54 53 57 63 63 58 51 45 33 17 8 8 7 6 6 6 6 5 4 4 4 4 4 4 4 3 4 6 6 6

GFSMW_250_rhum_030.txt.gz
RH
57 34 26 22 20 19 18 19 20 23 81 75 60 69 77 77 70 60 47 36 33 32 32 34 38 46 62 74 72 64 61 67 66 75 90 96 99 97 94 85 88 74 63
30 23 21 21 19 19 20 20 26 54 75 90 74 65 70 74 74 73 53 40 38 39 39 37 36 38 40 48 64 70 70 73 66 61 61 75 94 76 74 67 51 59 66
23 24 22 19 18 20 25 24 27 39 44 37 45 56 55 68 76 78 70 63 61 64 66 65 50 41 40 40 40 41 45 51 48 44 39 44 49 51 54 58 60 62 66
23 23 22 19 18 20 18 18 20 20 18 18 21 28 35 42 38 34 32 38 35 45 38 36 60 70 72 70 61 60 62 61 64 67 71 66 62 64 61 71 77 75 82
27 24 23 22 21 22 21 19 19 20 21 18 17 18 17 17 16 15 15 15 15 16 20 22 22 22 26 31 35 38 40 46 44 37 42 62 67 61 53 48 66 67 73
30 28 24 26 28 30 28 21 21 23 24 22 24 24 24 22 20 17 16 14 15 15 15 14 17 19 20 21 22 23 25 25 26 26 26 30 38 51 62 78 82 72 81
28 27 25 30 31 34 30 26 26 28 27 26 27 31 30 30 26 22 19 16 15 15 14 15 15 16 18 19 20 21 22 24 27 29 35 48 64 78 82 70 63 59 51
26 27 30 30 33 32 33 30 33 32 30 30 28 26 26 26 26 24 23 21 19 16 15 16 17 17 17 17 19 20 25 28 35 45 62 82 92 76 57 54 44 43 50
32 38 38 37 39 38 35 33 31 27 27 30 28 27 27 25 26 25 25 25 23 20 18 16 16 17 17 17 20 25 31 38 46 68 88 93 86 72 60 51 48 36 25
42 38 38 38 37 35 37 34 31 27 26 27 26 25 27 26 24 23 23 25 23 22 19 18 19 19 19 22 27 40 52 72 86 84 82 78 64 59 57 51 30 26 27
39 37 36 37 36 37 37 30 27 28 27 25 25 28 29 28 27 25 23 24 23 21 20 20 21 22 24 34 49 66 80 86 82 78 68 66 61 59 40 29 28 29 29
38 41 43 40 36 39 34 32 32 30 28 26 26 30 31 29 27 26 25 24 22 22 22 23 25 29 39 63 83 91 90 74 73 64 66 62 48 31 25 26 29 29 25
42 40 41 40 42 40 35 33 31 31 28 26 28 31 31 28 26 22 22 24 22 22 24 27 35 49 68 83 84 76 69 68 66 61 51 36 26 25 28 28 26 21 16
42 42 40 38 36 37 36 35 31 27 26 25 29 31 31 27 23 23 25 22 23 27 33 42 58 74 81 71 65 70 62 61 57 42 30 28 28 27 24 18 14 11 8
41 44 46 45 42 40 36 30 26 26 28 31 33 32 29 24 25 25 23 26 32 38 48 63 76 78 64 66 58 58 57 47 35 30 30 29 26 20 15 13 9 6 6
41 41 40 39 36 33 28 27 28 32 35 35 34 30 24 24 25 24 28 36 46 58 71 72 67 58 59 58 57 50 37 33 32 28 28 23 17 16 9 7 6 5 5
33 32 32 33 29 27 29 34 39 40 38 34 26 24 27 28 28 35 44 57 70 67 65 60 54 55 60 56 41 34 34 31 27 24 20 18 12 6 5 5 5 5 4
30 30 28 28 34 41 43 44 42 37 29 25 27 29 28 36 46 54 64 68 65 60 56 56 59 57 42 36 37 33 30 29 25 21 18 9 6 5 5 5 5 4 4
33 35 41 44 44 44 42 36 29 24 26 30 32 40 50 53 60 68 71 61 59 57 61 60 46 36 38 36 34 32 26 28 23 18 8 6 6 5 5 4 4 4 3
44 48 46 41 37 33 27 25 26 28 41 44 48 55 54 64 75 60 62 60 61 64 50 37 37 38 39 39 33 24 24 19 11 8 7 6 5 4 4 4 4 3 3
35 32 29 28 27 25 26 38 46 48 52 58 61 63 58 65 65 62 60 66 57 44 39 37 39 45 47 41 27 22 17 8 6 7 6 5 5 4 4 4 3 3 3
29 29 26 25 37 45 43 46 59 66 73 65 55 61 61 57 58 56 60 47 41 41 40 43 55 55 42 29 22 13 7 7 6 5 4 4 4 4 4 4 3 3 3
26 31 42 52 50 55 62 70 72 67 63 69 69 55 53 51 54 52 44 42 41 44 56 59 50 40 28 19 10 7 7 6 5 4 4 4 4 4 3 3 3 3 3
46 48 51 63 63 66 67 68 79 74 63 54 50 51 56 57 49 43 45 46 58 64 56 46 37 25 15 8 7 7 6 5 5 4 4 4 4 4 3 3 3 3 3
58 62 67 75 75 84 79 72 60 54 51 53 61 65 48 44 53 57 61 69 62 50 44 30 18 8 8 7 6 5 4 5 4 4 4 4 4 3 3 3 3 4 5
84 92 98 91 68 55 50 50 55 61 64 68 51 44 57 64 67 72 70 58 54 48 30 14 8 7 6 5 5 5 4 4 4 4 4 4 3 3 3 3 4 5 6

GFSMW_250_rhum_033.txt.gz
RH
89 84 100 100 100 100 92 78 46 25 18 16 20 23 75 83 84 75 73 80 86 82 70 61 52 53 54 51 47 41 39 37 40 44 53 59 62 66 75 81 77 74 69
79 89 99 96 89 63 43 27 20 19 18 20 29 52 65 76 65 69 56 51 59 64 54 48 49 45 41 32 34 50 59 56 50 48 46 49 53 51 50 52 55 56 59
84 100 85 64 33 25 22 22 20 19 23 25 30 33 29 24 25 30 37 34 32 27 20 20 19 16 16 19 18 20 24 36 43 42 55 64 79 91 96 93 87 83 85
94 93 59 26 24 27 25 21 21 25 24 23 21 20 19 20 19 19 20 18 16 15 16 16 14 12 13 14 14 14 15 17 19 21 19 20 22 30 50 76 80 70 62
91 63 27 25 28 26 24 23 23 21 20 21 22 20 21 20 21 24 24 23 20 21 22 21 21 20 17 15 14 14 13 13 14 15 16 16 17 15 13 14 17 25 29
72 34 26 26 29 26 24 24 26 24 24 24 24 22 28 29 27 26 24 23 22 21 20 18 17 16 16 17 16 14 14 14 15 15 15 14 14 16 20 20 19 17 22
46 29 30 29 31 29 30 28 30 28 30 28 29 30 29 27 26 25 24 23 24 24 22 20 18 16 16 16 16 16 15 15 16 16 16 16 16 17 18 16 18 21 43
34 33 33 32 32 30 29 30 31 30 30 34 30 26 26 26 24 23 22 22 23 23 22 22 20 17 16 15 15 14 15 15 16 17 16 16 18 20 24 25 26 30 38
39 35 34 31 32 32 31 38 39 37 35 32 30 25 26 25 24 23 22 22 23 24 24 22 20 17 16 16 15 15 16 18 18 18 21 24 28 32 44 45 35 26 27
42 37 35 36 36 32 41 41 40 36 32 30 28 27 26 27 27 23 21 20 22 25 26 24 20 17 17 19 18 20 22 23 26 27 31 47 55 54 45 37 33 32 30
45 41 39 37 34 39 43 42 38 36 35 32 28 30 32 29 26 22 22 22 27 30 27 22 19 20 22 21 22 27 33 34 37 52 64 56 47 43 42 38 35 29 25
47 45 42 40 42 43 42 42 43 43 38 40 40 35 32 28 22 23 25 30 33 29 22 20 23 25 24 27 35 36 42 56 67 59 57 53 50 44 36 28 27 27 25
44 43 43 45 42 43 48 50 47 46 47 44 37 35 30 26 25 26 35 36 32 24 21 25 26 27 33 38 41 48 55 58 57 53 51 46 38 31 29 28 25 20 18
46 46 48 48 47 50 51 47 47 47 43 37 37 35 30 26 29 38 38 32 23 22 27 27 32 38 41 47 52 54 54 54 54 50 39 32 30 28 25 20 17 17 11
47 46 47 48 48 48 47 46 42 39 38 40 36 30 28 35 40 38 28 24 24 27 28 38 42 44 49 54 54 57 57 54 43 35 32 30 26 22 18 16 11 6 5
49 45 43 43 43 43 41 39 38 38 36 31 27 33 38 39 33 27 24 26 32 38 43 44 52 52 56 56 55 54 44 33 33 31 27 25 20 18 13 6 5 5 4
46 44 45 47 46 42 40 38 35 31 29 31 36 38 35 29 26 24 28 38 45 48 52 49 54 55 52 52 50 38 36 33 28 26 22 20 16 8 5 5 5 4 4
45 45 48 45 38 35 32 31 30 32 36 36 37 32 26 24 25 37 48 49 53 56 55 54 52 50 48 42 38 36 34 30 25 23 16 10 6 6 5 5 4 4 4
42 42 39 34 32 31 33 35 35 34 38 33 26 25 24 35 42 49 55 58 63 56 52 49 49 45 44 41 38 34 28 24 20 14 7 6 6 5 5 4 4 3 3
34 32 31 32 35 36 38 40 38 34 27 26 25 31 46 48 54 57 61 59 53 50 53 56 43 42 46 41 35 25 20 17 9 7 6 6 4 4 4 4 4 4 3
39 39 44 42 40 41 42 35 27 26 26 30 38 43 48 52 60 62 54 51 52 60 48 45 50 51 47 38 27 20 15 7 7 6 6 5 5 4 4 3 3 3 3
49 45 47 46 39 29 26 26 26 30 40 42 44 51 59 60 53 52 53 60 54 45 55 61 60 54 43 32 22 15 8 7 6 5 4 4 4 4 4 4 4 3 2
48 37 29 26 26 27 26 30 38 43 43 53 65 55 49 53 56 65 60 45 55 64 61 58 55 47 34 22 12 9 8 6 5 4 4 4 4 4 4 4 3 2 3
27 27 28 28 31 40 46 47 50 59 62 58 49 57 63 68 64 49 52 65 64 58 59 54 46 32 20 10 9 8 6 5 5 5 4 4 4 4 3 3 3 3 3
31 35 43 51 55 52 53 59 56 58 49 50 73 73 71 55 58 66 70 66 62 60 55 44 29 16 10 9 8 6 5 5 5 4 4 4 4 3 3 3 3 4 5
66 68 70 63 62 68 62 54 45 47 64 76 72 59 57 67 70 74 72 66 65 62 50 32 15 10 9 8 7 5 5 5 4 4 4 4 3 3 3 4 5 6 7

GFSMW_250_rhum_036.txt.gz
RH
34 23 24 25 28 94 100 90 98 100 100 100 100 87 65 42 18 20 36 66 85 71 73 61 50 48 40 32 29 28 20 17 20 23 24 25 37 53 49 48 46 46 48
34 21 28 29 61 84 100 100 100 100 100 100 84 54 26 19 22 38 48 45 32 33 36 37 31 26 19 15 15 14 14 13 13 14 14 14 15 17 18 21 28 42 60
34 25 31 40 92 87 100 100 100 95 88 57 32 20 21 32 35 30 22 21 22 20 20 20 19 18 19 19 18 18 18 17 16 16 16 16 17 17 17 16 18 21 23
34 27 35 50 78 95 96 78 57 41 26 24 22 22 28 27 24 22 22 22 22 20 21 22 20 21 21 22 21 20 18 17 15 15 14 14 15 17 18 24 24 24 25
36 27 53 68 92 93 60 42 28 26 29 25 24 27 25 23 23 24 22 21 22 24 22 20 19 19 19 18 18 17 16 15 14 13 13 13 12 12 11 12 18 22 24
42 29 70 77 98 71 32 28 35 36 30 28 26 23 27 25 25 26 25 24 26 24 22 20 18 18 17 18 18 18 17 14 14 14 13 13 14 15 12 10 9 10 15
39 27 91 93 90 36 37 32 35 28 27 28 28 30 28 30 31 32 27 26 22 22 21 19 19 19 18 18 20 18 17 14 14 12 12 12 12 12 12 13 14 15 18
33 33 100 94 65 33 33 29 32 32 35 35 36 35 30 29 31 34 30 24 23 22 22 23 19 18 19 19 19 20 17 16 14 14 14 15 15 16 16 15 13 16 20
36 73 97 85 44 31 32 33 34 35 38 34 36 34 33 35 34 31 25 24 24 24 26 21 19 18 20 22 22 20 17 16 17 17 17 21 25 24 21 23 24 22 23
54 95 86 61 36 33 36 35 35 36 35 35 39 40 40 36 30 26 26 24 27 31 26 20 19 20 24 24 21 19 19 19 19 24 28 28 28 32 33 32 30 29 24
87 88 76 44 33 36 38 38 39 38 36 42 46 43 38 32 31 29 27 32 33 30 21 19 21 27 26 22 20 20 20 26 32 31 34 37 37 38 35 34 32 26 22
99 92 62 44 37 38 38 40 41 42 46 49 46 43 38 34 35 34 35 35 31 24 21 26 30 25 22 21 22 25 34 37 40 39 41 41 39 38 33 26 25 25 26
99 87 60 50 43 41 43 45 46 49 52 51 47 42 39 38 40 38 37 30 26 23 30 31 25 23 21 24 32 35 43 43 41 41 41 40 35 30 26 26 24 23 20
98 81 64 53 48 47 48 54 54 52 52 49 44 43 41 40 38 36 31 29 26 29 30 25 22 22 27 34 43 48 46 42 41 42 39 32 28 27 25 22 21 17 13
93 80 59 52 51 48 50 52 51 50 49 48 44 43 41 38 34 33 29 26 27 29 24 23 24 32 38 45 48 43 41 46 48 41 35 31 28 22 22 18 11 6 5
81 69 56 49 48 47 48 48 47 45 46 44 44 42 37 34 32 28 25 29 30 24 22 27 37 41 44 43 42 45 50 45 39 38 35 26 22 24 18 8 6 5 4
81 72 61 56 53 51 50 49 47 45 44 46 45 38 33 30 27 27 32 28 24 23 34 39 39 41 43 47 49 48 47 52 42 34 26 22 21 9 6 6 5 4 3
80 73 68 67 65 61 56 52 49 45 45 45 40 33 28 26 33 34 25 23 30 40 39 37 43 45 51 45 48 58 56 44 38 28 21 14 6 6 5 4 4 3 3
77 74 71 67 64 60 58 54 49 44 42 37 31 27 29 37 28 25 23 40 39 36 39 45 52 49 46 61 60 53 46 37 27 23 10 6 6 5 4 4 4 4 3
79 72 67 60 52 49 46 44 40 36 32 28 32 38 34 26 24 33 40 40 39 43 57 55 49 57 69 55 49 41 34 28 19 11 6 6 6 4 4 4 4 3 3
73 70 66 59 51 45 41 38 32 32 41 41 37 27 25 28 39 40 42 37 48 61 54 56 69 66 55 52 45 36 24 12 10 7 6 6 4 4 4 4 4 4 3
64 61 57 54 50 44 39 45 53 47 37 27 26 26 35 38 41 39 40 56 62 51 66 73 71 63 61 51 43 31 15 10 8 7 6 5 5 4 4 4 3 3 3
57 52 53 55 59 62 55 45 33 27 26 25 34 36 45 46 43 40 63 57 56 70 71 69 65 64 58 51 36 18 11 9 8 6 5 5 5 4 4 4 3 3 3
70 71 68 58 45 35 30 26 26 27 37 39 43 51 44 42 40 61 55 64 71 68 67 64 64 64 59 35 17 11 11 9 7 6 6 5 5 4 4 3 3 4 4
47 36 31 29 28 28 30 34 39 40 45 46 42 42 41 47 60 56 67 67 65 65 63 61 61 58 37 15 11 10 9 7 6 6 5 5 4 4 4 4 4 5 6
29 30 30 33 37 39 42 48 48 43 40 40 41 46 61 55 60 68 66 64 66 63 58 61 56 32 14 11 10 9 7 6 6 5 5 5 4 4 4 5 6 8 9

GFSMW_250_rhum_039.txt.gz
RH
22 20 20 17 24 23 24 29 45 68 62 71 90 100 100 100 100 100 100 97 71 51 22 30 32 27 26 26 24 24 24 22 23 23 22 20 19 17 16 16 16 15 16
25 24 22 18 26 25 24 24 34 53 77 88 100 100 100 100 100 100 83 73 43 28 32 24 23 23 22 23 23 22 22 22 21 22 22 24 21 18 16 15 16 15 15
28 31 27 20 28 27 26 22 23 33 55 80 100 100 100 100 95 84 63 36 30 39 26 23 22 23 24 24 24 23 21 20 19 19 21 23 24 26 27 23 19 17 17
32 35 35 26 34 24 26 22 30 69 97 100 100 100 98 92 76 43 30 30 33 26 24 24 25 25 24 23 22 21 20 20 19 18 17 18 19 20 23 23 22 21 22
37 41 42 28 35 27 27 27 63 94 100 100 99 81 62 36 33 34 31 31 27 25 25 26 26 25 22 21 20 21 21 18 17 17 18 18 17 15 15 16 18 19 20
42 44 46 34 47 31 27 28 65 98 98 63 45 34 30 39 35 34 33 30 28 26 27 29 27 23 23 20 21 22 20 17 17 18 18 16 15 15 12 11 11 13 19
43 49 46 39 47 29 24 39 68 94 51 42 31 39 40 36 32 31 31 32 29 26 24 27 29 27 22 21 22 22 20 19 19 18 19 16 14 13 12 12 12 12 16
45 48 36 40 41 29 37 51 86 60 36 34 39 39 37 34 32 36 33 31 30 28 31 30 26 24 24 24 26 27 23 20 20 20 16 16 14 14 13 12 13 15 20
52 53 33 41 49 35 52 76 87 45 39 38 38 36 32 34 35 32 30 30 32 34 34 28 26 28 27 28 31 26 21 21 22 19 17 15 16 17 20 22 22 19 24
56 59 30 45 52 40 82 96 69 44 37 36 33 32 34 35 37 38 41 41 41 39 30 28 33 33 30 32 28 22 22 24 20 18 18 21 24 29 30 30 32 31 25
69 62 40 62 48 63 94 92 63 46 37 38 36 36 37 39 43 40 43 45 41 36 34 37 35 34 32 29 24 24 25 20 19 21 24 28 31 34 35 37 32 24 20
64 54 43 53 62 89 92 83 61 43 38 40 43 45 47 47 45 44 46 45 42 42 39 37 35 31 28 26 25 26 21 20 23 26 31 35 36 41 35 27 25 23 20
66 48 53 64 86 93 86 74 53 41 38 42 49 50 51 48 48 48 48 46 43 39 39 35 29 27 26 26 26 21 20 26 30 32 39 41 36 32 32 33 27 21 22
54 50 52 62 96 98 84 65 47 40 41 48 51 52 52 53 52 50 48 44 43 40 34 31 29 26 27 26 21 22 27 29 34 41 39 36 42 40 34 25 22 21 12
54 58 66 99 99 93 77 61 50 47 47 50 52 53 52 51 50 45 43 41 38 39 36 31 26 29 26 22 25 29 31 43 44 39 51 56 46 35 25 20 18 7 5
57 62 77 97 96 94 80 62 56 54 51 55 52 48 48 48 47 46 42 40 40 36 34 27 31 26 23 27 30 35 49 42 43 64 61 46 36 25 22 14 7 6 4
66 62 78 100 100 97 80 69 59 56 56 51 49 51 54 54 50 45 43 39 37 32 28 31 25 24 28 29 39 50 44 53 60 55 45 36 26 20 10 8 7 5 3
79 88 98 98 96 92 79 67 59 55 56 60 65 64 60 54 48 42 39 34 28 32 28 23 28 31 29 45 50 45 58 63 62 51 36 26 18 10 7 6 6 4 4
98 100 100 99 95 89 83 78 72 72 72 70 64 54 48 45 40 35 31 31 32 26 23 32 35 31 45 47 46 58 63 65 58 40 28 15 9 7 7 6 5 4 4
99 97 95 94 92 88 84 81 79 75 68 63 58 54 46 39 37 35 34 29 23 31 37 36 34 45 45 48 60 65 65 54 41 29 14 9 8 7 6 5 5 4 4
93 91 92 90 86 82 81 78 72 70 70 64 53 44 44 41 36 30 25 27 36 39 35 37 47 47 55 60 62 62 51 38 28 14 9 8 8 6 5 5 4 4 3
94 94 92 87 85 85 83 82 77 66 55 48 49 48 40 31 26 27 39 42 38 36 42 50 55 63 59 58 59 54 46 29 14 10 8 8 6 6 6 5 4 4 3
90 86 84 82 80 77 71 64 57 62 64 53 39 30 27 27 37 42 38 36 39 51 48 61 64 56 54 56 58 56 32 14 11 9 8 6 6 6 5 4 4 4 4
83 75 71 70 68 70 79 81 70 52 36 31 30 31 36 39 37 36 38 51 55 57 66 62 54 49 51 60 59 34 15 11 10 8 6 6 6 5 4 4 4 5 5
76 77 84 97 96 80 66 48 35 33 34 45 46 40 35 39 47 58 62 55 60 65 59 54 45 46 59 55 32 15 10 9 8 6 6 6 5 5 4 4 5 6 7
98 93 78 62 46 35 32 37 48 57 53 45 37 35 58 68 71 61 56 62 62 56 49 44 43 55 51 32 17 11 9 8 6 6 7 6 5 4 4 6 7 8 9

GFSMW_250_rhum_042.txt.gz
RH
24 23 25 27 28 27 24 20 18 17 17 19 23 27 46 57 60 58 69 100 100 100 100 100 100 87 66 35 22 22 22 24 24 23 23 23 24 24 23 22 21 20 21
27 23 27 28 29 29 32 26 20 20 19 20 19 25 53 58 60 77 93 100 100 100 100 100 92 69 39 27 24 23 25 24 24 24 24 23 23 23 23 22 20 19 20
40 27 26 30 31 31 32 33 25 22 24 22 20 20 38 84 100 100 100 100 100 100 99 92 59 37 30 27 26 26 25 26 23 24 22 23 25 27 29 24 21 20 23
48 33 30 31 32 32 32 39 32 26 24 25 21 22 50 70 95 100 100 100 100 98 86 51 36 32 30 28 28 29 29 28 26 24 22 22 25 26 24 25 23 25 26
60 45 33 32 32 32 36 39 41 35 28 25 23 27 69 97 100 100 100 100 88 66 39 36 34 32 30 31 30 30 29 27 27 26 24 23 23 22 20 20 21 24 22
64 62 36 34 35 36 44 40 45 37 32 24 23 49 96 100 100 98 87 63 50 42 39 38 37 36 36 35 30 28 30 30 28 26 24 24 23 27 24 20 19 19 18
64 68 50 36 37 40 50 42 39 39 30 28 43 79 100 100 83 49 46 48 43 40 37 41 38 42 39 31 28 30 33 32 26 26 27 26 25 25 20 19 18 17 17
68 69 62 38 44 40 47 46 35 42 32 42 73 95 100 77 46 43 41 43 40 38 40 45 41 41 34 33 37 39 33 28 28 31 29 26 24 22 20 18 16 15 20
67 69 58 40 48 42 44 47 40 42 34 62 87 100 78 44 45 41 44 41 40 46 43 36 37 34 38 38 38 37 36 33 33 30 26 23 22 21 20 16 17 18 22
64 70 56 44 48 42 53 54 46 42 44 69 96 98 53 44 40 40 41 40 44 43 38 39 39 38 39 40 41 39 37 34 31 26 24 22 23 22 18 21 25 34 31
66 72 57 44 46 46 75 55 47 48 64 74 99 82 52 43 41 39 40 43 43 44 42 43 43 45 43 47 43 38 34 30 29 26 23 25 22 21 23 31 41 35 25
57 70 56 41 43 58 81 56 55 53 68 80 98 67 53 46 45 45 48 46 46 47 47 47 48 48 47 42 39 33 31 30 27 25 27 22 22 25 36 41 32 28 27
54 64 37 44 50 72 68 55 60 58 74 96 93 68 55 52 46 44 46 50 50 50 49 49 50 48 45 41 35 31 30 27 28 26 22 26 26 39 37 30 32 29 25
54 42 44 47 66 70 67 55 53 73 86 100 86 73 57 52 48 48 49 51 52 53 50 49 50 49 43 36 32 30 29 30 24 23 26 29 40 34 36 36 32 26 22
40 43 49 57 66 83 63 49 57 94 100 100 84 72 54 51 49 51 51 54 55 50 51 56 52 45 36 34 32 32 28 23 24 27 32 39 38 43 38 31 25 24 17
47 49 56 59 67 71 58 74 100 100 100 96 81 70 60 54 53 56 58 57 53 59 61 52 44 38 36 34 33 24 23 26 27 37 38 48 43 37 35 30 28 17 6
53 58 55 49 67 82 99 100 100 100 100 89 75 65 61 65 65 61 58 59 67 64 54 48 41 38 37 29 23 26 29 30 38 42 48 42 41 37 31 29 20 8 7
66 64 60 79 96 100 100 100 100 100 98 88 81 76 71 65 63 68 71 70 66 60 51 42 40 35 25 24 30 30 34 37 44 47 46 46 39 30 25 17 9 7 6
73 80 97 100 100 100 100 100 100 100 98 92 86 82 81 79 77 76 72 65 57 46 41 40 27 24 28 31 30 40 38 44 50 58 53 38 30 27 17 8 7 6 5
100 100 100 100 100 100 100 100 100 97 94 92 86 84 82 80 78 72 66 53 46 44 31 25 26 31 32 33 40 37 45 55 58 50 37 29 25 15 8 7 6 5 6
100 100 100 100 100 100 100 100 95 90 89 90 90 84 80 78 74 62 54 52 37 28 26 31 32 36 44 40 40 46 52 53 48 37 28 25 12 8 7 6 5 6 5
100 100 100 100 100 98 94 95 99 97 92 84 82 84 75 66 60 62 43 31 27 32 32 42 57 51 37 39 46 52 52 49 38 29 22 12 8 7 6 6 6 5 4
100 100 100 98 98 99 95 93 88 85 83 80 75 71 70 69 46 35 31 39 35 33 55 68 54 41 41 48 51 56 55 44 32 24 11 8 6 5 6 6 5 4 4
100 99 99 99 94 91 90 88 85 83 79 79 81 59 44 38 37 43 42 37 34 60 68 50 40 41 47 52 58 53 48 34 25 12 9 6 5 6 6 5 4 4 5
98 94 94 96 94 93 93 89 81 85 82 52 44 46 51 50 42 38 38 38 64 66 51 42 44 49 55 54 48 47 31 18 11 8 6 5 6 6 5 4 5 6 7
92 95 100 100 98 91 85 89 68 48 48 60 56 51 44 38 40 45 48 64 64 46 38 41 45 50 50 48 48 33 16 10 8 6 5 6 6 5 4 5 6 6 8

GFSMW_250_rhum_045.txt.gz
RH
32 25 22 21 22 25 28 22 22 21 18 17 17 18 18 17 23 35 41 23 39 63 76 90 100 100 100 100 100 100 100 85 50 26 23 23 24 26 26 26 26 24 24
32 28 24 25 25 24 24 27 24 22 22 21 19 18 19 21 27 29 18 18 55 68 88 100 100 100 100 100 100 100 90 52 29 27 27 26 27 28 29 29 27 25 26
42 32 28 26 27 28 24 26 28 26 26 24 21 20 19 23 30 24 20 20 26 86 97 100 100 100 100 100 100 81 44 34 30 29 29 32 34 36 38 33 31 32 28
50 43 39 33 40 33 24 24 29 32 29 28 24 20 20 24 32 24 22 26 71 89 100 100 100 100 100 98 77 42 35 32 29 31 34 34 35 36 40 46 42 37 35
45 42 39 37 45 40 29 24 28 38 36 30 28 25 22 29 33 27 30 46 84 99 100 100 100 99 91 56 40 37 36 34 35 38 37 37 36 36 40 41 39 35 33
45 44 50 48 47 46 34 27 31 42 42 33 34 29 28 36 33 33 45 79 100 100 100 100 91 78 48 41 38 40 42 42 44 42 45 46 48 45 38 36 35 34 33
45 46 48 52 53 67 45 31 33 42 46 37 38 30 29 37 35 40 84 100 100 100 87 70 59 50 43 41 42 45 50 46 41 37 41 42 41 40 40 34 30 27 25
42 48 50 57 56 74 55 35 34 50 50 40 42 32 33 38 35 47 84 100 100 79 63 48 45 45 46 48 52 53 45 40 40 41 43 42 40 40 31 28 25 23 22
38 47 45 48 61 78 69 39 36 61 54 44 47 38 41 44 48 69 100 100 86 60 50 48 49 49 45 48 50 46 44 44 45 46 46 44 38 32 28 24 21 20 21
52 45 60 49 50 76 71 46 36 63 57 51 54 44 49 49 72 82 96 94 61 51 49 49 50 47 44 49 46 45 46 47 46 47 47 42 34 29 24 22 23 22 17
31 43 51 58 56 67 72 46 40 63 61 54 65 53 56 63 83 93 100 76 57 52 52 51 48 46 51 48 48 48 48 49 48 50 45 35 29 25 23 23 20 16 17
9 28 47 55 68 68 69 41 48 62 63 65 71 64 62 75 98 100 100 75 59 55 53 52 49 50 47 46 50 51 52 51 55 44 35 32 27 25 23 19 16 23 31
6 25 50 53 71 74 57 41 57 64 74 81 76 72 66 94 100 100 90 74 62 59 56 51 51 49 47 51 53 55 54 57 47 42 35 30 27 22 18 19 27 34 35
13 42 64 67 78 81 56 43 65 67 83 78 82 76 89 100 100 100 91 79 70 62 57 52 51 52 55 57 57 58 61 52 45 36 32 25 20 18 23 29 36 39 32
62 84 92 95 82 72 46 55 68 90 82 81 90 95 95 100 100 100 94 84 80 67 57 56 56 57 64 61 64 61 54 43 38 30 23 20 21 25 34 36 36 28 26
90 98 99 92 77 50 44 61 85 85 83 100 98 95 100 100 100 100 95 85 77 72 64 64 70 65 66 68 57 48 42 39 26 23 22 25 32 35 41 38 31 30 24
84 91 81 63 53 44 56 77 92 100 100 100 100 100 100 100 100 99 91 83 79 78 76 74 75 70 60 54 46 45 33 25 24 25 34 39 33 40 39 33 32 28 20
72 66 58 46 49 64 93 100 100 100 100 100 100 100 100 100 100 99 94 92 87 82 79 71 63 60 52 50 42 28 27 28 27 44 35 34 40 39 32 31 29 23 10
60 49 53 68 82 100 100 100 100 100 100 100 100 100 100 100 100 96 90 82 78 75 69 66 55 53 50 33 26 26 28 33 50 34 36 40 43 34 28 26 20 9 7
66 68 76 90 97 100 100 100 100 100 100 100 100 100 100 100 94 87 81 83 78 72 63 59 52 36 32 30 29 28 47 50 38 38 42 42 34 29 26 18 9 7 5
84 96 100 100 100 100 100 100 100 100 100 100 100 100 97 93 88 91 84 76 69 68 57 42 32 34 32 30 34 53 45 36 39 46 46 38 30 25 18 9 7 5 5
100 100 100 100 100 100 100 100 100 100 100 100 100 99 96 94 89 82 79 75 62 46 36 37 37 31 31 47 55 42 36 39 45 51 38 30 24 16 9 7 5 6 6
100 100 100 100 100 100 100 100 100 100 100 100 98 97 94 87 86 81 68 52 40 38 41 36 33 40 59 57 41 37 40 52 55 45 33 23 13 8 6 5 6 6 4
100 100 100 100 100 100 100 100 100 100 100 100 98 93 94 87 77 63 45 43 43 41 35 36 49 64 53 40 41 48 57 60 50 37 23 14 8 6 5 6 6 5 5
100 100 100 100 100 100 100 100 100 100 99 96 100 93 85 73 51 49 48 46 38 37 47 56 62 51 41 44 49 52 55 42 33 18 13 8 5 4 6 6 5 5 6
100 100 100 100 100 100 100 100 98 97 100 96 90 74 57 55 54 52 44 38 42 52 61 61 47 43 44 45 49 49 41 30 18 12 7 4 5 6 6 4 4 6 6

GFSMW_250_rhum_048.txt.gz
RH
52 41 34 32 31 30 30 24 20 17 16 20 20 20 19 16 14 14 22 21 25 20 21 19 19 20 48 76 84 100 100 100 100 100 100 100 100 86 41 27 26 25 27
45 48 41 34 32 32 31 28 22 19 18 18 21 23 23 21 19 22 49 49 41 24 18 16 19 21 29 43 94 100 100 100 100 100 100 100 79 42 31 28 28 30 33
46 42 37 37 33 31 32 30 24 19 18 18 20 24 25 24 23 22 22 28 26 20 18 18 20 22 30 90 100 100 100 100 100 100 100 84 44 33 32 32 34 37 37
45 48 45 44 37 32 30 30 26 22 21 18 19 22 26 26 27 28 29 28 24 24 21 23 24 25 57 94 99 99 100 100 100 100 72 45 39 41 46 51 50 44 41
45 47 45 50 48 41 33 34 31 25 25 23 20 20 26 27 29 32 38 35 32 28 22 27 31 53 89 100 90 98 100 100 96 55 40 39 43 44 53 56 49 45 46
45 50 47 47 57 51 43 44 48 39 32 30 26 22 25 31 30 36 43 37 35 33 28 31 34 88 93 93 97 96 91 82 54 45 41 41 48 58 51 42 47 49 55
42 44 54 48 56 62 55 44 54 51 40 34 35 27 27 35 34 40 41 40 42 39 36 40 56 90 100 97 86 76 58 51 44 43 45 54 53 50 47 46 47 51 49
41 36 41 43 45 55 62 56 60 54 41 37 40 32 33 41 36 39 57 59 60 64 40 54 73 87 100 86 73 59 52 47 49 48 53 52 49 48 47 48 50 49 48
38 36 37 40 41 47 56 59 64 56 50 40 40 38 39 49 40 44 57 59 66 64 64 77 82 100 93 75 59 53 51 53 53 54 48 51 51 48 50 51 52 48 43
23 36 33 33 39 48 48 57 68 58 58 56 47 42 53 58 45 44 63 61 69 67 64 89 96 93 78 63 53 55 56 56 56 56 55 48 48 50 53 53 49 46 35
22 41 31 30 39 41 47 60 77 70 67 70 54 47 61 59 49 59 72 65 70 69 88 89 99 85 72 60 57 57 55 56 53 53 50 50 54 56 54 50 48 40 33
15 17 25 26 50 49 55 61 73 74 84 85 66 48 71 60 58 78 78 76 81 77 92 100 97 83 76 65 60 60 61 60 56 53 55 55 60 56 53 46 41 30 21
5 8 16 25 29 68 64 64 71 85 86 93 73 52 74 63 72 95 88 96 92 93 100 100 96 86 82 73 69 70 71 64 59 60 62 65 57 53 44 37 27 19 22
4 3 5 16 32 56 76 69 79 95 93 97 75 55 76 70 96 98 100 100 97 100 100 100 98 96 90 87 86 82 74 69 69 71 64 54 47 41 30 24 23 26 41
4 5 6 10 41 62 92 97 100 100 100 98 58 63 78 81 99 100 100 100 100 100 100 100 97 93 91 84 79 79 78 75 67 56 48 44 38 27 23 25 34 46 32
7 6 10 20 67 87 100 100 100 100 94 75 52 72 80 100 100 100 100 100 100 100 98 93 96 92 88 90 84 77 68 55 50 48 43 35 26 28 29 47 46 29 21
26 27 36 78 100 100 100 100 97 90 80 53 64 82 98 100 100 100 100 100 100 99 95 93 94 99 89 77 68 59 53 52 49 40 30 30 29 42 52 38 30 26 20
100 100 100 100 100 100 100 100 94 85 59 61 78 97 100 100 100 100 100 100 100 99 97 99 91 76 69 65 60 58 58 44 36 34 30 32 50 44 34 33 30 23 24
100 100 100 100 100 100 99 91 79 54 63 80 100 100 100 100 100 100 100 100 98 98 90 78 72 71 69 66 65 55 37 40 36 31 44 52 50 41 37 29 23 26 24
100 99 90 87 85 79 71 62 60 71 98 100 100 100 100 100 100 100 100 99 94 82 75 78 78 75 72 70 44 42 42 33 37 53 55 53 44 37 28 24 26 25 14
100 94 80 72 66 66 71 78 98 100 100 100 100 100 100 100 100 100 95 86 77 82 82 82 80 75 60 42 45 39 34 48 59 58 56 48 38 29 27 27 24 12 7
99 94 84 78 81 94 99 99 100 100 100 100 100 100 100 100 97 89 80 85 89 91 88 84 72 46 41 46 37 37 52 58 56 58 48 39 31 29 28 21 11 7 4
89 95 100 100 100 100 100 100 100 100 100 100 100 100 100 92 87 92 91 93 92 90 81 61 47 50 45 36 39 56 59 57 59 56 48 36 30 26 16 10 7 4 5
100 100 100 100 100 100 100 100 100 100 100 100 100 98 96 97 93 93 95 94 84 71 54 55 53 43 39 46 57 65 69 70 65 54 41 30 25 15 10 6 4 6 6
100 100 100 100 100 100 100 100 100 100 100 100 100 97 97 99 99 95 85 74 59 58 58 53 42 42 51 59 72 79 67 59 51 41 29 22 14 9 5 4 6 6 4
100 100 100 100 100 100 100 100 100 100 100 99 100 100 100 98 88 76 65 63 63 58 47 41 46 61 70 74 70 57 52 47 37 26 16 13 9 5 4 6 6 4 5

GFSMW_250_rhum_051.txt.gz
RH
51 49 44 43 34 28 26 25 24 23 24 23 20 17 15 14 19 30 23 16 18 13 15 16 20 23 17 16 17 17 16 19 19 25 47 87 92 95 94 100 100 100 100
55 51 53 43 42 37 32 29 28 25 23 23 24 22 20 19 16 19 37 32 27 25 22 26 48 30 23 20 20 16 17 18 20 25 66 80 92 87 99 99 100 100 91
75 71 65 56 53 49 45 39 34 30 28 26 28 27 24 20 20 21 20 25 27 38 56 59 72 52 35 28 18 18 18 20 24 45 62 76 84 93 90 92 97 83 55
55 62 67 60 45 53 56 42 39 38 35 29 28 30 30 26 22 20 21 25 29 33 57 68 71 61 47 26 22 20 22 24 38 71 82 90 90 91 100 99 73 46 42
93 92 63 57 54 56 63 53 42 41 42 41 32 31 30 30 26 25 24 28 32 33 35 41 52 39 38 34 28 32 25 31 56 84 96 92 88 82 83 75 50 46 41
84 70 72 76 59 60 65 61 54 44 43 50 44 37 34 30 28 30 26 28 39 38 37 42 46 45 37 35 40 53 44 60 80 88 94 92 80 63 54 49 44 42 46
95 86 82 89 98 94 80 71 60 52 46 54 59 43 44 34 34 30 30 29 48 49 44 44 49 44 43 45 49 58 60 78 76 81 92 87 68 57 52 47 47 45 48
55 68 74 76 77 71 62 60 56 58 53 51 64 57 56 45 40 34 32 33 48 60 51 49 51 58 64 67 79 89 73 78 73 84 100 77 59 54 50 49 46 47 50
38 38 44 45 43 45 49 58 55 66 60 52 64 65 68 63 50 37 38 35 50 63 65 55 64 79 89 92 86 82 83 84 95 93 78 66 53 54 53 51 51 51 53
34 30 35 40 39 38 43 47 51 53 56 61 51 59 73 77 64 45 42 37 50 67 61 57 85 94 93 93 97 88 92 100 97 80 70 65 60 59 58 60 67 68 62
18 18 20 26 28 29 36 44 49 60 55 57 59 60 79 86 71 48 44 44 60 73 57 62 92 98 99 100 94 90 100 99 89 76 76 74 72 71 78 79 74 71 70
8 6 10 11 15 22 27 35 44 61 66 64 57 70 90 90 84 55 51 45 64 70 64 71 90 96 100 100 99 100 99 88 83 80 82 87 84 81 76 74 74 67 56
4 5 6 4 9 15 24 32 44 56 75 96 73 73 95 97 88 72 60 50 67 70 71 82 96 100 100 100 100 98 93 85 80 84 83 78 79 77 76 68 54 46 39
4 4 4 7 9 10 19 34 40 60 91 100 86 93 100 100 89 74 62 53 72 75 77 98 100 100 100 100 99 92 89 81 82 78 79 78 76 66 54 46 43 38 28
5 4 4 4 5 7 19 39 48 57 96 100 100 100 100 100 89 80 65 58 74 82 95 100 100 100 100 95 89 95 89 85 82 80 75 68 58 48 47 44 33 29 27
7 6 6 6 8 13 29 50 60 94 100 100 100 95 98 100 91 73 59 66 82 94 100 100 100 99 90 95 99 95 92 83 76 71 63 54 48 46 39 32 30 31 36
9 10 14 16 17 27 49 68 94 100 100 99 100 100 100 89 75 66 60 79 95 100 100 100 96 95 100 99 100 90 76 70 68 57 52 51 44 34 32 32 34 44 38
54 32 23 25 39 64 78 99 100 100 100 100 100 99 78 66 70 63 78 93 100 100 100 100 100 99 97 96 85 73 70 65 63 59 59 40 36 36 32 35 48 42 27
100 100 96 92 99 100 100 100 100 100 100 100 88 71 71 77 73 89 99 100 100 100 100 100 97 96 95 79 74 67 75 69 71 59 37 41 36 37 46 51 41 26 19
100 100 100 100 100 100 100 100 100 100 100 93 80 87 80 94 94 100 100 100 100 100 100 100 96 88 77 72 76 81 74 66 47 45 41 36 42 48 53 39 24 19 24
100 90 95 100 100 100 100 100 100 99 92 88 82 84 86 92 100 100 100 100 100 100 99 94 83 72 81 90 88 80 63 48 48 38 38 51 60 53 38 24 21 26 22
100 100 100 100 100 99 96 92 89 81 77 81 86 93 98 100 100 100 100 100 100 97 92 78 85 94 95 93 75 56 54 47 38 44 62 64 52 36 28 26 26 18 10
100 100 100 100 100 100 98 98 100 100 100 100 100 100 100 100 100 100 100 100 99 86 90 97 95 96 82 61 60 56 44 40 55 70 66 54 40 34 27 24 13 9 6
100 99 100 100 100 100 100 100 100 100 100 100 100 100 100 100 100 100 99 97 99 100 96 96 90 69 66 68 55 43 48 69 72 70 58 43 36 27 20 11 9 5 4
100 100 100 100 100 100 100 100 100 100 100 100 100 100 100 100 100 100 100 100 96 90 88 77 71 76 64 54 47 66 74 70 67 53 42 33 23 14 11 8 5 4 6
100 100 100 100 100 100 100 100 100 100 100 100 100 100 100 100 100 100 93 90 85 78 74 79 73 63 53 60 78 73 67 57 45 40 29 16 13 11 7 5 4 6 6

GFSMW_250_rhum_054.txt.gz
RH
69 62 49 47 45 39 35 31 30 32 24 24 20 21 26 29 28 25 21 20 18 17 18 35 42 32 23 21 18 15 14 14 16 17 18 17 18 18 17 19 30 34 60
70 67 67 58 58 54 45 38 32 37 31 30 30 26 44 40 33 28 27 26 25 24 20 18 23 32 30 26 23 20 21 18 22 24 21 20 19 20 19 22 33 48 77
75 71 66 69 67 66 66 61 50 36 40 30 27 32 36 36 30 30 30 27 27 25 23 27 41 45 44 43 42 33 21 26 33 31 25 20 23 26 34 26 29 48 72
68 72 73 66 65 66 65 78 84 67 58 57 36 37 40 36 40 54 64 46 30 28 25 25 35 43 36 32 34 42 51 47 40 37 22 21 27 30 32 40 51 65 74
62 64 71 72 80 83 72 61 69 81 75 71 50 46 49 64 50 50 39 32 35 31 30 26 25 28 36 38 51 66 79 78 72 46 31 29 32 29 34 64 47 71 81
68 66 65 58 56 80 95 100 85 86 74 62 59 56 70 53 45 40 38 36 32 35 33 29 26 26 40 40 47 64 67 60 74 45 46 64 70 52 51 59 68 71 82
91 95 79 60 47 46 66 84 99 100 97 84 69 72 83 65 53 45 41 42 32 34 36 34 30 27 40 49 49 48 48 65 58 57 64 71 85 76 70 61 56 71 85
57 53 52 54 57 58 71 62 63 76 94 91 83 59 70 79 70 56 47 48 41 40 42 43 36 33 40 56 57 53 49 53 62 76 78 86 91 74 68 60 53 76 75
51 44 40 40 47 53 49 45 52 72 72 82 81 87 96 83 75 55 54 54 52 49 46 43 40 36 47 70 81 80 58 63 88 84 98 95 80 75 65 72 67 70 68
46 45 40 37 38 41 48 38 30 38 47 54 67 78 80 77 86 90 68 56 58 68 57 44 48 39 38 68 85 91 88 79 99 100 98 90 90 87 81 86 74 64 53
49 46 36 28 23 24 29 40 36 28 29 33 46 59 60 65 79 96 77 72 59 67 67 43 47 45 42 63 93 91 82 94 100 100 99 94 91 83 86 75 69 63 58
52 45 25 13 10 13 11 21 33 25 26 39 49 49 49 59 69 82 90 74 64 76 74 51 51 57 48 68 90 82 77 95 100 100 95 92 85 80 73 74 67 63 60
41 35 18 12 7 6 6 10 31 26 23 40 48 57 58 57 73 99 92 67 73 82 84 58 62 62 58 76 81 78 80 94 98 93 95 85 75 73 74 70 67 60 54
56 32 15 8 5 4 6 12 25 23 20 40 50 59 62 68 95 100 99 82 76 86 82 66 72 71 72 85 85 82 96 98 91 93 89 79 79 80 78 70 58 53 48
31 11 6 6 4 4 4 8 13 15 25 39 56 61 69 89 100 100 100 96 87 96 80 66 86 70 80 90 90 97 96 92 96 94 85 82 79 74 64 56 53 52 42
27 8 6 4 5 6 7 8 12 21 44 58 64 72 80 95 100 100 100 100 100 98 75 73 72 81 93 93 98 100 97 100 98 94 85 76 68 62 54 55 46 42 27
53 14 8 10 15 19 25 31 42 47 66 72 82 85 89 100 100 100 100 100 99 84 77 78 83 97 99 97 97 99 99 95 96 84 75 74 66 58 55 52 41 30 28
84 37 20 20 37 50 54 61 64 88 97 92 99 100 100 100 100 100 100 99 88 82 82 83 96 97 96 98 100 99 97 98 84 81 75 65 63 60 49 32 35 33 30
99 83 60 48 46 67 98 100 100 100 100 100 100 100 100 100 100 100 93 84 83 80 86 97 99 99 100 100 96 100 94 87 84 82 71 64 56 40 34 38 32 34 38
100 100 100 100 100 100 100 100 100 100 100 100 100 100 100 100 92 83 86 74 81 94 100 100 100 100 100 100 100 93 97 97 86 75 68 50 39 39 33 32 39 42 34
100 100 100 100 100 100 100 100 100 100 100 100 100 97 90 87 90 82 80 89 100 100 99 100 100 100 100 94 96 97 92 81 79 64 47 46 40 33 38 45 41 30 25
95 100 100 100 100 100 100 100 100 100 95 81 81 86 92 86 80 94 100 100 99 100 100 100 100 100 100 100 98 92 90 77 54 53 48 37 38 46 48 40 31 24 19
88 90 95 88 92 100 100 100 100 100 100 100 100 97 91 100 100 100 100 100 100 100 100 99 100 100 96 96 98 85 59 52 54 44 40 50 50 47 37 30 22 14 10
99 76 76 97 97 96 97 98 98 96 96 100 100 100 100 100 100 100 100 100 100 99 100 100 98 98 99 90 67 59 60 52 43 52 59 53 47 36 28 19 13 10 7
100 100 100 100 100 100 100 100 100 100 100 100 100 100 100 100 100 99 97 98 100 100 99 100 98 94 74 68 70 59 50 54 64 57 54 47 37 26 16 11 9 6 4
100 100 100 100 100 100 100 100 100 100 100 100 100 100 93 87 93 100 100 100 100 100 98 92 78 73 74 64 60 64 66 56 54 51 43 31 20 13 11 8 5 4 4

GFSMW_250_rhum_057.txt.gz
RH
73 68 60 55 58 63 74 67 52 46 44 40 43 28 24 45 36 31 37 36 32 33 28 26 25 23 21 20 18 19 28 43 43 30 22 18 14 14 16 18 21 24 32
70 77 72 73 72 75 72 70 69 62 52 45 53 55 40 45 58 77 60 54 40 34 32 28 27 27 25 24 25 25 22 20 26 31 28 29 26 30 34 37 37 54 44
70 60 66 78 81 87 84 84 69 62 57 53 53 56 60 64 57 59 60 60 64 51 49 54 51 36 31 28 27 25 25 26 41 39 37 35 30 37 43 47 49 58 29
89 78 61 74 89 90 88 86 84 78 67 56 54 51 49 58 70 70 60 76 87 86 85 67 50 32 29 29 30 29 26 25 36 44 42 34 37 37 57 64 63 38 28
72 84 55 56 74 84 87 76 69 68 71 65 61 57 62 67 68 68 71 79 80 82 82 54 39 38 35 29 29 30 29 26 26 31 34 36 44 46 66 80 82 60 43
86 89 63 49 61 69 67 69 65 60 63 64 74 88 73 62 63 69 74 75 85 76 57 45 36 40 41 38 32 29 30 29 27 29 40 46 60 77 83 96 95 59 57
78 69 68 82 68 62 61 62 63 63 56 60 58 64 99 75 72 76 72 68 71 80 63 51 41 40 43 42 38 36 30 30 33 32 49 66 74 61 72 86 75 72 98
97 95 82 67 74 83 79 54 48 53 51 46 48 44 52 84 85 86 93 100 85 76 77 69 48 46 52 48 46 46 42 38 33 36 43 61 64 72 66 64 64 88 98
79 88 85 79 70 74 82 89 76 57 47 42 40 42 47 55 84 94 98 100 98 89 90 78 58 56 55 53 50 48 44 40 38 37 48 66 80 80 80 67 64 78 95
79 64 59 58 61 70 66 56 43 32 32 33 35 41 51 57 69 73 82 84 98 98 86 72 70 75 61 58 50 48 51 49 45 43 50 70 87 88 81 67 70 79 78
75 81 79 54 37 36 36 36 38 36 38 57 58 39 42 48 54 62 66 74 87 96 88 83 90 80 68 63 54 51 52 66 58 52 63 75 93 87 73 71 75 84 85
46 42 43 43 39 35 35 35 31 26 27 32 45 52 38 44 49 48 55 59 62 74 77 77 95 81 80 65 61 62 67 71 64 62 78 88 85 79 79 77 91 91 85
52 49 40 35 34 27 18 12 13 19 27 27 27 35 38 38 44 53 56 63 71 74 80 90 97 100 94 73 69 79 77 78 64 69 83 85 86 82 99 87 91 88 82
42 43 46 42 22 17 9 6 7 10 19 29 42 36 52 36 42 50 62 70 74 77 85 94 100 99 95 90 87 83 82 72 61 83 93 91 95 94 89 87 90 85 70
60 64 49 34 21 10 6 4 6 6 7 12 28 32 50 46 48 58 69 77 86 88 95 99 100 100 100 100 82 83 88 66 75 92 92 91 86 78 84 85 79 73 68
76 52 27 15 14 11 6 6 6 6 6 9 19 38 53 54 58 68 85 93 95 95 100 100 100 100 100 83 77 92 70 71 93 91 85 75 84 87 81 78 72 61 56
61 43 26 19 15 19 16 20 18 21 20 31 46 63 64 67 74 98 98 99 100 100 100 100 100 96 81 76 91 65 77 89 86 88 87 97 84 84 79 69 76 70 53
74 77 37 28 45 30 28 44 57 71 68 65 71 76 86 96 100 98 100 100 100 100 100 100 85 71 82 84 63 86 89 96 97 90 86 84 88 77 82 78 68 55 44
100 100 77 53 44 62 66 70 70 76 76 96 98 94 100 100 100 100 100 100 100 100 87 78 74 91 70 78 90 95 100 100 89 84 92 80 79 85 75 64 51 41 35
100 99 100 100 100 100 100 100 100 100 100 100 100 100 100 100 100 100 100 100 99 83 78 87 75 75 86 93 97 100 84 78 91 88 87 91 86 71 49 42 37 39 42
100 100 80 100 100 100 100 100 99 90 100 100 100 100 100 100 100 93 92 93 87 86 77 81 89 94 98 99 89 87 94 90 93 99 93 79 63 49 46 44 44 44 42
100 100 97 100 92 100 100 100 100 100 100 100 100 96 99 100 99 92 87 87 84 88 95 96 100 100 94 94 94 90 95 100 99 88 72 58 51 53 49 47 47 37 26
92 100 79 88 100 78 100 100 100 99 100 92 91 80 80 98 86 82 85 98 94 98 100 98 95 98 98 97 100 100 98 90 76 67 58 57 54 47 48 42 35 23 16
100 99 96 100 83 83 85 99 95 99 100 100 100 100 99 98 96 99 100 100 100 100 100 100 96 97 100 99 96 87 72 64 63 60 52 52 48 46 42 32 21 14 9
100 99 100 99 100 100 100 96 95 96 97 99 100 100 100 100 100 100 100 100 100 98 96 100 100 98 86 73 68 70 70 70 65 60 54 47 41 36 23 16 12 9 8
96 99 100 100 100 100 100 100 100 100 100 100 100 100 100 100 100 100 100 100 100 100 100 93 81 77 79 81 81 74 69 61 53 49 43 35 30 19 14 9 8 7 4

GFSMW_250_rhum_060.txt.gz
RH
86 76 82 77 66 50 44 48 44 48 43 50 68 67 67 92 99 86 72 56 37 34 49 49 36 35 39 36 33 31 28 27 27 24 22 21 20 19 20 25 32 39 36
91 90 79 67 54 51 52 54 57 53 54 50 49 50 62 73 84 97 100 100 97 72 74 79 82 73 64 47 35 29 29 28 26 27 25 24 26 26 25 27 33 38 44
99 86 74 60 53 57 61 66 56 54 61 70 64 58 60 75 82 86 100 100 100 100 94 71 57 63 61 54 45 51 53 47 28 26 26 26 25 24 27 30 35 37 44
90 72 61 60 72 64 64 72 76 70 64 73 80 79 66 52 58 55 69 87 71 84 98 80 70 89 99 73 69 68 40 31 28 28 28 27 27 27 27 26 31 42 41
63 55 58 58 73 71 73 75 86 82 60 53 80 88 84 74 65 57 64 85 96 100 100 100 100 97 91 79 81 63 43 36 35 36 34 30 30 30 29 31 30 39 44
60 62 65 62 53 57 70 99 99 99 82 62 51 54 71 72 67 59 52 54 67 79 96 100 100 100 95 76 69 59 50 41 41 48 44 40 40 36 34 35 35 40 49
63 69 68 58 59 68 92 91 87 92 79 59 55 67 67 68 72 70 59 66 68 78 85 83 88 100 89 69 66 59 61 54 45 48 53 54 49 44 36 35 34 40 53
66 65 73 73 96 100 88 86 86 68 72 69 68 58 60 60 66 68 69 66 66 64 80 100 100 100 93 79 74 74 71 66 51 48 50 50 52 53 45 41 41 38 48
98 92 87 100 95 88 70 64 59 56 62 78 78 59 54 52 52 56 61 62 60 57 51 83 100 100 100 86 96 94 90 77 62 50 47 49 50 59 61 49 45 38 50
99 98 85 76 67 66 70 75 87 97 88 79 76 67 56 54 56 60 61 61 58 53 67 82 100 100 100 99 91 97 98 88 66 65 56 55 55 52 60 53 48 45 58
78 77 69 72 77 78 75 75 74 72 72 74 74 69 59 45 37 37 41 44 41 49 71 92 98 100 100 100 100 100 100 96 84 89 80 68 56 56 60 52 52 52 73
99 100 100 100 88 77 69 65 49 27 27 32 35 40 41 44 49 50 46 61 65 56 59 65 90 97 88 98 100 100 92 96 98 99 87 81 60 63 73 64 55 72 88
96 87 90 86 61 41 35 39 38 34 40 39 36 39 44 43 40 46 50 52 60 70 68 69 83 94 85 85 80 91 100 100 100 88 71 65 60 73 76 60 65 92 93
66 55 58 61 54 44 36 30 26 26 27 30 32 31 36 39 43 38 41 50 52 59 68 74 77 83 99 100 98 96 99 100 100 85 64 57 71 77 62 66 90 90 82
55 48 46 38 28 29 26 19 12 8 8 8 11 15 24 37 50 59 51 68 64 60 62 70 77 96 97 98 100 100 100 96 84 68 64 72 81 66 74 91 91 82 68
56 56 45 36 43 33 21 16 10 7 6 5 7 10 15 32 59 77 69 81 81 63 71 82 94 100 92 99 100 100 98 93 82 76 71 85 69 80 94 82 66 69 71
96 91 64 49 66 54 33 26 16 9 7 6 10 12 16 31 58 91 98 98 84 80 84 97 100 100 100 100 100 99 92 84 74 75 89 69 87 84 65 66 76 75 70
100 100 92 84 63 41 47 30 27 19 14 16 23 38 63 83 99 100 100 100 100 100 100 100 94 90 92 100 100 93 85 73 94 85 81 84 64 70 84 84 78 71 62
81 100 100 82 73 66 60 55 46 49 61 72 75 95 95 100 100 100 100 100 100 100 100 100 98 99 95 87 82 76 97 96 80 84 66 79 91 86 77 78 78 74 60
72 97 100 100 90 80 83 96 98 100 99 100 100 100 100 100 100 99 85 96 87 92 89 91 94 88 87 91 100 92 82 85 80 89 94 88 81 85 77 61 57 56 50
76 69 80 78 100 97 93 75 94 99 100 100 100 100 91 100 100 100 100 100 100 100 98 98 99 100 99 93 90 86 88 97 97 87 84 84 74 62 59 56 54 46 42
85 72 90 93 69 97 97 100 91 95 79 97 100 97 93 98 88 84 82 83 96 100 100 94 86 92 97 94 88 85 85 85 93 96 81 74 72 67 62 53 46 42 36
97 87 85 86 100 75 68 69 72 85 83 86 81 93 100 100 100 99 100 100 99 91 88 88 82 79 84 88 88 90 94 92 84 79 78 72 63 56 47 42 35 31 24
91 92 93 95 99 98 80 74 75 79 82 79 77 79 75 79 79 84 81 85 93 87 77 81 90 92 93 98 100 98 91 89 81 72 63 54 48 44 38 35 27 19 13
72 80 89 100 97 98 95 87 92 99 100 100 97 92 93 97 100 100 100 97 88 90 95 94 96 99 100 100 97 97 87 78 69 62 55 47 40 36 31 20 14 10 7
81 84 80 89 95 96 96 99 97 99 100 100 100 100 100 90 85 86 88 93 97 96 99 100 99 90 92 99 99 90 76 66 58 49 42 40 33 24 15 11 7 7 6

GFSMW_250_rhum_063.txt.gz
RH
100 100 100 100 99 91 84 83 90 90 84 72 63 50 35 45 56 88 95 99 97 96 94 88 80 85 77 78 71 78 75 72 64 54 45 37 34 34 29 27 27 27 28
100 100 100 100 86 83 83 78 71 62 63 63 56 52 44 51 62 78 85 97 89 95 100 100 96 95 76 93 100 95 78 62 56 49 42 46 47 51 43 30 27 27 28
100 100 98 100 100 97 79 70 62 55 62 62 53 47 46 55 66 87 77 80 96 100 100 100 100 100 97 100 94 84 69 62 54 56 49 50 43 32 29 28 30 30 29
100 100 100 100 100 100 100 87 80 73 66 59 53 61 64 60 53 42 45 65 78 81 91 100 100 100 100 98 99 96 86 78 55 68 66 58 51 44 37 34 33 34 33
100 100 100 100 100 100 100 100 87 70 61 57 62 70 68 75 89 68 54 61 74 84 97 100 100 100 100 100 100 100 100 87 73 73 78 81 70 56 47 47 39 43 44
100 100 100 100 100 100 100 93 77 67 60 54 53 55 58 74 93 93 74 72 74 68 82 97 98 85 80 99 100 100 100 95 84 70 87 90 80 65 60 62 49 50 48
100 100 100 100 100 100 100 87 75 69 61 70 66 54 53 71 87 84 73 74 65 50 61 64 62 69 71 74 95 100 100 100 100 91 97 100 97 84 82 72 60 61 61
100 100 100 100 100 98 94 82 72 86 72 71 68 70 75 76 64 70 96 80 65 71 74 65 84 92 98 90 85 100 100 100 100 83 92 100 100 90 86 83 71 72 73
100 100 86 74 70 80 78 69 60 66 67 82 69 76 86 76 70 71 70 72 75 86 88 75 78 78 74 88 86 79 76 91 97 100 100 98 98 98 100 100 88 98 77
92 76 62 62 73 79 75 80 88 82 62 74 80 75 74 70 62 66 69 76 80 85 87 93 90 84 81 84 84 79 79 82 87 99 100 98 92 100 98 99 99 86 67
76 64 67 72 72 72 73 71 67 64 62 65 67 64 64 66 67 63 74 80 82 72 73 78 75 72 74 71 73 78 97 100 100 100 100 100 100 100 90 94 91 84 72
69 65 74 77 74 75 73 72 65 67 69 71 73 69 67 76 80 73 71 71 68 63 65 66 67 62 58 58 62 66 90 100 98 100 100 100 100 96 100 97 94 90 71
91 94 87 75 77 78 69 70 66 60 65 67 57 47 39 33 38 40 40 44 45 44 49 54 61 67 73 81 77 73 77 100 100 100 100 100 100 100 86 92 90 76 72
90 89 87 95 97 99 87 67 47 37 36 37 36 37 34 27 30 38 43 46 50 58 63 66 69 74 79 80 88 90 88 92 100 97 100 100 100 98 86 93 79 71 76
98 96 95 89 72 49 46 46 36 34 32 24 22 26 28 22 30 40 46 55 58 58 66 60 77 98 91 80 81 98 100 100 100 100 98 95 92 86 83 70 75 78 69
69 72 70 56 41 34 30 31 28 22 16 11 6 13 13 14 17 30 45 54 64 79 91 93 100 100 97 86 90 100 94 96 88 82 82 83 74 70 72 77 72 69 76
57 59 60 61 47 39 39 47 44 31 21 12 6 7 8 8 11 18 30 58 81 96 100 100 99 96 100 100 100 100 99 97 80 75 82 81 76 80 80 75 81 84 94
72 80 78 67 67 75 65 68 66 48 36 19 11 10 11 12 16 25 47 80 95 100 100 100 100 100 100 100 94 68 74 95 100 96 84 94 90 84 88 89 100 100 84
94 100 94 85 63 79 86 90 74 52 52 54 41 46 47 36 44 63 82 99 100 100 100 100 100 100 97 94 96 99 96 89 85 98 96 93 97 97 100 95 85 76 66
80 94 100 95 65 80 73 84 83 64 56 57 79 72 98 96 99 94 100 100 100 80 73 84 100 100 100 100 100 100 100 99 87 95 99 100 100 94 78 74 67 68 63
95 85 98 78 89 70 76 84 81 59 60 64 50 51 72 71 79 93 100 98 84 92 90 100 100 92 92 97 100 93 94 100 100 100 94 76 72 70 65 66 69 64 56
100 93 99 94 80 78 81 76 92 98 78 84 83 99 93 82 82 80 84 81 94 95 89 85 94 100 100 100 100 100 99 94 84 80 80 78 78 80 83 74 62 54 44
98 92 95 77 86 78 99 83 82 76 99 88 87 90 98 100 100 100 100 100 100 100 100 100 100 100 100 89 89 81 79 82 82 79 86 86 92 84 67 56 48 38 31
90 80 89 79 77 80 81 97 93 100 97 95 99 100 100 100 100 100 100 98 88 79 69 72 88 93 92 90 90 90 91 88 91 94 93 86 68 56 51 41 35 28 17
94 79 73 80 87 92 84 89 86 81 86 89 93 95 90 87 82 79 78 83 91 98 100 99 98 99 99 98 99 97 95 98 96 90 74 60 54 48 40 30 21 12 10
80 66 82 85 78 84 75 80 88 90 89 84 87 91 93 97 99 100 100 93 90 95 99 99 99 100 100 100 96 94 92 89 76 67 59 53 46 40 28 15 10 9 8

GFSMW_250_rhum_066.txt.gz
RH
100 100 100 100 100 96 100 100 100 100 93 97 94 96 87 82 85 80 65 60 60 48 46 52 76 90 93 96 89 82 84 86 88 76 79 72 74 68 57 52 49 47 55
100 100 100 100 100 99 100 100 100 100 100 100 100 93 87 81 77 70 62 56 59 44 53 77 86 95 97 99 85 85 77 84 82 75 61 56 56 55 57 55 50 55 54
100 100 100 100 100 100 100 100 100 100 100 100 98 91 83 77 66 65 60 50 47 46 52 83 96 99 100 100 100 99 98 85 79 72 68 64 57 56 58 57 63 63 64
100 100 100 100 100 100 100 100 100 100 100 100 100 95 84 72 66 72 63 57 56 62 76 84 86 88 87 98 97 93 98 99 91 82 79 61 57 59 64 70 83 89 90
100 100 100 100 100 100 100 100 100 100 100 100 100 85 86 82 81 73 67 59 56 55 58 67 87 75 83 85 86 86 87 97 100 99 84 68 67 78 87 97 95 92 94
100 100 100 100 100 100 100 100 100 100 100 100 87 80 82 99 95 82 74 65 55 58 74 72 91 93 98 95 86 66 56 58 80 90 98 97 85 91 93 86 86 98 100
100 100 98 100 100 100 100 100 100 100 100 98 98 96 97 100 95 95 82 83 85 65 51 50 48 57 66 78 98 93 86 82 98 99 100 100 100 98 94 86 83 88 100
100 100 100 100 100 100 100 100 100 100 100 100 100 100 93 92 88 86 84 74 61 67 60 72 72 88 89 92 94 86 75 82 85 84 90 100 100 100 100 91 89 80 84
100 100 100 100 100 100 100 100 100 100 100 100 95 84 74 75 83 84 76 95 98 92 99 98 98 100 99 100 94 96 100 100 100 100 100 100 100 100 100 100 91 93 97
100 100 100 100 100 100 100 99 99 98 94 88 84 71 64 61 69 72 94 96 84 77 92 98 96 100 96 89 99 100 100 100 100 100 100 100 100 100 100 100 98 100 96
92 91 97 100 98 99 100 100 96 84 76 79 72 65 69 58 68 80 81 77 76 71 81 88 93 94 97 97 97 100 100 100 100 100 100 100 94 96 97 100 100 100 93
77 78 74 69 72 78 78 74 74 70 73 74 68 62 65 75 66 59 58 54 55 56 68 87 88 92 100 100 100 100 93 96 100 69 76 76 77 85 91 100 94 94 80
75 71 71 75 72 77 76 66 59 55 52 52 53 58 62 69 54 43 49 58 60 66 81 89 91 84 91 97 100 95 97 97 100 95 100 100 100 100 88 82 83 95 90
59 64 69 67 66 64 57 54 55 51 44 38 39 40 45 47 47 38 33 34 38 43 51 59 66 72 74 82 88 86 98 96 100 100 100 100 100 100 93 94 92 94 90
82 84 88 73 66 66 67 57 42 44 38 32 28 25 25 24 24 24 22 24 33 42 48 52 56 65 73 73 68 91 99 100 100 98 100 90 89 100 100 95 100 98 85
83 90 93 96 90 78 56 49 41 36 32 27 24 20 16 16 12 15 21 24 29 44 66 80 76 77 81 83 100 100 100 100 99 95 100 100 95 91 97 92 81 62 65
92 99 86 77 65 52 48 45 34 27 27 26 21 15 13 8 8 12 14 16 19 38 58 85 100 91 100 100 100 100 100 99 94 100 100 92 95 88 81 67 73 80 77
80 77 64 66 61 55 59 57 57 63 62 55 43 30 18 9 9 10 9 11 16 29 50 88 100 100 100 100 95 100 99 100 91 88 94 79 72 72 80 82 84 89 92
65 65 79 95 64 64 76 58 74 71 67 62 62 57 45 30 18 18 24 27 32 50 88 100 100 100 100 91 90 90 96 93 97 92 78 87 92 94 85 88 96 99 100
71 67 75 90 69 81 74 72 86 71 70 50 65 59 62 50 53 56 63 70 74 80 86 94 81 98 92 79 84 89 90 89 85 100 100 100 100 99 100 100 100 90 79
86 80 71 92 78 84 81 78 81 72 79 65 56 70 74 79 72 61 62 63 73 78 84 85 83 83 82 80 87 89 94 98 95 97 99 100 100 100 98 87 74 71 66
98 91 73 78 100 89 78 70 81 100 88 72 78 67 68 72 86 95 97 89 89 82 82 82 83 93 98 99 99 98 100 100 100 100 100 96 90 85 74 70 66 66 63
75 84 92 88 80 84 81 69 71 83 100 100 100 93 88 89 83 89 91 91 90 94 98 99 100 100 100 100 100 100 100 100 97 92 93 91 84 76 74 76 72 63 55
97 98 86 93 88 78 81 68 72 76 89 95 100 100 97 93 95 94 93 90 92 99 100 100 100 100 100 99 93 89 88 93 98 99 90 80 78 78 78 66 58 50 42
85 96 90 78 83 83 76 73 70 78 77 82 89 85 83 87 96 99 99 100 100 100 100 98 91 83 81 84 89 97 100 98 90 86 87 84 74 65 57 50 44 30 14
62 76 83 69 77 74 72 70 74 74 74 76 87 99 100 100 99 100 100 100 100 94 91 86 82 77 74 79 89 94 92 90 89 83 74 67 62 54 44 33 16 10 9

GFSMW_250_rhum_069.txt.gz
RH
100 100 100 100 97 99 100 100 100 100 100 100 100 99 96 100 100 100 96 90 84 86 84 77 75 70 61 54 48 44 50 63 61 67 73 74 64 62 51 59 56 53 58
100 100 100 100 100 100 100 100 100 100 100 100 100 100 100 100 100 98 93 94 89 87 73 67 62 56 59 51 50 56 63 76 75 87 81 88 81 76 66 70 58 58 52
100 100 100 100 100 100 100 100 100 100 100 100 100 100 100 100 100 98 90 83 74 65 63 59 58 56 56 58 62 62 58 70 71 88 74 79 79 66 55 50 53 57 53
99 100 100 100 100 100 100 100 100 100 100 100 100 100 100 100 100 98 97 97 91 76 62 60 62 64 62 68 63 60 59 62 71 82 91 96 92 95 74 70 71 67 67
96 100 100 100 100 100 100 100 100 100 100 100 100 100 100 100 100 100 100 100 94 84 76 78 80 73 73 82 71 74 70 89 85 83 87 92 100 100 100 97 95 88 80
94 100 100 100 100 100 100 100 100 100 100 100 100 100 100 100 100 100 100 100 93 85 82 85 89 95 91 82 80 86 66 64 58 63 73 88 89 100 100 100 100 100 100
97 100 100 100 100 100 100 100 93 96 100 100 100 100 100 100 100 100 100 100 99 96 95 88 88 90 94 97 97 95 99 95 86 80 99 100 100 92 99 100 100 100 100
100 100 100 96 98 98 100 100 100 99 100 100 100 100 99 100 100 100 100 100 100 100 100 99 90 89 88 93 99 100 100 98 94 97 99 99 100 100 100 99 100 100 100
100 100 100 100 100 100 100 100 100 98 100 100 100 100 100 100 100 100 100 100 100 100 100 100 99 93 97 99 100 100 100 97 92 100 100 100 100 100 100 100 100 100 100
100 100 100 100 99 100 100 100 100 100 100 100 100 100 100 100 99 97 97 96 93 89 92 97 98 97 99 100 100 100 100 91 93 100 100 100 100 100 100 100 100 100 99
100 100 100 100 100 100 100 99 97 98 99 100 100 98 90 84 84 82 78 78 76 70 76 75 79 83 99 100 100 100 100 100 100 100 100 100 100 97 99 100 78 90 92
100 100 100 100 100 100 100 96 93 94 93 88 86 87 84 71 64 66 67 64 59 60 52 60 72 78 88 99 100 100 100 100 100 100 100 100 98 97 100 100 93 100 79
100 100 100 100 100 99 97 90 86 81 74 72 70 71 68 58 52 45 40 41 41 44 55 60 71 81 88 98 97 100 100 100 100 98 96 94 100 98 100 100 100 100 100
93 94 95 93 88 81 74 69 69 66 70 75 69 60 56 50 45 38 37 35 30 31 38 48 62 76 89 100 99 92 91 95 85 79 82 91 98 99 99 88 75 66 78
80 83 84 81 77 71 65 68 66 61 55 51 47 48 44 34 28 26 24 21 18 20 24 30 37 45 51 61 70 77 83 83 81 84 100 99 98 100 83 86 90 95 94
65 63 58 56 61 71 63 62 59 56 66 51 41 36 37 34 28 20 16 14 12 15 19 23 32 50 65 84 100 100 98 94 94 98 92 97 89 99 100 77 72 76 97
78 80 83 82 77 88 92 76 69 54 46 44 37 37 30 26 18 11 8 8 8 8 11 15 21 46 62 88 99 100 100 100 97 89 79 85 76 77 81 84 93 90 81
81 86 88 98 100 92 80 61 54 49 45 63 51 61 55 46 37 32 21 12 11 12 14 18 28 47 63 87 100 100 100 89 74 100 78 71 79 82 81 82 83 84 79
99 100 93 92 81 61 60 68 54 52 58 68 73 74 64 58 65 53 48 36 27 23 24 29 34 48 65 100 100 100 81 67 63 68 71 86 88 91 91 96 99 100 100
88 88 72 64 63 65 65 69 58 69 63 70 75 77 75 64 67 63 61 60 54 53 56 55 59 67 86 70 59 71 75 83 89 93 97 100 95 90 92 100 100 100 100
68 60 62 61 67 66 70 78 66 68 58 65 64 71 71 82 88 81 70 68 70 71 69 72 75 75 78 81 84 90 90 92 91 86 95 100 100 100 100 100 100 96 86
56 68 64 64 62 65 75 72 70 73 68 60 64 65 65 63 66 74 87 87 84 80 76 72 75 78 78 80 87 91 97 99 100 100 100 100 100 100 98 93 85 78 67
73 73 85 77 67 81 86 74 70 64 72 68 67 65 71 73 78 85 95 100 99 98 100 100 100 100 100 100 100 100 100 100 100 96 90 95 96 98 90 80 69 64 60
70 74 69 80 75 85 93 74 73 66 78 74 78 68 76 89 97 100 98 90 88 83 81 89 97 100 99 92 85 82 84 88 90 90 88 92 87 77 74 68 60 52 48
68 65 65 71 81 87 87 76 77 72 75 78 81 85 89 95 90 96 100 100 100 99 99 98 90 87 87 87 86 81 80 82 79 78 78 78 76 67 64 56 48 40 31
58 57 54 63 69 76 78 69 74 74 72 73 74 88 92 87 98 98 98 96 92 95 94 90 89 86 80 78 83 85 84 85 86 81 78 71 63 56 47 40 29 18 12

GFSMW_250_rhum_072.txt.gz
RH
100 100 100 97 93 88 96 100 100 100 100 94 88 92 93 88 84 80 80 79 75 86 98 96 93 80 82 83 79 65 57 55 47 48 49 51 51 56 52 49 62 71 74
100 100 100 100 100 100 100 100 100 100 98 98 96 92 88 84 77 85 88 83 85 91 100 98 89 81 76 80 70 65 57 53 53 54 53 59 62 66 62 62 69 86 84
100 100 100 100 100 100 100 100 100 100 100 94 97 97 85 91 89 100 99 95 91 100 100 99 89 81 85 90 71 59 58 68 65 70 72 76 75 68 71 74 77 81 85
100 100 100 100 100 100 100 100 100 100 96 93 93 93 89 97 100 100 99 100 100 100 100 100 99 97 92 95 94 99 76 78 82 81 82 82 75 75 82 77 87 89 91
100 100 100 100 100 100 100 100 100 100 92 87 84 96 95 100 100 100 100 100 100 100 96 100 100 100 100 100 100 95 96 99 89 89 88 87 93 95 90 92 100 95 100
100 100 100 100 100 100 100 100 100 95 96 100 100 100 100 100 100 100 100 100 100 93 94 100 100 100 100 100 99 99 100 100 90 88 91 92 94 98 98 94 96 98 98
93 88 89 95 100 100 100 100 88 91 100 100 100 100 100 100 100 100 100 100 100 100 100 98 98 100 100 100 100 100 100 100 97 97 100 100 99 100 100 100 100 100 100
89 97 98 100 97 98 81 86 100 100 100 100 100 100 100 100 100 100 100 100 100 100 100 100 100 100 100 100 100 100 100 100 100 100 100 100 100 100 100 100 100 100 100
100 96 84 70 84 68 72 89 100 100 100 100 100 100 100 100 100 100 100 100 100 100 100 100 100 100 100 100 97 100 100 100 100 100 100 100 100 100 100 100 100 96 87
100 100 88 90 86 73 83 85 90 94 97 99 100 98 95 100 100 100 100 100 100 100 100 100 100 100 100 100 100 100 100 100 100 100 100 100 100 100 100 100 100 100 100
100 100 99 99 98 92 97 100 100 100 100 100 100 100 100 100 100 100 100 100 100 100 100 100 100 100 95 93 89 85 87 94 96 100 100 100 100 100 100 100 100 100 100
100 100 100 100 100 100 100 100 100 100 100 98 96 90 88 80 84 84 72 67 72 77 76 72 70 67 65 81 77 85 81 83 99 100 100 100 100 100 100 100 100 86 88
100 100 100 100 100 100 100 100 100 100 100 96 87 87 86 86 87 87 84 75 66 62 56 46 46 48 53 57 60 62 66 78 96 100 100 100 100 100 100 98 90 83 88
100 100 100 100 100 100 100 100 100 99 95 91 86 84 85 76 71 68 58 51 43 31 23 20 21 25 29 34 41 58 65 76 89 96 100 100 100 100 94 94 88 76 99
100 100 100 100 100 100 100 98 94 92 88 82 78 75 68 63 53 49 43 37 27 21 17 15 17 22 23 22 32 42 48 55 61 64 78 87 93 100 91 100 83 86 91
97 99 100 100 100 100 99 98 90 84 78 71 68 57 53 51 52 43 38 32 26 18 15 17 19 17 18 24 32 42 54 63 65 84 100 100 100 100 100 84 85 80 80
82 89 96 97 89 85 85 77 70 64 60 56 60 59 59 46 41 44 38 32 27 21 12 9 12 13 15 17 48 48 52 78 91 100 100 100 100 98 67 73 76 72 77
89 74 65 68 68 65 62 64 64 62 68 60 60 50 52 46 48 50 44 45 49 46 33 20 13 12 18 25 37 53 81 92 97 95 100 87 70 64 68 79 90 96 98
77 76 79 70 63 57 71 81 83 75 68 49 51 55 56 57 50 49 54 55 53 56 53 42 33 32 40 50 64 74 89 89 68 68 78 75 79 87 93 100 99 92 80
90 87 74 80 91 95 90 82 75 57 51 50 54 54 60 61 55 60 67 72 62 57 56 55 55 58 60 60 62 64 70 76 80 85 85 81 86 93 88 88 88 90 92
92 96 99 94 83 78 66 57 62 63 63 69 71 61 64 57 57 55 69 76 76 76 73 73 68 66 70 74 78 78 79 78 78 81 84 90 95 97 100 100 100 100 100
100 94 84 69 59 60 59 59 59 65 75 76 75 68 58 61 58 64 72 79 84 86 86 85 85 86 87 88 89 91 93 96 98 99 100 100 100 100 98 92 87 81 74
87 78 62 59 68 69 67 71 73 86 76 71 70 64 56 54 59 75 84 82 84 92 94 100 99 100 100 100 100 100 100 100 100 93 89 86 84 85 81 76 71 64 58
81 73 74 79 83 82 76 80 88 94 92 74 66 61 57 60 78 91 96 90 94 100 100 100 100 100 100 97 93 90 85 81 80 81 81 82 79 70 61 56 54 49 40
92 82 77 75 70 68 65 68 89 93 96 79 61 60 73 82 92 94 94 92 98 100 100 100 100 99 94 91 88 84 79 76 74 72 67 62 59 58 57 51 39 28 24
84 79 71 62 58 54 57 71 80 86 94 77 64 74 83 83 85 91 85 89 96 97 98 99 98 91 86 82 80 77 72 66 64 65 66 61 57 52 42 31 26 29 23

GFSMW_250_rhum_075.txt.gz
RH
100 100 100 100 100 98 92 84 83 83 79 81 82 76 72 70 80 74 78 81 75 86 78 71 73 71 65 78 100 98 100 93 84 76 70 65 59 63 60 64 73 69 67
100 100 100 100 100 99 89 82 83 80 69 76 80 78 92 98 100 100 92 90 89 81 86 82 76 76 79 80 100 100 99 92 87 82 82 88 87 74 75 88 85 91 85
100 100 100 100 100 100 98 91 90 97 95 90 89 91 98 100 96 95 93 80 79 84 80 87 89 92 88 99 100 100 99 97 99 100 87 98 94 97 98 97 95 91 86
92 95 98 100 100 100 100 100 98 89 90 92 89 98 100 100 99 96 89 85 82 83 80 81 94 100 96 100 97 92 74 99 100 99 100 97 99 94 95 98 90 94 99
88 94 100 100 100 100 100 100 100 96 98 97 95 97 99 100 100 100 89 89 85 90 94 98 100 100 99 100 100 88 100 94 92 100 100 100 100 100 100 100 100 100 100
100 100 100 100 100 99 100 100 100 100 100 100 100 99 100 100 98 98 85 79 84 98 97 100 100 100 100 96 95 100 98 97 98 95 100 100 100 100 100 100 100 100 100
100 100 100 100 100 100 95 97 99 100 98 98 95 97 100 94 88 90 80 70 95 100 100 100 98 98 100 100 100 100 100 100 100 100 100 100 100 100 100 100 100 100 100
100 100 100 100 100 100 100 100 100 100 100 100 100 100 100 90 90 81 95 96 100 97 91 96 99 100 100 100 100 100 100 100 100 100 100 100 100 100 100 100 100 100 99
100 100 100 100 100 100 100 100 100 100 100 100 98 97 94 82 74 92 93 94 93 100 100 100 100 100 100 98 85 88 92 100 100 100 100 100 100 100 100 100 100 100 100
80 100 100 100 100 100 100 100 100 96 92 92 97 84 72 87 100 100 100 100 100 100 100 100 100 100 98 94 96 95 94 94 99 100 94 89 90 99 100 100 100 100 100
62 97 100 100 100 100 90 76 77 82 96 95 69 66 69 81 100 100 100 100 100 100 100 100 100 100 100 85 88 92 94 100 90 86 83 82 84 86 100 100 100 100 100
100 100 100 100 89 89 89 78 71 73 62 64 61 72 99 100 100 100 100 100 100 98 83 88 78 68 69 80 85 84 79 71 62 56 69 86 79 100 100 100 100 100 100
100 100 100 100 100 100 98 92 100 100 100 100 100 100 100 100 100 98 89 83 92 92 84 74 75 67 53 43 31 27 28 31 37 46 66 87 97 100 100 100 100 100 100
100 100 100 100 100 100 100 100 100 100 100 100 100 100 100 99 97 97 84 76 85 79 75 67 57 31 23 19 18 17 19 24 28 34 44 55 61 72 72 81 82 85 91
100 100 100 100 100 100 100 100 100 100 99 98 95 95 100 99 87 80 83 79 74 65 49 42 38 31 23 16 12 10 11 21 35 39 43 51 54 50 54 71 81 85 91
100 100 100 100 100 100 100 100 100 100 100 100 100 98 96 94 94 80 75 65 50 46 39 42 36 26 15 9 9 8 12 22 35 43 50 43 49 65 86 94 92 94 88
90 95 96 99 100 100 100 100 100 100 98 98 97 99 95 84 73 65 58 50 47 40 44 38 31 34 32 19 14 14 17 26 44 61 61 72 74 77 84 88 82 75 76
81 80 85 95 93 95 92 93 99 95 91 87 88 85 74 61 55 59 58 43 42 47 42 38 45 40 40 38 31 31 39 49 65 68 64 62 66 67 65 69 75 80 86
93 94 92 91 83 78 80 88 85 77 68 58 55 54 53 54 61 53 46 42 50 53 45 43 55 59 59 52 46 47 53 62 63 67 67 65 68 70 72 79 79 73 70
94 96 97 98 100 91 81 73 67 62 64 64 67 72 70 50 48 50 49 50 54 59 55 62 71 70 70 69 69 69 70 69 68 67 70 75 76 75 74 75 78 81 83
100 97 86 84 75 73 67 64 66 77 82 76 75 59 53 54 59 56 50 52 54 69 65 70 80 74 72 73 76 78 76 78 82 83 85 87 90 94 98 100 97 94 90
100 94 93 89 79 78 82 84 85 79 67 56 55 60 61 65 65 63 52 50 58 67 73 84 81 76 81 86 92 98 100 98 95 93 94 94 92 89 84 80 78 73 68
94 98 92 96 95 95 88 66 52 53 58 66 72 79 88 70 66 60 54 55 63 70 81 83 81 81 89 90 87 88 92 91 88 87 85 82 80 72 66 60 57 59 60
92 100 100 100 85 66 59 61 64 72 72 75 89 99 97 71 63 57 64 69 70 81 85 85 86 92 87 90 98 100 92 86 82 80 81 79 74 68 59 56 61 61 49
100 99 89 82 77 81 81 78 74 71 68 66 73 94 86 77 65 67 70 72 77 85 91 87 92 94 94 98 100 94 89 86 81 78 78 74 66 55 55 57 60 48 38
86 81 96 100 91 78 74 68 61 55 54 62 76 83 83 82 72 70 73 76 84 92 92 97 100 100 100 99 96 91 88 86 82 82 78 67 60 57 58 58 44 35 60

GFSMW_250_rhum_078.txt.gz
RH
100 98 78 60 55 54 52 58 60 67 77 82 75 91 98 97 95 74 64 66 66 63 57 78 86 74 74 74 65 65 73 75 70 71 88 100 100 100 97 100 94 85 85
93 100 100 89 78 79 74 67 71 69 73 78 91 100 97 94 84 76 72 72 74 82 94 90 92 96 82 77 72 72 72 74 72 88 100 100 100 100 100 100 97 91 89
87 92 100 100 100 98 89 88 88 89 88 93 97 95 93 92 88 80 80 79 79 84 92 98 100 96 84 82 79 78 78 83 92 100 100 100 99 100 100 98 96 89 96
71 98 100 100 100 100 100 100 100 94 97 96 99 90 83 94 91 80 75 76 77 93 94 100 96 92 87 88 81 83 94 100 100 100 100 100 100 97 100 99 94 87 84
72 63 88 100 100 100 100 100 98 98 94 98 97 96 96 93 86 90 85 85 83 86 100 100 100 94 94 92 95 97 100 100 100 100 100 100 100 99 92 100 99 92 100
96 84 68 74 90 89 95 97 97 96 94 98 96 95 91 99 94 92 83 88 97 95 98 97 98 100 98 90 100 100 100 100 100 100 100 97 75 82 96 90 93 100 100
100 100 89 81 76 92 100 98 97 94 94 94 95 93 86 90 92 91 99 88 84 100 97 89 94 86 83 77 100 100 100 100 100 100 88 85 93 97 96 97 98 100 100
100 100 100 100 99 96 91 89 90 97 97 99 100 100 90 83 96 92 94 99 91 91 95 90 86 72 69 65 86 90 93 87 83 79 82 77 81 98 99 100 100 100 100
100 100 100 100 100 100 96 98 100 100 100 100 100 100 100 96 96 92 92 97 90 93 91 85 72 74 100 100 100 88 84 90 87 83 85 85 91 100 100 100 100 100 100
100 100 100 100 100 100 100 100 100 100 99 100 100 98 89 88 90 84 83 90 90 85 92 79 78 77 85 90 94 94 90 76 56 50 56 68 84 93 99 99 97 90 84
26 67 100 100 100 100 100 100 100 100 100 100 96 94 98 93 98 90 95 90 90 92 70 69 79 95 100 96 92 74 66 62 60 55 60 63 56 55 51 54 60 72 75
29 36 44 76 100 100 100 100 100 100 100 100 100 100 100 100 100 87 90 95 77 68 70 89 91 100 100 77 71 70 67 78 58 32 21 24 25 27 31 37 40 49 66
20 30 38 44 54 83 98 100 100 100 100 100 100 99 100 94 75 71 66 63 77 85 95 100 100 95 90 81 68 89 73 30 23 19 15 13 17 22 37 44 48 51 53
17 18 26 35 40 44 45 54 63 78 78 81 96 86 86 78 78 85 78 98 97 100 100 100 99 88 76 81 79 49 34 32 19 10 10 10 11 15 27 47 63 65 56
22 25 44 90 94 92 86 95 94 93 94 94 88 90 95 86 96 97 95 99 100 100 100 88 94 82 79 72 41 40 36 25 16 10 10 13 19 30 44 57 55 58 60
36 47 59 100 100 100 100 100 100 100 100 96 94 99 100 100 100 100 100 100 97 100 100 92 81 75 48 39 43 41 35 29 24 21 23 32 41 52 62 72 70 76 75
52 61 70 91 99 100 100 100 100 100 100 100 100 100 100 100 100 100 100 100 98 89 84 74 49 48 39 43 47 38 32 35 32 33 37 39 45 46 49 54 57 58 63
58 58 65 70 92 100 100 100 100 100 100 100 100 100 100 100 100 99 94 88 85 79 57 48 48 41 46 49 45 38 40 41 40 43 51 57 59 61 62 64 67 68 69
94 79 84 80 72 78 100 100 100 100 100 100 100 100 96 97 88 83 75 68 61 59 59 47 42 45 54 49 48 50 52 55 54 52 56 61 58 60 60 64 65 67 68
95 88 93 100 99 85 80 77 86 92 90 87 88 87 82 76 61 58 60 66 66 50 42 44 46 52 57 55 54 58 56 56 57 57 61 64 64 67 70 70 71 75 77
99 100 95 86 84 76 86 93 83 72 78 86 86 76 64 60 61 74 71 52 46 57 52 50 50 53 61 66 65 66 70 71 74 72 70 70 73 74 75 78 83 84 80
100 99 98 94 94 99 99 93 95 94 81 73 68 71 75 85 78 56 52 62 65 60 54 54 57 60 68 74 74 76 76 78 80 74 70 73 82 93 96 93 87 79 68
97 95 97 100 100 100 100 100 88 82 79 83 95 93 71 57 55 62 70 76 72 58 58 58 63 70 76 83 79 78 80 83 78 79 86 91 94 92 86 77 68 66 64
100 100 100 100 100 98 87 88 95 100 97 78 61 56 61 61 69 77 85 85 79 58 59 66 71 79 88 85 80 79 82 85 82 85 82 83 86 84 74 66 63 63 64
89 94 91 89 87 88 97 98 90 74 63 59 61 65 62 58 60 66 82 87 84 62 69 74 81 81 88 82 85 89 86 77 75 76 80 82 76 69 67 61 62 64 62
84 80 84 91 98 99 94 81 77 69 66 60 53 52 51 52 60 77 80 84 80 77 79 81 84 84 83 90 91 85 77 76 78 78 79 74 74 72 64 58 64 67 60

GFSMW_250_rhum_081.txt.gz
RH
60 59 61 63 64 75 66 62 52 47 53 55 54 49 50 48 44 46 56 64 75 75 82 91 95 82 71 58 55 58 65 71 81 83 87 88 88 86 84 97 100 100 100
80 88 60 53 54 64 70 64 61 52 51 52 56 58 58 57 63 66 66 72 81 85 86 87 87 83 78 74 72 70 79 87 92 92 89 94 90 86 99 100 100 100 100
77 93 100 79 59 56 62 61 60 62 58 60 68 77 80 73 72 72 79 80 93 99 98 89 84 84 76 78 80 88 97 96 100 88 85 89 89 86 100 100 100 100 100
61 73 90 100 99 94 98 94 77 68 68 66 63 65 72 77 80 87 99 100 99 100 96 98 92 85 83 86 86 97 100 100 96 90 92 92 81 92 100 100 100 100 100
66 63 74 91 100 100 100 100 94 94 83 83 96 95 90 94 99 95 94 100 100 100 100 100 96 90 97 93 99 90 98 100 98 95 99 87 84 96 100 100 98 94 88
77 60 70 90 98 100 100 100 100 89 96 98 100 100 100 99 96 99 98 97 100 88 98 83 93 95 100 98 98 100 100 98 95 100 92 72 91 94 82 75 86 97 93
100 100 75 70 82 85 88 100 100 100 100 97 94 97 100 100 100 100 90 86 90 92 93 91 97 91 90 96 97 94 89 80 88 66 66 80 92 83 92 89 78 84 91
100 100 99 90 81 91 96 97 97 100 100 100 100 100 100 100 100 100 100 100 100 100 100 99 100 99 92 91 74 70 65 61 61 66 56 68 72 76 64 58 60 70 75
100 100 100 100 98 94 92 94 99 100 100 100 100 100 100 100 100 99 100 100 100 100 100 99 100 86 88 74 77 72 66 63 58 48 49 52 51 51 52 57 54 43 38
14 73 100 100 100 100 100 99 93 92 96 100 100 100 99 96 95 91 91 96 95 91 99 88 88 76 85 83 81 68 64 53 50 58 63 54 55 55 48 40 25 24 27
12 14 17 99 100 100 100 100 100 96 91 93 98 98 94 93 94 95 84 96 91 89 88 80 89 94 82 71 60 52 52 53 55 64 87 73 61 41 27 22 21 23 22
12 13 14 15 49 100 100 100 100 100 100 100 100 100 98 96 94 100 87 99 90 92 98 95 95 77 63 63 60 64 72 56 83 96 78 80 42 24 23 17 8 9 11
12 12 13 15 17 19 78 100 100 100 100 100 100 100 100 100 100 100 98 96 100 100 100 88 73 61 64 70 73 82 66 84 82 92 86 40 37 35 28 16 9 10 14
13 12 13 14 16 18 18 34 74 93 100 100 100 100 100 100 100 100 100 100 100 93 68 66 74 81 94 95 89 87 85 94 87 75 45 43 42 37 27 21 21 24 26
14 14 14 15 16 17 19 22 27 35 51 71 84 91 100 100 100 100 100 87 77 87 95 96 84 87 100 91 99 92 90 86 76 46 46 48 42 39 31 27 30 40 43
16 16 16 16 16 17 24 37 44 50 58 66 66 67 82 92 90 73 73 82 98 96 100 88 99 100 98 100 100 89 86 60 48 48 52 45 43 42 34 31 34 39 44
18 17 17 17 17 18 24 49 74 63 62 60 63 67 71 84 92 91 93 100 100 96 95 100 100 100 100 91 82 63 56 49 44 55 46 45 46 45 42 40 42 47 52
19 19 19 18 21 23 31 53 89 100 100 100 100 100 100 100 100 100 100 100 100 100 100 100 99 100 92 79 55 58 45 43 53 55 50 52 52 50 50 46 45 50 56
22 24 26 30 35 41 53 69 100 100 100 100 100 100 100 100 100 100 100 100 100 100 100 100 94 83 63 62 56 45 46 52 60 59 55 57 56 54 52 56 62 65 66
30 37 50 66 74 84 85 92 92 94 99 100 100 100 100 100 100 100 100 100 97 92 85 78 68 70 64 49 46 47 47 51 59 62 61 64 64 65 69 66 63 62 60
54 62 83 89 90 84 90 91 94 93 86 96 100 100 100 100 98 97 92 84 78 78 68 78 76 59 54 51 51 49 51 62 65 67 71 75 73 72 65 67 67 63 59
77 82 86 96 99 100 100 86 85 98 100 84 73 71 78 88 88 87 78 70 65 83 89 66 54 64 60 56 54 56 65 65 66 76 79 74 71 64 68 70 65 61 60
94 92 94 93 84 81 92 97 96 86 75 81 90 91 97 88 82 74 80 88 87 71 54 55 76 79 69 57 61 66 68 69 79 81 80 76 70 71 75 70 65 62 59
99 98 99 99 99 99 100 98 92 92 94 98 100 98 89 85 95 94 80 63 59 60 62 74 82 88 74 66 70 71 75 82 83 86 82 74 74 72 68 65 62 59 58
100 100 100 100 100 100 99 100 100 100 100 98 88 96 95 80 66 57 56 63 59 58 61 72 83 90 79 73 76 81 86 89 90 81 75 75 67 64 66 63 60 60 60
100 99 99 100 99 99 98 100 96 90 90 99 99 83 70 58 53 51 52 52 52 57 74 79 84 85 88 90 91 94 96 96 84 81 75 66 67 67 63 62 64 64 58

GFSMW_250_rhum_084.txt.gz
RH
100 87 69 73 78 59 69 87 92 100 92 89 90 89 84 84 84 82 82 68 56 52 53 64 55 53 66 78 80 82 86 84 76 80 76 79 98 92 86 96 95 93 90
78 98 82 63 72 70 62 71 85 86 93 90 89 88 89 80 84 76 71 73 69 63 60 55 61 72 76 75 86 97 89 90 83 82 79 97 93 92 91 86 89 92 91
45 70 86 80 71 78 79 71 67 76 82 89 91 93 96 93 89 78 72 65 62 60 72 86 85 83 77 87 91 100 100 92 90 84 92 90 98 92 87 79 76 80 98
38 45 71 88 78 73 83 84 78 70 71 72 77 75 78 77 83 79 78 81 76 74 78 72 73 77 89 97 100 100 100 100 100 95 95 97 92 84 78 85 84 95 77
23 36 49 71 99 100 90 90 92 78 72 66 67 72 80 82 87 91 86 81 79 99 96 100 99 100 100 100 100 100 100 100 100 100 100 95 82 73 72 79 88 72 65
15 23 39 54 65 88 99 94 91 100 84 69 62 57 61 81 93 94 90 90 95 99 100 100 100 100 100 100 100 100 100 100 100 100 97 90 76 74 67 61 67 55 54
17 16 32 45 52 63 77 93 100 98 97 92 82 71 65 64 74 94 100 100 100 100 100 100 100 100 100 100 100 100 100 100 100 99 87 73 75 64 49 47 46 49 58
19 20 22 32 48 54 60 72 84 100 100 100 100 100 100 99 99 100 100 100 100 100 100 100 100 100 100 100 100 100 99 92 95 81 73 65 64 43 49 46 52 57 51
29 26 46 46 44 38 49 60 72 81 84 84 98 100 100 100 100 100 100 100 100 100 100 100 100 100 100 94 88 83 80 78 81 65 62 71 44 47 46 55 56 58 51
14 24 68 60 59 52 45 42 55 67 67 65 69 83 97 100 100 100 100 100 100 100 100 100 100 100 96 90 87 90 83 73 66 74 71 39 47 46 67 63 74 69 47
14 13 14 77 96 73 68 57 52 49 48 56 64 69 77 83 89 98 100 100 100 100 100 100 100 100 93 96 92 90 81 78 78 68 42 48 54 63 84 88 88 66 33
14 14 13 13 17 100 100 99 95 78 63 54 55 62 67 71 78 84 88 88 87 89 90 85 88 90 97 99 96 86 72 86 67 46 50 57 60 85 96 90 64 42 40
12 12 13 13 12 12 38 100 100 100 100 93 83 73 76 74 80 83 83 77 87 82 86 91 90 83 100 95 90 90 91 66 51 61 68 77 81 95 86 54 43 48 43
13 12 12 13 13 12 12 14 26 83 100 100 100 97 90 87 91 91 98 98 96 95 100 94 100 100 98 88 95 85 58 63 84 78 83 86 89 91 57 42 47 50 46
13 12 12 13 14 13 13 14 15 15 17 49 93 100 100 100 100 100 100 100 100 100 100 100 100 96 92 88 69 62 78 83 89 99 93 78 84 51 47 46 61 51 51
14 13 12 12 13 14 13 14 15 16 16 17 18 20 21 22 28 42 54 78 90 73 85 83 89 100 80 67 69 100 92 100 100 88 82 81 48 43 43 62 60 56 59
14 13 13 13 14 15 15 15 16 17 18 19 22 28 29 32 42 57 71 82 88 85 85 83 83 86 81 100 100 100 100 100 92 88 67 55 48 44 58 66 64 65 66
16 14 14 16 17 17 17 17 18 18 20 21 26 36 52 70 68 76 92 86 78 79 93 100 100 100 100 100 100 100 94 94 80 63 62 48 47 48 59 67 68 74 71
17 18 18 19 18 18 19 19 19 21 28 42 42 53 62 64 66 65 96 94 98 100 100 100 100 100 100 100 100 93 93 80 65 64 50 50 50 56 64 72 75 74 70
21 22 20 20 22 22 22 22 24 28 36 48 95 100 83 100 92 100 100 100 100 100 100 100 100 100 100 100 94 81 79 79 59 50 52 50 55 67 71 76 81 81 72
24 26 24 24 25 31 33 36 44 49 54 63 80 100 100 100 100 100 100 100 100 100 100 93 92 96 89 91 80 78 81 60 61 57 53 56 68 70 70 82 86 75 68
38 37 34 39 47 58 53 68 75 88 90 94 98 100 100 100 100 100 100 100 100 100 91 92 94 90 78 81 90 64 60 78 75 58 63 71 70 76 89 91 82 75 64
56 52 54 62 64 77 85 90 90 89 100 99 98 100 97 93 89 91 95 88 83 88 83 87 68 82 84 63 56 65 79 90 78 71 74 72 76 91 92 87 80 68 60
67 64 74 77 84 84 82 83 85 85 92 94 94 88 85 83 85 89 100 97 81 76 72 85 82 62 58 62 64 64 84 93 92 87 76 83 98 99 92 82 72 64 60
89 90 94 94 93 93 96 100 95 97 99 98 95 93 99 99 94 93 81 80 86 78 67 57 57 64 64 60 61 79 87 98 94 81 93 100 100 91 83 76 66 64 62
94 95 97 98 100 100 100 100 100 100 99 100 100 100 100 91 86 91 97 82 71 60 55 52 53 53 53 59 76 89 95 90 94 100 100 98 91 85 79 71 63 63 64

GFSMW_250_rhum_087.txt.gz
RH
65 70 100 100 99 71 93 100 94 99 100 100 100 100 96 92 100 100 100 100 100 100 100 96 96 89 68 65 52 58 50 60 74 77 74 88 96 100 100 100 92 93 88
53 67 74 100 100 100 84 92 85 76 95 100 100 100 98 100 100 100 100 100 100 98 100 100 92 83 88 70 68 64 65 73 74 85 96 100 100 100 100 98 100 88 77
25 58 70 78 100 100 100 96 92 73 84 89 95 100 100 96 93 95 94 100 99 94 92 95 95 86 86 87 84 83 85 86 92 100 100 100 100 100 100 100 88 84 71
16 31 72 79 78 94 100 100 100 84 90 100 97 94 90 99 93 91 98 97 97 100 100 100 100 94 86 91 96 99 96 100 100 100 100 100 100 100 100 94 85 74 70
16 16 37 67 76 83 82 100 100 100 93 99 100 100 94 92 100 100 100 100 100 100 100 100 100 100 90 99 100 100 100 100 100 100 100 100 100 98 90 78 88 72 68
16 15 16 34 58 68 83 78 95 100 100 100 93 100 96 87 88 96 99 98 99 100 100 100 100 100 100 100 100 100 100 100 100 99 100 100 98 93 83 84 77 74 75
16 16 17 17 24 44 57 77 83 88 99 100 100 100 100 100 100 100 100 100 100 100 100 100 100 100 100 100 100 100 100 100 100 100 100 100 92 90 87 75 67 72 62
28 17 16 16 18 20 35 56 65 81 90 94 99 100 100 100 100 100 100 100 100 100 100 100 100 100 100 100 100 100 100 100 100 100 100 98 90 88 80 68 70 71 53
18 19 16 16 17 18 18 24 43 59 69 79 84 88 91 96 100 100 100 100 100 100 100 100 100 100 100 100 100 100 100 100 99 97 95 94 91 80 83 88 74 56 48
16 16 17 16 15 15 17 17 18 29 42 51 60 71 80 86 92 95 100 100 100 100 100 100 100 100 100 100 100 99 96 83 89 86 81 74 80 86 87 88 62 50 46
16 16 15 16 15 14 15 15 16 16 16 20 31 43 55 67 77 82 89 89 90 93 98 100 99 98 92 92 88 84 83 84 76 86 81 78 89 89 89 67 53 59 75
15 15 15 15 16 16 15 16 14 14 16 16 16 18 28 43 55 65 71 75 77 76 79 87 92 85 87 90 88 88 88 87 96 87 92 91 85 89 72 58 67 75 97
17 15 14 15 16 16 16 18 15 15 14 14 15 16 19 23 29 43 53 63 65 67 67 77 84 78 91 92 96 99 100 100 100 99 92 84 88 69 66 72 89 91 79
18 16 14 14 14 16 16 16 16 21 23 29 30 24 20 29 27 32 40 53 66 77 78 78 88 98 98 94 100 100 100 100 100 99 77 94 72 72 85 93 100 80 49
17 16 15 13 13 14 14 15 15 14 16 27 55 61 53 53 54 61 65 65 73 87 98 100 99 99 99 100 100 100 100 83 72 84 94 72 79 93 94 100 82 53 48
16 16 15 14 13 12 12 12 14 14 15 14 14 17 46 99 100 100 100 100 100 100 100 100 100 100 100 100 78 60 50 78 95 82 82 92 100 100 97 76 59 60 48
17 15 14 14 13 13 12 12 12 13 14 14 14 14 14 14 15 17 39 72 85 89 97 98 90 65 61 55 59 90 85 80 85 97 100 100 100 92 78 63 58 48 52
17 16 15 14 13 13 13 13 13 13 13 14 15 16 16 16 16 16 19 23 28 37 46 58 75 78 67 92 96 77 85 99 100 100 100 99 91 84 75 62 53 56 56
19 18 18 17 16 15 15 14 14 15 16 16 17 18 18 19 20 28 47 38 54 63 68 76 78 86 75 72 88 100 100 100 100 100 94 94 80 77 71 63 64 60 66
22 20 21 21 20 18 16 16 16 17 18 18 19 20 21 24 25 38 43 44 60 76 84 71 74 98 100 100 100 100 100 100 97 87 90 84 93 64 72 78 64 73 78
32 25 23 23 23 22 20 19 18 19 19 20 21 22 25 30 43 47 58 78 99 78 98 97 100 100 100 100 100 100 100 96 82 87 84 89 60 75 84 82 86 82 82
44 35 27 24 24 23 22 22 22 24 26 28 27 26 34 48 68 76 100 100 100 100 100 100 100 100 100 99 98 92 87 90 91 94 70 65 69 72 95 99 99 95 93
57 53 43 31 27 30 31 31 41 40 44 54 61 72 82 85 92 100 100 100 100 100 100 100 100 100 95 90 87 86 81 94 68 61 68 68 68 85 100 100 100 94 97
72 72 60 50 47 41 54 58 71 67 76 76 85 100 100 100 100 100 100 100 100 98 93 92 93 96 87 76 87 75 63 56 63 68 63 61 82 98 100 99 99 100 89
86 83 87 72 62 65 70 83 82 89 100 94 97 96 98 100 100 97 97 97 92 95 99 96 89 77 78 70 62 56 53 55 59 58 62 78 97 100 100 98 100 89 83
94 95 94 89 84 87 87 85 86 88 93 92 98 100 99 100 100 99 99 100 100 97 85 83 86 75 64 57 61 67 66 64 66 72 84 100 100 100 98 97 89 82 80

GFSMW_250_rhum_090.txt.gz
RH
36 65 76 100 100 100 100 74 94 100 100 100 100 100 100 100 100 100 100 100 100 100 100 100 100 100 100 100 100 100 92 85 77 74 68 82 84 80 85 99 97 99 91
16 38 62 74 100 100 100 100 86 90 90 90 95 89 100 100 100 100 100 100 98 98 100 98 100 100 100 100 100 100 91 82 71 68 86 91 90 90 99 100 100 95 90
15 17 36 54 91 100 100 100 100 87 74 91 100 100 100 100 100 100 100 100 100 100 100 100 100 100 100 100 100 98 79 68 77 84 89 99 100 100 100 100 99 94 91
13 15 18 35 56 95 100 100 100 100 99 95 100 100 100 100 100 100 100 100 100 100 100 100 100 100 100 100 99 84 72 74 83 92 98 100 100 100 100 100 100 96 92
18 12 14 20 29 57 95 100 100 95 100 100 94 97 100 100 100 100 100 100 100 100 100 100 100 100 100 92 70 67 85 89 91 100 100 100 100 100 100 100 100 99 88
20 18 12 16 20 24 50 88 100 100 100 100 100 100 100 100 100 100 100 100 100 100 100 100 100 100 92 94 93 98 100 100 100 100 100 100 100 100 100 100 99 93 99
19 17 12 10 15 20 22 46 71 100 100 100 100 100 100 100 100 100 100 100 100 98 96 100 100 100 100 100 100 100 100 100 100 100 100 100 100 100 100 98 97 93 82
21 21 19 14 12 15 20 20 36 65 100 100 100 100 100 100 100 100 99 99 100 96 91 95 100 100 100 100 100 100 100 100 100 100 100 100 100 100 100 97 92 90 84
23 22 18 22 15 12 14 18 21 29 65 85 98 100 100 100 100 100 100 100 100 100 100 100 100 100 100 100 100 100 100 100 100 100 100 100 100 100 100 100 86 82 92
22 23 25 18 19 16 15 14 16 19 27 58 75 80 94 100 100 100 100 100 100 100 100 100 100 100 100 100 100 100 100 100 100 100 100 100 100 100 98 95 89 94 89
21 24 27 29 21 19 18 18 16 16 17 18 30 61 74 80 89 94 100 100 100 100 100 100 100 100 100 100 100 100 100 100 100 96 100 95 83 89 95 93 93 100 98
24 23 24 24 23 23 21 18 16 16 16 15 17 18 26 42 55 66 70 74 77 84 88 96 95 91 89 87 85 88 89 83 81 75 77 76 87 100 96 98 100 100 99
23 24 23 22 22 21 20 18 16 16 17 16 15 15 15 16 18 21 27 35 42 48 51 49 43 36 36 40 50 56 68 63 82 68 94 100 100 100 100 100 91 94 98
25 23 22 21 19 18 17 16 15 15 15 16 15 14 14 13 14 15 16 16 17 18 19 19 19 20 31 48 57 64 77 94 94 100 100 100 100 100 100 89 98 92 79
27 24 23 22 21 19 17 16 16 16 15 14 15 15 15 15 14 14 14 15 15 16 18 20 29 43 54 69 92 100 100 100 100 100 100 100 100 97 94 100 90 85 91
27 24 22 22 20 18 17 16 15 14 13 13 13 14 14 14 15 16 16 21 22 27 36 50 87 100 100 100 100 100 100 100 100 100 100 100 100 100 100 94 83 95 96
23 20 20 22 21 19 17 16 14 14 13 13 13 13 14 14 14 15 20 26 32 60 78 100 100 100 100 100 100 100 100 100 100 99 87 100 98 84 95 88 98 100 87
21 18 17 17 16 16 16 15 15 14 13 13 13 13 14 15 16 15 17 17 17 24 54 64 50 68 86 84 83 74 71 69 78 72 99 90 77 86 99 100 99 80 84
21 17 18 18 17 15 15 14 15 15 15 14 13 13 14 14 15 15 17 18 18 18 18 19 19 26 37 39 54 88 84 83 96 90 93 96 100 100 100 90 86 96 84
30 26 22 21 18 17 16 15 14 15 16 16 16 15 16 16 17 18 18 18 20 20 20 24 39 89 66 62 80 100 83 74 86 99 100 100 100 100 88 94 97 88 66
43 40 31 26 25 23 21 19 19 19 19 19 18 17 18 18 19 20 21 20 21 22 23 33 46 56 78 100 85 91 90 100 98 100 100 100 96 89 92 89 84 62 65
44 51 39 30 28 26 25 23 24 25 23 21 20 21 21 21 21 21 22 22 22 31 36 59 73 88 100 98 100 100 100 100 100 98 92 89 91 82 84 64 62 66 62
64 53 53 41 35 29 25 24 25 26 25 25 24 23 24 24 24 24 27 30 38 62 86 88 100 100 100 100 100 100 99 100 83 92 92 80 73 62 58 59 60 62 75
76 73 69 53 47 41 35 30 29 27 29 30 29 30 32 38 46 56 58 72 86 100 100 100 100 100 100 100 96 92 87 89 87 78 70 59 56 57 55 57 64 83 94
69 60 69 72 65 60 52 47 44 47 48 53 55 55 67 76 81 89 95 100 100 100 100 100 100 98 93 85 86 92 83 82 70 58 60 76 80 74 79 91 99 99 99
66 78 83 74 87 83 70 75 68 68 76 86 88 87 94 100 100 100 100 100 100 100 100 99 99 97 92 91 84 82 68 64 64 63 68 78 87 94 99 98 100 95 88

GFSMW_250_rhum_093.txt.gz
RH
18 41 62 60 80 100 94 100 80 99 99 100 98 100 100 100 100 100 100 100 100 100 94 93 100 100 100 100 100 100 100 100 100 100 100 100 79 82 76 83 84 86 84
17 20 47 63 68 94 98 100 100 93 100 100 100 100 100 94 99 100 100 100 100 99 100 100 100 100 100 100 97 98 94 100 100 100 100 90 80 90 83 89 84 87 91
18 18 19 33 63 97 99 100 100 100 98 100 100 100 100 100 100 100 100 100 100 100 100 100 100 100 100 100 100 100 100 100 100 100 91 88 92 85 94 100 94 100 98
18 19 18 20 41 72 100 100 100 100 100 86 91 100 100 100 100 100 100 100 100 100 100 100 100 100 100 100 100 100 100 100 94 75 79 88 95 92 100 100 100 100 100
18 18 20 18 21 49 94 100 100 100 100 100 100 100 100 100 100 100 100 100 100 100 100 95 96 97 96 100 100 100 93 80 72 82 76 76 84 100 100 100 100 100 100
19 19 18 20 19 22 46 82 97 100 100 100 95 100 100 100 100 100 100 100 100 100 95 100 96 88 96 98 87 82 74 73 77 71 93 100 100 100 100 100 100 100 100
20 18 18 16 18 19 18 34 72 100 100 100 100 100 98 95 96 100 100 86 97 100 100 100 100 100 100 100 100 98 94 99 100 100 100 100 100 100 100 100 100 100 100
23 21 16 14 15 17 19 17 18 32 79 100 100 100 100 99 97 93 100 93 96 100 100 100 100 100 100 100 100 100 100 100 100 100 100 100 100 100 100 100 100 100 99
21 23 23 21 15 16 18 19 18 18 21 44 99 100 100 100 96 100 100 100 100 100 100 100 100 100 100 100 100 100 100 100 100 100 100 100 100 100 100 100 100 100 97
25 24 24 24 24 17 12 14 17 18 18 19 22 50 98 100 99 97 95 98 100 100 100 100 100 100 100 100 100 100 100 100 100 100 100 100 100 100 100 100 100 89 97
26 25 25 25 23 23 19 15 12 14 18 20 19 19 21 38 81 95 99 94 99 100 100 100 100 100 100 100 100 100 100 100 100 100 100 100 94 88 96 100 89 98 100
25 30 28 27 26 25 24 23 19 16 12 13 17 19 20 20 22 24 45 86 100 100 97 100 100 100 100 100 100 100 100 100 100 100 91 75 72 83 83 96 99 100 100
23 25 25 26 26 26 25 24 23 20 17 15 13 13 17 19 20 22 21 23 26 35 59 88 99 100 100 100 100 100 97 86 65 54 43 44 65 81 96 100 100 100 100
23 24 23 23 23 24 25 25 23 23 20 19 17 15 14 14 15 17 19 21 23 22 23 26 33 40 47 54 54 48 34 29 29 31 47 70 79 88 100 100 100 100 100
24 27 26 23 21 21 22 22 22 21 19 17 15 14 15 16 15 15 16 16 16 17 17 19 21 22 21 21 20 20 22 30 41 54 72 75 96 100 100 100 100 100 100
32 28 24 24 21 20 20 20 20 19 19 18 18 18 18 16 15 14 14 15 15 19 18 16 17 15 19 18 18 22 30 51 67 82 91 100 100 100 100 100 100 100 97
30 23 23 22 22 22 22 19 19 19 18 18 18 18 17 16 15 15 15 14 13 13 14 16 18 20 19 19 21 37 68 85 100 100 100 100 100 100 100 100 96 78 96
23 23 25 24 22 21 20 20 20 19 18 18 17 16 15 15 15 14 14 14 14 15 16 18 18 20 19 24 35 56 75 96 98 100 100 98 100 100 78 94 82 97 97
26 23 22 21 21 21 22 22 20 19 18 17 17 16 15 15 15 16 15 15 15 16 17 18 19 20 18 19 22 26 25 29 31 53 72 98 86 98 100 95 84 99 92
39 35 30 25 23 22 20 17 15 15 15 16 16 16 16 16 16 16 15 15 15 17 17 20 21 21 21 22 21 22 33 41 74 100 100 97 88 90 93 99 88 100 99
37 34 36 32 29 24 24 21 20 18 16 15 15 15 16 16 18 18 17 17 18 19 21 23 24 23 24 24 27 42 81 98 90 97 100 95 92 100 98 99 100 95 82
48 48 48 45 40 34 31 28 25 23 20 18 16 16 17 18 19 20 20 21 22 22 24 24 23 24 24 27 45 50 62 71 82 100 100 100 100 100 98 94 85 80 68
56 52 51 59 59 48 42 35 28 27 25 24 23 24 24 26 25 23 23 22 22 23 24 24 24 26 46 59 77 74 78 98 100 100 100 100 99 92 84 83 73 61 58
73 80 71 64 67 64 54 41 32 29 26 27 28 30 30 29 28 27 25 24 25 26 27 28 38 39 69 74 78 89 100 100 100 100 98 83 86 84 76 66 57 61 72
77 73 63 63 72 76 74 58 48 37 37 34 37 36 33 32 33 31 30 34 35 37 41 48 63 73 93 100 100 100 100 99 94 87 88 83 77 62 59 59 60 68 79
83 77 64 64 71 68 73 75 70 57 52 56 59 59 56 51 52 52 59 70 73 72 77 89 98 100 100 100 100 91 92 95 95 83 78 66 66 69 72 70 60 63 74

GFSMW_250_rhum_096.txt.gz
RH
17 15 16 21 36 45 84 83 95 100 100 100 100 100 95 100 100 100 100 100 100 100 100 99 88 89 90 92 95 97 97 100 100 100 100 100 100 100 100 84 79 86 88
16 17 16 17 21 34 74 96 98 100 100 100 100 100 100 100 100 97 100 100 100 100 94 100 100 100 100 100 100 100 100 100 100 100 100 100 100 100 85 79 86 85 87
15 18 17 16 16 17 70 90 100 100 94 100 100 100 99 100 100 100 100 100 100 100 100 100 100 100 100 100 100 100 100 100 100 100 100 100 97 79 93 83 82 87 93
18 18 18 17 18 16 45 58 100 100 100 100 100 100 100 100 100 100 100 100 100 100 100 100 100 100 100 100 100 99 94 98 100 100 100 98 92 100 92 97 96 88 98
20 21 21 19 19 18 18 35 89 100 100 100 100 100 100 100 100 100 100 100 100 100 100 100 98 82 89 100 99 99 100 99 86 97 98 89 96 92 100 99 100 100 100
20 22 24 21 21 19 18 18 58 99 100 100 100 100 100 100 100 100 100 100 100 100 100 100 100 95 82 79 78 86 100 98 94 99 95 84 76 75 93 100 100 100 100
21 21 21 20 19 19 19 19 32 73 99 100 100 100 100 100 100 100 100 100 100 100 100 100 100 100 98 76 61 79 78 80 75 81 79 92 100 100 100 100 100 100 100
23 23 22 19 19 18 17 17 22 44 75 97 100 100 100 100 100 100 100 100 100 100 100 100 100 100 100 100 98 86 87 89 96 96 100 100 100 100 100 100 100 100 100
23 22 25 22 19 20 20 21 20 21 36 84 100 100 100 100 100 100 100 100 89 100 100 100 99 100 99 100 100 100 100 100 100 100 100 100 100 100 100 100 100 100 100
24 26 26 27 21 18 23 27 21 22 22 22 31 84 100 100 100 100 100 100 100 100 100 100 100 100 100 100 100 100 100 100 100 100 100 100 100 100 100 100 100 100 100
25 24 26 29 26 22 22 22 25 24 23 20 21 22 50 99 100 100 100 100 100 100 100 100 100 100 100 100 100 100 100 100 100 100 100 100 100 100 100 100 100 100 96
27 26 25 26 26 26 19 19 22 23 23 23 21 20 22 23 31 69 100 100 100 100 100 100 100 100 100 100 100 100 100 100 100 100 100 100 100 100 100 100 100 78 54
28 33 29 25 26 28 28 24 19 18 19 20 22 23 22 20 21 22 23 25 36 49 60 78 91 98 100 100 100 100 100 100 100 100 100 100 100 97 84 61 41 42 91
26 28 30 33 30 26 26 29 28 24 20 18 18 19 20 20 21 20 20 20 20 21 21 23 26 32 40 58 72 78 87 82 71 54 48 44 42 44 38 32 48 73 74
29 28 30 30 29 29 27 26 26 26 23 20 19 17 17 16 17 17 18 19 20 20 19 20 20 20 21 24 25 27 28 30 33 41 36 33 52 49 70 42 67 74 92
29 28 27 26 26 27 27 25 23 22 22 20 18 17 16 14 15 14 14 14 14 16 17 19 20 20 23 26 26 26 26 24 22 23 41 49 66 54 98 50 86 100 100
26 24 23 22 22 21 22 22 22 21 20 19 18 16 16 14 13 13 12 14 16 17 18 18 19 20 19 19 19 19 21 20 24 34 49 76 77 30 29 64 86 100 100
25 21 20 20 19 19 19 20 20 20 20 20 19 18 16 14 13 13 13 14 14 16 16 18 18 17 17 18 18 17 18 20 28 28 26 22 23 36 56 44 62 83 98
24 20 20 18 19 19 20 21 21 21 20 19 18 18 17 16 15 15 16 17 17 17 16 16 16 16 17 17 16 17 18 21 21 20 20 22 22 24 39 53 75 82 79
22 19 21 22 22 23 23 21 21 20 19 17 16 16 16 16 16 16 16 16 17 18 18 18 17 18 19 18 17 17 20 22 21 23 23 23 25 34 53 72 100 86 92
27 26 26 24 24 24 25 25 23 23 22 19 18 16 16 15 15 15 16 18 18 18 18 18 18 18 19 20 18 19 21 24 24 22 26 34 40 58 61 75 93 99 97
29 35 38 38 37 38 37 32 26 27 24 23 20 18 16 15 15 15 16 17 18 19 20 20 19 20 20 21 20 20 23 24 25 31 39 53 58 72 88 96 98 100 100
51 51 50 54 62 57 45 47 43 36 35 28 24 22 20 20 20 19 18 18 18 20 21 22 22 23 23 24 24 25 26 28 34 42 62 71 79 91 100 100 100 100 86
50 58 62 69 67 59 58 62 58 45 42 39 35 29 28 26 25 24 25 25 24 23 25 26 26 26 27 26 27 32 33 42 62 76 88 85 100 100 100 100 89 75 74
51 61 67 68 67 71 73 72 67 55 51 47 44 39 33 31 31 31 31 32 32 30 28 28 27 28 31 33 41 48 67 84 88 84 100 100 100 100 81 87 79 73 68
72 73 74 73 71 69 70 64 68 67 62 59 57 50 45 39 46 49 46 44 46 44 43 40 43 53 53 50 67 68 76 84 100 100 100 100 82 92 94 78 79 72 67

GFSMW_250_rhum_099.txt.gz
RH
17 18 16 16 18 55 65 56 54 63 78 100 100 100 100 97 100 100 100 100 91 82 86 76 84 100 100 98 94 87 80 81 77 79 91 100 100 100 100 100 93 81 82
15 16 17 15 16 26 56 57 52 67 73 98 100 100 100 100 96 84 83 95 95 96 96 97 98 100 96 100 100 100 100 100 100 100 100 100 100 100 93 89 96 88 76
15 16 17 16 16 16 23 43 51 56 67 86 100 100 100 100 100 100 100 100 100 100 100 100 100 100 100 100 100 100 100 100 100 100 100 94 92 100 100 95 82 76 75
17 17 19 17 17 16 17 20 38 50 61 72 100 100 100 100 100 100 100 100 100 100 100 99 100 100 99 100 100 100 99 95 99 91 76 87 95 94 92 100 82 75 85
16 18 19 18 17 17 19 17 20 37 55 74 100 100 100 100 100 100 100 100 100 100 100 87 100 99 87 75 72 75 76 86 82 87 75 88 88 95 82 97 100 97 88
19 18 21 20 19 18 20 19 17 20 35 93 100 100 100 100 100 100 100 100 100 100 100 100 100 97 100 93 93 81 67 64 75 75 72 81 78 78 87 96 91 83 100
20 20 19 19 20 21 20 19 18 20 34 100 81 100 100 100 100 100 100 100 100 100 100 100 100 100 100 100 97 100 100 82 60 65 62 71 83 91 86 93 100 100 100
19 20 20 21 18 18 17 18 20 19 24 26 76 100 94 100 100 100 100 100 100 100 100 100 100 100 100 98 96 96 100 99 86 76 65 65 65 80 95 100 100 100 100
20 19 22 22 19 19 20 22 21 20 22 21 53 62 90 100 100 100 100 98 100 100 100 100 80 96 100 100 100 89 84 98 100 100 99 96 100 100 100 100 100 100 100
22 20 22 24 22 23 26 26 21 21 20 21 21 46 50 65 99 100 100 94 100 100 100 100 82 90 95 100 100 100 100 100 100 100 100 100 100 100 100 100 100 100 100
24 22 23 25 25 29 30 27 25 23 20 19 22 26 38 50 79 99 100 100 100 100 100 100 100 100 100 100 100 100 100 100 100 100 100 100 100 100 100 100 100 100 100
26 24 25 30 28 27 26 24 27 24 24 24 22 25 24 26 32 75 98 100 100 100 100 100 100 100 100 100 100 100 100 100 100 100 100 100 100 100 100 100 100 100 100
24 23 25 29 34 32 31 26 24 26 26 25 23 26 24 25 26 28 45 98 100 100 100 100 100 100 100 100 100 100 100 99 100 100 100 100 100 100 100 100 100 100 100
27 23 26 29 31 35 34 33 29 26 23 27 34 33 32 29 27 28 27 28 43 72 91 97 96 98 97 100 100 100 100 100 100 100 100 100 100 100 99 85 84 62 40
33 33 32 33 32 32 34 36 35 33 29 26 24 28 32 32 29 28 27 25 25 25 24 25 26 27 38 47 54 75 83 90 100 98 80 67 36 35 34 37 34 36 34
33 31 30 32 34 35 34 34 36 36 34 29 27 24 24 24 24 24 24 24 24 22 22 22 22 22 23 23 24 24 25 26 28 25 24 25 26 26 28 32 31 28 26
30 31 31 30 29 29 30 32 32 31 32 31 29 25 22 21 21 21 20 20 20 20 20 20 19 19 19 20 21 22 23 24 25 25 26 27 26 24 26 24 22 25 26
30 29 29 28 26 24 24 23 22 22 21 19 20 21 21 21 20 18 17 16 16 15 14 15 15 15 17 18 20 20 21 22 23 23 23 22 22 27 26 20 20 21 21
31 30 29 28 26 25 25 25 22 21 22 22 22 21 20 18 16 15 14 14 13 13 12 12 13 14 16 17 18 19 19 20 21 21 22 23 24 21 20 18 21 21 21
31 31 31 28 26 25 23 20 20 21 20 20 20 19 18 17 16 16 15 15 14 14 14 14 14 14 15 15 16 17 18 19 19 18 19 20 21 20 22 21 23 23 28
33 31 30 24 21 19 20 22 22 20 20 19 18 18 18 17 16 16 16 16 16 15 15 16 16 16 16 17 18 18 18 19 20 20 20 21 21 22 23 24 27 46 52
33 29 23 18 20 24 26 27 24 23 23 22 20 20 21 20 19 17 16 14 14 14 14 14 15 16 16 18 19 20 21 22 21 20 22 22 24 24 29 52 64 58 73
38 30 29 32 30 29 29 30 27 27 27 26 28 29 29 24 21 20 18 17 15 15 14 14 14 14 16 18 20 21 22 22 22 24 24 26 28 36 40 55 66 73 76
33 37 39 35 32 34 34 37 44 44 42 44 38 30 29 27 25 23 20 18 18 17 17 17 18 17 18 18 19 22 24 25 27 29 31 32 39 52 64 69 76 85 98
47 47 48 53 54 50 49 50 52 57 58 49 39 36 41 38 34 28 25 24 25 26 24 24 27 28 28 28 25 25 27 27 31 40 46 49 58 76 80 89 98 100 100
65 68 67 64 60 61 66 68 73 75 69 58 57 52 49 47 43 41 34 32 32 32 34 36 35 34 36 36 34 36 36 39 46 52 61 76 87 96 99 100 100 100 88

GFSMW_250_rhum_102.txt.gz
RH
20 19 20 45 93 91 90 80 69 78 88 100 97 72 89 100 100 100 100 100 100 100 94 90 78 78 72 77 84 77 95 100 99 100 100 100 96 100 92 86 98 100 89
20 17 19 21 58 84 77 73 76 53 70 76 100 61 92 98 100 100 100 100 100 100 99 100 100 100 100 100 97 100 100 100 100 100 100 100 99 98 93 96 79 76 73
17 16 20 19 20 32 41 47 59 78 69 68 83 80 94 98 92 92 100 100 100 100 100 96 88 96 100 96 88 100 100 97 93 80 78 78 82 81 74 74 67 67 83
18 18 20 20 18 18 16 19 29 45 69 57 77 83 100 100 100 100 100 100 100 100 100 100 100 100 100 100 96 99 100 94 90 84 78 84 73 64 80 62 60 65 55
17 20 20 23 19 19 17 16 17 20 37 64 68 86 99 100 100 100 100 100 100 100 100 100 100 100 100 100 81 89 99 94 79 76 75 60 52 52 47 57 62 61 62
17 18 19 23 22 21 20 18 16 16 17 29 69 90 88 95 100 100 100 100 100 100 100 100 100 100 100 100 100 100 100 99 93 70 80 69 63 47 42 43 48 54 59
17 19 18 22 24 20 21 20 17 18 17 18 22 82 86 79 98 100 100 100 100 100 100 100 100 100 100 100 100 100 100 100 93 95 72 61 63 62 54 58 54 58 56
21 20 19 22 23 21 22 22 18 17 18 18 18 21 57 65 91 100 100 100 100 97 100 100 100 100 100 100 100 100 100 100 92 95 89 72 85 96 79 79 73 78 74
23 25 26 26 28 24 22 24 23 19 18 19 20 20 21 24 67 89 100 88 100 100 94 100 100 100 100 94 100 100 100 100 100 100 96 86 95 97 100 100 100 100 100
24 26 27 28 28 26 24 24 25 23 21 19 20 22 23 23 23 44 94 77 88 100 100 100 100 100 100 100 100 98 94 99 88 88 83 92 100 100 100 100 100 100 100
28 31 29 31 28 26 26 24 26 24 23 21 22 22 26 27 25 23 33 41 69 92 100 100 100 100 100 100 100 100 100 99 100 90 100 100 100 100 100 100 100 100 100
28 33 30 31 32 30 25 23 27 24 22 21 22 22 25 27 27 26 27 27 26 74 100 100 100 100 100 100 100 100 100 100 100 88 81 88 85 97 100 100 100 100 100
34 35 33 36 32 30 28 27 26 24 23 21 21 20 18 21 28 29 28 38 47 42 89 100 100 100 100 100 100 100 100 100 100 100 100 100 100 97 100 100 100 97 100
28 34 41 39 32 29 28 29 28 25 24 23 22 21 21 24 27 31 30 30 33 38 48 64 86 99 100 100 100 100 100 100 100 100 100 100 100 100 100 100 100 100 100
23 29 36 42 39 34 30 28 29 29 27 25 24 24 25 27 28 26 29 30 29 29 29 34 43 68 64 82 93 100 100 100 100 100 100 100 100 100 100 100 100 94 81
26 30 34 38 42 39 34 31 29 30 28 28 27 28 32 32 29 27 26 26 26 27 28 28 31 30 30 31 37 41 41 55 57 67 80 71 55 42 37 34 33 30 28
32 34 36 36 36 32 31 32 30 30 34 34 30 28 27 27 27 30 29 27 27 24 25 26 26 25 26 28 28 27 27 27 27 30 31 30 29 28 26 26 28 30 28
31 28 28 28 26 26 25 25 28 31 33 35 37 34 31 28 28 26 24 23 22 23 25 27 27 27 28 28 28 27 27 26 25 24 24 25 25 24 24 24 23 22 22
33 32 29 27 26 25 24 24 25 26 28 31 34 35 36 36 33 29 27 26 26 25 24 24 23 22 22 22 21 21 22 22 22 22 21 21 21 21 19 20 20 20 22
34 35 36 32 33 32 29 26 24 23 22 23 23 24 25 24 24 24 24 23 22 21 20 18 18 16 16 15 14 14 13 14 14 16 16 17 17 18 19 21 22 24 22
35 34 34 37 35 34 32 27 23 21 19 18 19 22 22 22 23 24 23 22 21 19 17 16 15 14 13 12 11 12 12 13 15 16 17 18 19 20 22 23 23 23 23
36 38 38 40 38 34 32 28 23 20 19 22 26 23 21 20 19 19 19 18 16 15 14 14 14 14 13 13 12 13 14 14 15 16 17 19 22 23 23 24 24 24 24
38 40 42 44 43 36 32 28 27 28 30 30 29 25 21 18 18 18 18 19 19 17 15 14 14 13 12 12 12 12 13 13 14 16 17 20 23 24 25 26 28 30 32
44 46 47 50 49 48 43 36 34 39 41 37 33 29 30 29 28 27 24 22 23 22 20 18 18 17 16 14 16 16 16 16 16 18 19 20 23 26 28 32 36 37 46
52 53 57 53 47 41 50 54 59 48 41 39 38 36 35 34 33 30 28 26 26 24 25 25 23 22 22 22 23 24 24 26 28 29 30 33 34 38 41 45 45 57 70
56 52 47 51 59 71 67 56 51 46 49 50 46 43 46 45 38 33 32 32 37 38 36 35 32 30 29 31 35 39 43 41 41 47 45 43 44 53 62 58 68 81 86

GFSMW_250_rhum_105.txt.gz
RH
39 33 58 82 100 88 72 84 88 100 100 100 96 100 99 100 100 100 100 100 100 100 100 100 92 92 89 84 80 80 84 90 100 88 93 100 100 100 100 100 86 81 90
24 38 40 58 80 79 81 87 90 81 100 89 92 98 96 100 100 100 100 100 100 100 98 96 96 96 100 100 100 99 100 100 96 90 89 80 73 55 54 64 72 68 61
25 27 26 30 34 74 97 85 100 94 81 90 97 94 100 100 94 100 100 100 100 100 97 99 100 100 100 100 100 91 81 85 92 91 71 63 65 49 61 49 50 50 59
25 31 28 25 27 36 56 83 90 100 100 85 78 87 98 89 100 100 100 100 100 100 100 100 100 100 96 100 100 100 91 81 87 88 97 91 82 86 79 56 48 47 52
25 37 29 26 26 24 35 76 75 79 85 100 82 87 100 99 100 100 100 100 100 100 100 100 100 100 100 100 72 69 69 78 73 74 78 83 83 79 73 60 45 50 52
19 32 29 28 26 26 25 27 64 81 97 93 93 100 85 81 100 100 100 100 100 100 100 100 100 100 100 99 100 94 88 85 96 90 91 90 83 72 77 73 58 57 56
20 23 28 33 30 26 27 25 27 36 59 88 80 86 100 100 90 89 100 100 99 100 93 100 100 100 100 100 100 100 100 100 100 100 100 99 98 77 80 75 74 84 68
20 23 32 44 46 28 22 24 24 24 23 29 55 52 95 100 100 100 98 81 83 91 100 100 100 100 100 82 88 100 100 100 100 100 100 100 100 99 99 96 100 96 99
30 32 28 36 43 40 26 24 25 24 22 23 21 21 27 44 62 71 97 100 99 97 100 100 100 86 87 96 91 99 100 100 100 100 100 100 100 100 100 100 100 94 100
25 28 36 41 46 39 38 32 27 26 26 24 22 20 20 20 20 20 21 37 87 100 100 100 100 100 100 93 89 83 92 98 100 100 100 100 99 100 100 99 95 87 87
30 30 35 39 37 37 37 35 29 26 28 28 24 23 21 20 21 20 20 21 22 54 96 100 100 100 100 100 100 98 85 84 90 100 98 91 96 100 100 94 94 98 98
30 34 36 43 41 36 38 38 31 30 26 26 24 24 24 24 21 22 21 21 22 23 24 55 100 90 75 95 100 100 100 100 100 100 100 100 100 100 100 100 100 100 93
31 34 39 39 37 34 33 31 33 31 29 26 24 24 25 25 20 20 22 23 24 24 23 24 26 32 27 26 28 48 80 99 100 100 100 100 100 100 100 100 100 100 100
23 28 36 41 41 37 36 37 38 35 29 26 25 24 26 24 20 20 20 24 25 25 25 24 26 28 28 29 28 30 39 66 99 100 100 100 100 100 100 100 100 100 100
23 29 36 44 46 46 47 41 38 37 35 30 28 26 27 26 24 22 22 21 22 23 24 25 27 27 26 27 28 30 31 34 53 93 100 100 100 100 100 100 100 100 100
23 27 33 35 38 44 44 41 41 37 35 32 31 29 30 28 26 24 23 23 21 21 23 25 25 24 24 24 28 30 32 34 34 40 45 54 69 98 100 100 100 100 72
20 23 26 27 29 34 39 39 37 38 39 38 36 34 32 31 28 27 26 25 25 23 22 22 23 24 24 30 35 36 34 31 32 32 31 31 30 31 36 42 41 44 44
18 20 22 23 24 28 32 36 37 37 36 35 36 37 36 34 34 30 29 29 29 28 25 24 23 23 25 27 28 28 29 29 29 28 26 28 29 32 34 35 35 34 33
21 21 22 23 24 25 26 28 30 33 36 36 38 38 36 35 34 35 34 33 32 32 31 30 31 31 30 30 29 28 26 24 25 25 24 24 24 25 26 27 27 26 25
24 29 30 28 28 32 34 38 39 39 36 33 30 29 28 28 27 28 30 32 31 29 29 30 31 32 31 31 32 31 28 27 24 22 20 18 17 17 18 18 18 17 19
23 26 28 31 32 34 36 36 38 35 33 31 30 29 28 28 29 28 30 33 31 30 31 32 32 32 28 24 22 22 21 19 16 15 15 15 14 14 13 14 15 17 18
27 27 29 34 40 42 40 39 38 33 32 33 32 30 30 30 28 28 31 28 25 24 24 26 25 24 24 23 21 19 16 15 14 13 13 13 13 13 14 15 16 16 18
26 29 32 32 31 31 33 30 34 44 37 32 31 30 27 23 24 25 24 23 21 20 20 19 18 17 17 16 16 16 15 14 13 13 12 12 13 13 14 16 16 18 19
31 35 37 36 42 51 55 57 56 50 41 35 30 31 33 37 34 27 23 21 20 18 17 16 16 17 17 17 18 18 16 15 16 16 16 16 18 20 21 22 22 24 28
43 45 45 50 58 60 58 56 53 52 50 45 41 40 51 44 35 33 30 26 25 23 21 19 21 23 25 24 22 24 24 24 24 24 24 26 27 28 29 32 37 46 44
66 68 70 76 77 71 72 72 67 62 56 54 61 58 50 43 42 40 36 30 29 28 24 23 27 31 35 35 36 36 34 34 34 30 35 39 42 39 47 57 60 68 69

GFSMW_250_rhum_108.txt.gz
RH
42 56 79 99 100 100 99 86 97 99 100 100 86 99 82 67 95 100 100 100 100 100 100 100 100 100 100 100 100 98 93 97 100 98 100 100 100 85 70 66 78 82 89
63 42 55 87 94 100 99 100 92 100 100 100 94 89 100 100 100 100 99 100 100 100 100 100 100 99 100 100 100 100 100 100 96 96 100 99 86 93 83 92 92 91 64
49 50 62 61 75 99 100 100 100 98 90 95 100 86 100 100 100 100 100 100 100 100 100 100 100 100 100 100 100 100 100 100 100 99 77 66 64 62 55 58 64 85 89
35 60 67 71 64 68 87 84 100 95 100 100 100 100 100 100 100 100 100 100 100 100 100 100 100 100 100 100 100 100 100 100 100 88 89 81 83 78 73 80 80 70 73
42 58 54 71 55 44 70 86 89 91 100 98 100 95 100 100 100 100 100 100 100 100 100 100 100 100 100 100 100 100 100 100 90 76 66 71 79 79 68 72 66 62 70
31 40 68 42 49 54 39 63 80 100 100 100 99 100 100 100 100 100 100 100 100 99 100 100 100 100 96 100 90 100 100 100 95 71 61 49 63 64 72 80 74 74 69
30 27 40 47 40 38 36 39 47 69 100 100 100 100 100 100 100 100 100 100 100 100 100 100 99 100 99 94 98 83 100 100 100 100 100 100 99 95 94 91 91 99 94
13 24 40 50 78 63 41 33 33 47 90 90 79 76 100 100 100 97 100 100 100 100 100 100 100 100 94 89 99 100 100 99 100 100 100 100 100 100 100 100 100 100 100
25 18 27 42 48 58 59 49 47 49 43 57 86 85 100 100 100 100 100 100 100 100 100 100 100 100 100 100 100 100 100 100 100 95 96 100 100 100 100 100 100 98 100
36 30 27 31 41 46 50 48 46 44 46 37 47 77 97 100 99 95 95 100 100 100 100 100 100 100 100 100 100 100 100 100 100 100 100 100 100 100 100 98 100 100 100
37 36 36 41 37 38 45 45 61 47 37 36 33 30 45 69 79 77 93 95 100 89 99 100 100 100 100 100 100 100 100 100 100 100 100 100 100 99 100 93 84 100 94
28 38 45 44 47 59 50 55 67 70 62 48 40 34 28 28 27 43 64 67 49 60 70 83 97 99 98 100 100 100 100 100 100 100 100 100 100 100 100 100 100 80 84
44 37 35 41 48 48 54 54 61 63 68 72 58 42 37 32 31 29 29 28 26 26 27 29 27 26 28 29 30 30 28 28 42 86 96 100 100 100 100 100 100 100 100
44 39 41 53 46 46 55 66 65 58 64 70 65 54 42 33 31 30 28 29 28 27 26 25 23 24 23 25 24 24 25 28 29 29 38 65 76 72 67 46 42 56 100
26 29 42 54 54 53 49 51 72 74 74 65 54 39 34 33 31 28 25 24 24 23 24 22 21 21 22 24 25 25 24 26 26 27 27 27 28 29 31 32 38 41 47
25 25 31 41 46 44 39 40 48 43 42 43 44 40 37 35 34 32 26 24 24 24 25 24 24 24 24 25 26 26 26 26 26 28 30 31 32 33 35 36 34 36 40
18 21 22 24 26 29 32 35 35 36 38 39 40 41 41 41 38 33 30 29 28 28 29 29 28 26 26 26 26 25 24 24 25 26 26 27 27 26 27 30 36 39 42
18 19 20 22 23 26 30 33 34 36 40 43 44 44 43 39 38 35 31 33 33 32 33 33 34 33 33 30 27 25 24 25 25 26 26 26 26 28 33 36 37 35 31
18 18 18 18 20 22 24 27 28 30 33 36 38 38 42 44 42 39 38 35 35 35 34 35 33 33 33 32 30 29 29 29 29 28 28 29 29 28 28 28 27 28 30
18 19 19 18 19 20 22 25 28 30 30 34 36 37 37 39 43 43 41 39 39 39 40 38 38 38 36 34 33 32 32 34 36 38 34 32 29 28 26 24 21 18 18
17 18 19 20 20 21 24 26 28 31 32 32 34 39 44 41 37 34 34 37 42 41 38 34 32 30 29 27 27 27 27 28 27 26 24 22 20 17 17 16 16 15 14
18 18 19 19 20 20 23 26 28 31 32 32 36 38 38 39 41 37 36 34 33 32 30 30 31 30 27 25 24 23 22 20 20 19 20 19 18 17 16 14 13 13 13
23 23 22 21 21 24 28 31 33 37 38 39 40 43 43 38 31 31 33 32 32 30 31 33 31 27 24 22 20 21 22 22 22 21 20 18 16 14 14 13 13 14 15
28 29 30 34 38 37 36 35 37 42 42 38 38 36 38 36 39 37 33 33 32 32 29 24 22 20 20 19 19 19 21 21 20 18 18 17 16 14 16 17 20 22 24
27 28 33 38 42 42 41 44 45 47 48 54 64 64 55 48 45 42 42 34 35 37 32 23 23 22 20 19 19 21 25 25 23 20 21 21 22 23 23 26 28 32 36
43 47 47 44 46 51 55 59 55 58 71 76 67 63 61 55 52 48 50 50 41 32 32 30 27 26 25 23 26 29 30 32 34 35 38 39 33 30 32 36 41 50 59

GFSMW_250_rhum_111.txt.gz
RH
59 91 77 100 100 100 100 100 100 100 69 90 82 83 100 100 100 100 98 100 100 100 100 100 100 100 100 100 100 100 100 100 100 100 100 100 91 85 81 73 62 59 76
36 89 74 93 100 100 100 100 100 100 97 100 100 100 100 100 100 100 100 100 100 100 100 100 100 100 100 100 100 100 95 98 100 100 100 100 100 96 90 71 76 76 71
43 66 91 89 100 100 100 95 100 100 100 100 100 100 99 100 100 100 100 100 100 98 99 100 100 100 100 100 100 100 100 100 100 100 100 100 97 94 99 99 98 88 69
55 57 86 96 100 100 99 100 99 100 100 100 100 98 100 100 100 100 100 100 90 73 75 77 99 100 100 100 100 100 100 100 100 100 100 100 93 100 98 92 91 91 78
44 57 74 99 97 98 100 100 100 100 100 100 100 87 100 100 100 100 100 100 100 100 100 98 99 100 100 100 100 100 100 100 100 100 100 91 96 91 99 96 69 58 57
55 55 55 71 96 100 100 100 100 100 100 100 100 100 100 100 99 100 100 100 100 100 100 87 79 90 100 100 100 89 90 90 86 91 98 100 99 96 80 63 48 52 74
63 40 74 70 100 99 100 100 100 100 100 100 100 100 100 100 100 100 100 100 100 100 100 100 100 100 100 100 100 90 87 89 70 80 96 98 100 100 97 93 96 100 100
56 64 81 59 100 100 100 95 98 100 100 100 100 100 100 100 100 98 97 100 100 100 100 100 100 100 89 94 94 98 81 94 95 99 100 100 100 100 79 100 100 100 100
41 61 89 94 86 100 100 98 100 100 100 100 100 100 100 100 100 100 100 94 98 95 100 100 100 100 100 100 100 100 100 100 94 100 100 100 100 100 100 100 100 97 96
52 30 49 86 90 88 83 100 99 80 88 100 100 100 100 100 100 97 90 100 100 96 89 100 100 100 100 100 99 100 100 100 100 100 100 100 100 100 100 100 100 100 92
54 37 35 56 96 92 70 68 77 85 94 82 84 97 100 100 100 100 98 100 100 100 100 100 100 100 100 100 100 100 100 100 100 100 100 100 100 100 100 100 100 100 100
68 49 33 52 94 100 80 83 78 92 93 61 84 86 92 94 100 100 96 100 100 100 100 100 100 100 100 100 100 100 100 100 100 100 100 100 100 100 100 100 100 100 100
50 52 35 26 46 92 99 78 82 97 100 96 71 56 51 59 74 91 97 98 99 100 100 98 79 81 99 99 100 99 100 100 100 100 95 84 90 92 100 75 52 44 28
50 44 34 24 25 36 57 79 94 94 93 90 97 83 66 59 54 68 94 97 99 100 96 76 100 100 100 100 100 96 96 89 81 77 66 36 66 49 28 27 26 27 30
65 41 44 41 34 32 32 36 42 69 84 96 98 93 88 93 75 64 61 76 90 84 76 80 88 98 89 68 53 47 36 36 36 28 26 28 27 27 28 28 31 31 32
56 54 45 54 57 46 39 31 31 34 35 45 59 66 68 68 75 78 76 73 74 74 62 53 45 40 36 32 30 31 31 31 29 29 28 27 26 26 27 28 29 28 29
60 53 53 61 68 61 60 57 46 53 53 49 47 49 54 59 61 67 61 62 61 62 60 52 48 41 34 29 29 30 28 28 28 26 25 25 25 26 28 28 27 28 28
31 41 43 48 57 57 56 51 43 50 56 55 51 47 46 49 49 54 51 48 41 39 40 38 34 31 30 28 27 28 29 28 30 29 28 28 28 30 30 28 27 26 27
28 29 33 45 42 43 42 45 47 44 48 44 44 44 40 40 36 31 31 33 37 38 37 34 34 32 34 34 33 33 33 32 30 31 31 32 33 32 30 27 27 28 27
28 29 29 30 32 31 31 35 39 41 35 31 33 34 35 36 36 36 37 39 39 39 38 37 36 38 38 36 32 31 30 32 29 28 26 28 30 31 30 29 27 25 22
17 18 19 21 23 24 25 25 24 24 25 25 26 28 30 33 37 39 40 42 41 46 44 43 44 40 38 37 33 30 27 31 31 28 26 24 24 24 22 21 22 20 19
19 18 18 18 19 20 22 22 22 21 21 22 24 26 30 36 42 48 50 48 43 40 46 47 42 38 35 33 35 38 35 30 26 24 23 23 22 21 20 19 18 16 15
18 20 21 20 19 18 18 18 19 20 21 23 27 33 37 39 39 39 40 41 43 44 42 33 31 32 41 41 38 36 31 26 26 22 20 17 18 17 16 17 16 16 15
18 18 19 21 21 22 21 20 21 21 21 22 24 27 29 30 32 34 38 42 41 40 36 33 38 45 46 39 36 32 25 20 20 19 19 20 21 20 18 17 17 17 17
21 19 18 20 23 25 26 28 30 38 43 47 51 52 50 55 57 56 54 56 55 51 45 48 50 41 38 34 28 24 20 20 22 22 23 24 25 22 22 23 23 25 30
23 24 23 22 21 21 26 34 40 41 43 48 50 54 60 60 62 65 61 55 52 53 58 57 51 42 38 30 26 26 26 25 25 30 34 34 37 39 41 40 44 48 50

GFSMW_250_rhum_114.txt.gz
RH
35 80 98 100 97 88 100 100 100 100 92 76 87 84 90 100 92 100 100 100 100 100 100 96 99 100 100 100 100 100 100 100 100 93 86 90 100 100 100 99 84 86 80
71 64 100 92 81 98 100 58 70 65 73 78 64 77 70 84 74 69 88 100 100 100 100 100 100 100 100 100 100 100 100 89 99 100 100 100 100 100 96 87 86 83 82
69 55 100 66 100 93 97 100 100 100 100 85 100 100 100 100 100 100 100 100 100 100 100 100 100 100 97 89 75 70 63 76 96 91 100 100 100 100 98 100 100 98 91
31 59 91 97 100 100 100 100 100 100 93 84 91 100 100 100 100 100 77 89 100 100 100 100 84 76 72 64 47 68 91 89 95 97 100 100 99 100 100 84 83 82 80
41 64 84 99 95 99 100 100 100 100 100 62 93 99 100 85 81 61 88 100 100 100 100 96 79 86 75 67 57 73 100 100 100 89 86 96 91 91 86 88 71 77 64
39 54 56 77 98 93 87 100 100 98 60 100 100 100 100 100 84 100 97 100 100 100 100 100 100 100 100 100 82 82 83 84 63 53 60 57 66 59 78 74 74 63 72
41 49 56 66 100 95 72 100 79 70 64 100 100 100 100 100 100 100 100 100 100 100 100 100 100 100 100 100 96 81 55 52 48 45 48 54 58 64 65 88 87 85 92
43 52 49 99 100 100 100 72 96 100 100 100 100 100 100 100 100 100 100 100 100 100 100 100 100 100 100 100 100 100 100 91 63 46 48 51 59 78 94 92 100 100 100
35 49 93 93 100 100 100 66 100 100 100 100 100 100 100 100 100 100 100 100 100 100 100 100 100 100 96 100 100 100 100 100 99 87 95 98 97 100 99 100 100 100 100
84 58 83 100 100 100 100 87 100 100 100 100 97 100 100 100 100 100 100 100 100 98 100 100 100 100 100 100 98 100 100 100 100 100 100 100 100 100 100 100 100 100 96
69 66 73 97 100 100 100 100 100 100 100 100 100 100 100 100 100 100 100 100 100 100 100 100 100 100 100 88 88 72 78 85 77 89 82 99 100 100 100 100 100 100 100
63 74 65 85 100 100 100 100 100 100 100 100 100 100 100 100 100 100 100 100 100 100 100 100 98 100 100 100 90 90 84 96 99 96 100 100 100 100 100 100 100 100 100
36 58 79 64 100 100 100 100 100 100 100 100 86 100 100 58 71 98 100 100 100 100 100 100 100 100 97 89 72 82 90 94 83 96 100 100 100 100 100 100 98 100 100
57 48 56 67 79 100 100 100 100 100 99 100 95 97 100 67 79 96 100 100 100 100 100 100 100 100 100 100 100 100 100 97 100 87 86 100 100 100 93 84 96 99 89
66 49 45 61 84 96 100 100 100 100 100 100 88 96 100 100 100 100 100 100 100 100 100 99 89 99 100 100 100 100 100 100 100 100 100 100 100 100 79 39 48 43 35
100 66 40 32 48 76 94 100 100 100 100 100 100 100 100 100 100 100 100 100 100 100 100 100 100 100 100 100 100 100 100 100 100 100 100 94 71 72 55 48 40 33 31
81 63 47 38 36 35 48 62 85 100 100 100 100 100 100 100 100 100 100 100 100 100 100 100 100 100 100 100 100 100 100 100 99 97 78 66 74 66 56 44 35 31 30
65 59 50 43 34 28 28 33 48 54 74 87 98 97 100 100 100 100 100 100 100 100 100 100 100 100 100 100 100 91 85 92 74 62 63 58 55 51 39 31 29 27 26
61 67 65 56 46 40 42 39 32 31 48 60 68 86 84 83 86 92 93 96 95 95 100 100 100 100 100 100 100 83 74 75 64 54 47 41 36 32 32 26 24 22 23
59 58 60 60 58 56 55 44 43 41 36 41 46 66 82 75 74 74 68 70 78 85 89 90 86 88 79 66 60 59 58 52 38 35 34 33 31 30 28 24 25 21 20
53 66 57 65 72 74 70 67 64 56 50 41 41 42 44 43 43 49 47 49 49 47 48 50 55 53 46 43 36 34 33 34 35 35 33 30 26 26 26 22 22 20 20
20 21 24 26 42 47 47 47 52 58 62 61 51 45 41 39 37 35 33 34 33 32 32 31 31 30 30 31 33 37 37 35 35 30 29 32 27 24 24 24 22 20 18
16 19 20 20 21 24 22 24 32 35 42 43 36 33 36 34 33 31 33 28 28 28 29 30 30 32 34 36 40 39 41 36 30 27 32 31 29 26 25 24 22 20 17
20 19 18 20 21 22 22 21 22 21 22 25 25 24 23 23 26 26 25 24 24 25 27 28 28 30 36 37 40 43 38 35 34 46 37 31 28 25 21 20 21 22 20
21 20 21 20 18 20 22 23 23 24 25 26 24 23 22 23 24 23 22 23 25 27 27 30 32 36 41 50 51 53 52 46 50 43 31 27 25 20 22 23 25 22 24
18 22 23 22 22 22 20 19 20 23 25 26 26 27 28 27 27 29 30 29 29 32 42 59 64 65 66 60 55 54 56 48 40 35 28 26 28 27 27 27 25 25 28

GFSMW_250_rhum_117.txt.gz
RH
12 72 80 97 100 100 100 92 95 89 100 100 100 100 93 86 100 79 96 100 100 100 100 100 97 100 97 100 100 100 100 100 100 100 86 76 53 56 71 83 85 76 85
19 56 98 100 100 100 100 91 88 100 100 100 100 100 100 89 69 56 83 89 88 99 100 100 100 100 100 100 100 100 100 100 99 68 79 65 72 81 66 65 70 72 78
14 38 98 100 100 100 100 100 100 100 97 100 100 100 100 76 77 84 76 91 94 99 99 99 100 100 100 100 100 100 72 72 80 70 56 80 69 68 74 69 68 67 60
15 100 100 100 100 100 100 100 98 83 90 82 88 99 87 83 75 72 70 85 100 100 100 100 99 100 100 100 96 76 68 69 66 70 73 68 72 68 51 52 52 48 45
17 100 100 98 100 100 100 93 87 100 100 100 97 87 96 85 84 60 71 75 98 100 100 76 95 100 100 100 98 77 78 96 100 100 91 72 47 36 32 31 43 40 42
61 100 100 100 100 100 100 89 100 98 54 100 100 99 96 100 100 99 100 100 100 100 100 88 97 100 100 100 100 91 100 99 94 81 66 52 47 41 74 61 30 37 36
44 100 100 100 98 89 84 96 93 97 78 89 100 100 100 100 100 99 100 100 100 100 100 100 100 100 100 100 95 100 100 96 56 46 41 33 34 33 26 25 32 33 40
100 100 100 100 100 100 100 100 98 100 100 100 95 100 100 100 100 100 100 100 97 100 100 100 100 99 100 100 100 100 100 100 100 97 82 61 58 48 44 37 39 48 58
54 100 100 100 100 92 100 100 100 100 76 100 100 100 100 100 100 100 100 100 100 100 100 100 100 100 100 100 100 100 100 96 100 92 100 97 94 100 81 64 56 59 67
96 100 100 100 100 92 100 100 100 100 100 100 100 100 100 100 100 100 100 100 100 100 100 100 100 100 100 100 99 96 95 100 100 100 100 98 99 89 93 85 93 92 83
100 100 100 100 100 82 100 90 100 100 100 100 100 100 100 100 100 100 100 100 100 100 100 100 100 100 97 100 100 100 100 100 100 100 100 100 100 100 97 83 84 92 98
82 100 100 100 100 100 100 100 100 100 100 100 100 100 100 100 100 100 100 100 100 100 100 100 100 100 100 100 100 100 100 100 100 100 100 100 100 100 100 99 100 100 100
99 83 100 100 100 100 100 100 96 100 100 100 100 100 100 100 100 100 100 100 100 100 100 100 100 100 100 100 99 100 89 94 100 100 100 100 100 100 100 100 100 98 91
86 88 87 96 100 100 100 100 100 100 100 100 100 100 100 100 100 100 100 100 100 100 100 100 100 100 100 100 100 100 100 100 100 100 100 100 100 100 96 98 100 100 100
97 92 84 97 100 100 100 100 100 100 100 100 100 100 100 100 100 100 96 100 100 100 100 100 100 100 100 100 100 100 100 100 100 100 100 100 100 99 100 100 100 100 99
61 54 84 85 100 100 100 100 100 100 100 100 100 100 100 100 100 98 83 100 100 100 100 100 100 100 100 100 100 100 100 100 100 100 100 100 100 100 100 100 100 100 96
39 48 48 70 95 97 100 100 100 100 100 100 100 100 100 100 98 88 92 100 98 99 93 94 100 100 100 100 100 100 100 100 100 100 100 100 100 100 100 97 95 93 90
51 28 37 47 60 69 99 100 100 100 100 100 100 100 100 100 100 100 100 100 98 97 84 89 82 75 90 89 98 96 100 100 100 100 100 100 100 100 94 96 96 100 90
74 43 25 30 52 65 75 100 100 100 100 100 100 100 100 100 100 100 97 100 100 94 79 96 68 66 67 83 97 100 100 100 100 100 100 100 100 100 99 99 80 59 50
59 52 35 26 23 37 57 67 91 100 100 100 98 100 100 100 100 100 100 100 100 100 97 90 100 100 99 97 100 100 100 100 100 100 100 100 100 87 73 62 56 43 50
64 66 59 53 48 30 24 35 58 70 92 100 100 100 100 100 100 100 100 100 100 100 100 100 100 100 100 100 100 100 100 97 100 100 100 92 78 69 60 54 52 43 41
42 57 60 65 75 69 62 54 44 44 45 59 85 95 100 100 100 100 100 100 100 100 100 100 100 100 100 100 100 100 100 100 100 95 85 74 57 51 44 34 31 28 28
25 20 18 21 29 44 63 73 72 68 57 51 48 54 54 65 73 86 91 88 88 93 98 100 100 100 100 100 95 96 99 82 82 69 63 53 38 35 30 28 28 25 23
25 22 22 22 21 18 18 25 42 43 46 48 55 51 54 50 51 51 54 54 60 61 62 65 65 69 67 65 67 74 69 60 60 48 47 37 26 26 26 26 25 24 22
49 46 35 24 24 22 19 16 14 16 17 19 26 28 37 34 39 44 47 48 50 46 46 52 52 48 46 43 42 51 47 33 26 24 25 23 25 28 27 26 25 26 30
54 49 45 41 30 19 20 22 20 18 17 16 17 16 16 15 16 18 21 22 25 26 27 26 27 30 28 24 24 21 21 23 27 29 27 27 29 31 31 30 31 31 30